
Distance (Route):
Temperature : 20.5°C
Humidity : 50.3%
Pressure : 0hPa| Receiver | Frames | First received | Last received |
|---|---|---|---|
| 9A1FER-10 | 425 | 2026-08-31 23:15:57 | 2026-09-01 01:06:45 |
| 9A1FER-3 | 400 | 2026-08-31 23:15:53 | 2026-09-01 01:06:22 |
| PETON7-10 | 229 | 2026-08-31 23:50:41 | 2026-09-01 00:55:23 |
| OE5DRO-10 | 138 | 2026-08-31 23:58:35 | 2026-09-01 00:54:32 |
| PG1ADW-2 | 91 | 2026-09-01 00:11:50 | 2026-09-01 00:53:01 |
| OE5DXL-15 | 66 | 2026-09-01 00:14:59 | 2026-09-01 00:52:56 |
| OE3JTB-15 | 62 | 2026-08-31 23:44:50 | 2026-09-01 01:00:30 |
| OE8JPQ-2 | 45 | 2026-09-01 00:30:53 | 2026-09-01 00:49:07 |
| LZ4TU-5 | 19 | 2026-09-01 00:27:31 | 2026-09-01 00:50:58 |
| Receiver | Date | Latitude | Longitude | Direction | Speed | Altitude | Climb | Temperature | Humidity | Pressure | Voltage | Killtimer | Uptime | BKT | XDATA |
|---|---|---|---|---|---|---|---|---|---|---|---|---|---|---|---|
| 9A1FER-10 | 2026-09-01 01:06:45 | 45.81953 | 17.13169 | 187° | 47km/h | 666m | -13.6m/s | 20.5°C | 50.3% | 0hPa | 2.6V | 00:00:00 | 02:04:03 | 00:00:00 | |
| 9A1FER-10 | 2026-09-01 01:06:43 | 45.81977 | 17.13173 | 188° | 46km/h | 694m | -15.3m/s | 20.7°C | 47.8% | 0hPa | 2.6V | 00:00:00 | 02:04:01 | 00:00:00 | |
| 9A1FER-10 | 2026-09-01 01:06:41 | 45.82000 | 17.13177 | 188° | 46km/h | 724m | -14.0m/s | 20.5°C | 48.1% | 0hPa | 2.6V | 00:00:00 | 02:03:59 | 00:00:00 | |
| 9A1FER-10 | 2026-09-01 01:06:39 | 45.82023 | 17.13180 | 183° | 46km/h | 753m | -14.5m/s | 20.5°C | 47.3% | 0hPa | 2.6V | 00:00:00 | 02:03:57 | 00:00:00 | |
| 9A1FER-10 | 2026-09-01 01:06:37 | 45.82046 | 17.13182 | 181° | 46km/h | 782m | -14.2m/s | 20.5°C | 46.5% | 0hPa | 2.6V | 00:00:00 | 02:03:55 | 00:00:00 | |
| 9A1FER-10 | 2026-09-01 01:06:35 | 45.82069 | 17.13183 | 179° | 46km/h | 811m | -14.3m/s | 20.4°C | 46.8% | 0hPa | 2.6V | 00:00:00 | 02:03:53 | 00:00:00 | |
| 9A1FER-10 | 2026-09-01 01:06:33 | 45.82092 | 17.13183 | 179° | 46km/h | 841m | -15.2m/s | 20.1°C | 47.2% | 0hPa | 2.5V | 00:00:00 | 02:03:51 | 00:00:00 | |
| 9A1FER-10 | 2026-09-01 01:06:31 | 45.82115 | 17.13182 | 180° | 44km/h | 871m | -14.2m/s | 20.1°C | 46.6% | 0hPa | 2.5V | 00:00:00 | 02:03:49 | 00:00:00 | |
| 9A1FER-10 | 2026-09-01 01:06:29 | 45.82137 | 17.13182 | 180° | 44km/h | 899m | -14.7m/s | 20.2°C | 46.2% | 0hPa | 2.5V | 08:12:00 | 02:03:47 | 00:00:00 | |
| 9A1FER-10 | 2026-09-01 01:06:27 | 45.82159 | 17.13181 | 179° | 44km/h | 928m | -13.9m/s | 20.1°C | 46.6% | 0hPa | 2.5V | 00:00:00 | 02:03:45 | 00:00:00 | |
| 9A1FER-10 | 2026-09-01 01:06:25 | 45.82181 | 17.13180 | 178° | 44km/h | 956m | -14.4m/s | 19.9°C | 46.8% | 0hPa | 2.5V | 00:00:00 | 02:03:43 | 00:00:00 | |
| 9A1FER-10 | 2026-09-01 01:06:23 | 45.82203 | 17.13179 | 180° | 42km/h | 985m | -14.5m/s | 19.6°C | 47.1% | 0hPa | 2.5V | 00:00:00 | 02:03:41 | 00:00:00 | |
| 9A1FER-3 | 2026-09-01 01:06:22 | 45.82214 | 17.13179 | 178° | 44km/h | 999m | -14.9m/s | 19.5°C | 47.4% | 0hPa | 2.6V | 00:00:00 | 02:03:40 | 00:00:00 | |
| 9A1FER-10 | 2026-09-01 01:06:21 | 45.82225 | 17.13179 | 183° | 44km/h | 1014m | -14.9m/s | 19.4°C | 47.7% | 0hPa | 2.6V | 00:00:00 | 02:03:39 | 00:00:00 | |
| 9A1FER-3 | 2026-09-01 01:06:17 | 45.82271 | 17.13182 | 182° | 44km/h | 1075m | -15.4m/s | 18.8°C | 48.9% | 0hPa | 2.6V | 00:00:00 | 02:03:35 | 00:00:00 | |
| 9A1FER-10 | 2026-09-01 01:06:16 | 45.82282 | 17.13183 | 187° | 46km/h | 1090m | -16.0m/s | 18.7°C | 49.2% | 0hPa | 2.6V | 00:00:00 | 02:03:34 | 00:00:00 | |
| 9A1FER-3 | 2026-09-01 01:06:12 | 45.82328 | 17.13187 | 183° | 44km/h | 1149m | -14.8m/s | 18.1°C | 50.6% | 0hPa | 2.6V | 08:13:00 | 02:03:30 | 00:00:00 | |
| 9A1FER-10 | 2026-09-01 01:06:11 | 45.82340 | 17.13189 | 188° | 44km/h | 1164m | -15.0m/s | 18.0°C | 51.1% | 0hPa | 2.6V | 00:00:00 | 02:03:29 | 00:00:00 | |
| 9A1FER-3 | 2026-09-01 01:06:05 | 45.82406 | 17.13208 | 194° | 44km/h | 1255m | -15.9m/s | 17.0°C | 55.5% | 0hPa | 2.5V | 00:00:00 | 02:03:23 | 00:00:00 | |
| 9A1FER-10 | 2026-09-01 01:06:01 | 45.82449 | 17.13220 | 191° | 42km/h | 1316m | -14.5m/s | 16.4°C | 57.2% | 0hPa | 2.5V | 00:00:00 | 02:03:19 | 00:00:00 | |
| 9A1FER-3 | 2026-09-01 01:06:00 | 45.82460 | 17.13223 | 192° | 42km/h | 1331m | -15.7m/s | 16.3°C | 57.8% | 0hPa | 2.5V | 00:00:00 | 02:03:18 | 00:00:00 | |
| 9A1FER-10 | 2026-09-01 01:05:56 | 45.82502 | 17.13234 | 194° | 42km/h | 1391m | -14.8m/s | 15.7°C | 60.0% | 0hPa | 2.5V | 08:13:00 | 02:03:14 | 00:00:00 | |
| 9A1FER-3 | 2026-09-01 01:05:55 | 45.82512 | 17.13238 | 194° | 42km/h | 1406m | -15.1m/s | 15.5°C | 60.4% | 0hPa | 2.5V | 00:00:00 | 02:03:13 | 00:00:00 | |
| 9A1FER-10 | 2026-09-01 01:05:51 | 45.82553 | 17.13251 | 196° | 42km/h | 1465m | -15.5m/s | 15.0°C | 62.3% | 0hPa | 2.6V | 00:00:00 | 02:03:09 | 00:00:00 | |
| 9A1FER-3 | 2026-09-01 01:05:50 | 45.82563 | 17.13256 | 200° | 44km/h | 1480m | -14.6m/s | 14.8°C | 62.8% | 0hPa | 2.6V | 00:00:00 | 02:03:08 | 00:00:00 | |
| 9A1FER-10 | 2026-09-01 01:05:46 | 45.82605 | 17.13275 | 198° | 42km/h | 1539m | -14.3m/s | 14.3°C | 64.5% | 0hPa | 2.6V | 00:00:00 | 02:03:04 | 00:00:00 | |
| 9A1FER-3 | 2026-09-01 01:05:45 | 45.82616 | 17.13280 | 199° | 42km/h | 1554m | -15.0m/s | 14.1°C | 65.0% | 0hPa | 2.6V | 00:00:00 | 02:03:03 | 00:00:00 | |
| 9A1FER-10 | 2026-09-01 01:05:41 | 45.82655 | 17.13301 | 200° | 38km/h | 1615m | -15.3m/s | 13.5°C | 67.1% | 0hPa | 2.6V | 00:00:00 | 02:02:59 | 00:00:00 | |
| 9A1FER-3 | 2026-09-01 01:05:40 | 45.82664 | 17.13306 | 201° | 37km/h | 1630m | -14.8m/s | 13.4°C | 67.6% | 0hPa | 2.6V | 00:00:00 | 02:02:58 | 00:00:00 | |
| 9A1FER-10 | 2026-09-01 01:05:36 | 45.82700 | 17.13325 | 203° | 37km/h | 1689m | -14.5m/s | 12.8°C | 69.4% | 0hPa | 2.6V | 00:00:00 | 02:02:54 | 00:00:00 | |
| 9A1FER-3 | 2026-09-01 01:05:35 | 45.82708 | 17.13331 | 210° | 37km/h | 1703m | -14.9m/s | 12.7°C | 69.3% | 0hPa | 2.6V | 00:00:00 | 02:02:53 | 00:00:00 | |
| 9A1FER-10 | 2026-09-01 01:05:31 | 45.82740 | 17.13357 | 212° | 35km/h | 1762m | -14.8m/s | 12.2°C | 71.2% | 0hPa | 2.6V | 00:00:00 | 02:02:49 | 00:00:00 | |
| 9A1FER-3 | 2026-09-01 01:05:30 | 45.82747 | 17.13364 | 215° | 35km/h | 1777m | -14.2m/s | 12.1°C | 71.3% | 0hPa | 2.6V | 00:00:00 | 02:02:48 | 00:00:00 | |
| 9A1FER-10 | 2026-09-01 01:05:26 | 45.82774 | 17.13396 | 230° | 31km/h | 1835m | -14.9m/s | 11.7°C | 71.8% | 0hPa | 2.6V | 00:00:00 | 02:02:44 | 00:00:00 | |
| 9A1FER-3 | 2026-09-01 01:05:25 | 45.82779 | 17.13405 | 231° | 31km/h | 1850m | -14.8m/s | 11.7°C | 71.7% | 0hPa | 2.5V | 08:13:00 | 02:02:43 | 00:00:00 | |
| 9A1FER-10 | 2026-09-01 01:05:21 | 45.82797 | 17.13442 | 240° | 29km/h | 1909m | -15.6m/s | 11.7°C | 64.9% | 0hPa | 2.6V | 00:00:00 | 02:02:39 | 00:00:00 | |
| 9A1FER-3 | 2026-09-01 01:05:20 | 45.82801 | 17.13453 | 242° | 29km/h | 1925m | -14.8m/s | 11.7°C | 63.6% | 0hPa | 2.6V | 00:00:00 | 02:02:38 | 00:00:00 | |
| 9A1FER-10 | 2026-09-01 01:05:16 | 45.82813 | 17.13491 | 248° | 24km/h | 1985m | -14.7m/s | 11.3°C | 62.4% | 0hPa | 2.6V | 00:00:00 | 02:02:34 | 00:00:00 | |
| 9A1FER-3 | 2026-09-01 01:05:15 | 45.82816 | 17.13499 | 246° | 20km/h | 1999m | -13.9m/s | 11.3°C | 61.9% | 0hPa | 2.6V | 00:00:00 | 02:02:33 | 00:00:00 | |
| 9A1FER-10 | 2026-09-01 01:05:11 | 45.82823 | 17.13532 | 262° | 16km/h | 2056m | -14.5m/s | 11.1°C | 62.6% | 0hPa | 2.6V | 08:14:00 | 02:02:29 | 00:00:00 | |
| 9A1FER-3 | 2026-09-01 01:05:05 | 45.82824 | 17.13568 | 273° | 13km/h | 2146m | -15.4m/s | 10.9°C | 67.9% | 0hPa | 2.6V | 00:00:00 | 02:02:23 | 00:00:00 | |
| 9A1FER-10 | 2026-09-01 01:05:01 | 45.82821 | 17.13589 | 297° | 9km/h | 2205m | -14.5m/s | 10.4°C | 72.6% | 0hPa | 2.6V | 00:00:00 | 02:02:19 | 00:00:00 | |
| 9A1FER-3 | 2026-09-01 01:04:55 | 45.82814 | 17.13611 | 302° | 7km/h | 2294m | -14.8m/s | 9.7°C | 78.3% | 0hPa | 2.6V | 00:00:00 | 02:02:13 | 00:00:00 | |
| 9A1FER-10 | 2026-09-01 01:04:51 | 45.82808 | 17.13617 | 341° | 9km/h | 2352m | -14.8m/s | 9.4°C | 84.6% | 0hPa | 2.6V | 00:00:00 | 02:02:09 | 00:00:00 | |
| 9A1FER-3 | 2026-09-01 01:04:45 | 45.82797 | 17.13608 | 59° | 15km/h | 2441m | -14.4m/s | 8.9°C | 90.6% | 0hPa | 2.6V | 00:00:00 | 02:02:03 | 00:00:00 | |
| 9A1FER-10 | 2026-09-01 01:04:41 | 45.82792 | 17.13592 | 78° | 18km/h | 2501m | -14.4m/s | 8.5°C | 93.5% | 0hPa | 2.6V | 00:00:00 | 02:01:59 | 00:00:00 | |
| 9A1FER-3 | 2026-09-01 01:04:35 | 45.82786 | 17.13556 | 77° | 27km/h | 2590m | -15.2m/s | 8.1°C | 96.3% | 0hPa | 2.6V | 00:00:00 | 02:01:53 | 00:00:00 | |
| 9A1FER-10 | 2026-09-01 01:04:31 | 45.82780 | 17.13523 | 76° | 33km/h | 2653m | -15.0m/s | 8.0°C | 96.4% | 0hPa | 2.6V | 00:00:00 | 02:01:49 | 00:00:00 | |
| 9A1FER-3 | 2026-09-01 01:04:25 | 45.82767 | 17.13459 | 77° | 40km/h | 2749m | -16.3m/s | 7.4°C | 96.0% | 0hPa | 2.6V | 00:00:00 | 02:01:43 | 00:00:00 | |
| 9A1FER-10 | 2026-09-01 01:04:21 | 45.82759 | 17.13404 | 83° | 40km/h | 2815m | -16.0m/s | 6.9°C | 97.3% | 0hPa | 2.6V | 00:00:00 | 02:01:39 | 00:00:00 | |
| 9A1FER-3 | 2026-09-01 01:04:15 | 45.82753 | 17.13315 | 83° | 40km/h | 2909m | -16.3m/s | 6.2°C | 0% | 0hPa | 2.6V | 00:00:00 | 02:01:33 | 00:00:00 | |
| 9A1FER-10 | 2026-09-01 01:04:11 | 45.82747 | 17.13259 | 83° | 42km/h | 2974m | -15.5m/s | 5.6°C | 97.6% | 0hPa | 2.6V | 00:00:00 | 02:01:29 | 00:00:00 | |
| 9A1FER-3 | 2026-09-01 01:04:05 | 45.82740 | 17.13171 | 86° | 42km/h | 3071m | -16.0m/s | 4.9°C | 0% | 0hPa | 2.6V | 08:15:00 | 02:01:23 | 00:00:00 | |
| 9A1FER-10 | 2026-09-01 01:04:01 | 45.82735 | 17.13113 | 84° | 42km/h | 3134m | -15.5m/s | 4.5°C | 0% | 0hPa | 2.5V | 00:00:00 | 02:01:19 | 00:00:00 | |
| 9A1FER-3 | 2026-09-01 01:03:50 | 45.82718 | 17.12950 | 81° | 42km/h | 3300m | -15.0m/s | 4.4°C | 66.6% | 0hPa | 2.5V | 00:00:00 | 02:01:08 | 00:00:00 | |
| 9A1FER-10 | 2026-09-01 01:03:46 | 45.82710 | 17.12889 | 80° | 42km/h | 3360m | -14.6m/s | 3.9°C | 67.7% | 0hPa | 2.5V | 00:00:00 | 02:01:04 | 00:00:00 | |
| 9A1FER-3 | 2026-09-01 01:03:35 | 45.82686 | 17.12725 | 79° | 42km/h | 3528m | -15.1m/s | 3.0°C | 62.8% | 0hPa | 2.5V | 00:00:00 | 02:00:53 | 00:00:00 | |
| 9A1FER-10 | 2026-09-01 01:03:31 | 45.82677 | 17.12670 | 78° | 42km/h | 3587m | -14.8m/s | 2.5°C | 63.3% | 0hPa | 2.5V | 08:15:00 | 02:00:49 | 00:00:00 | |
| 9A1FER-3 | 2026-09-01 01:03:20 | 45.82653 | 17.12506 | 79° | 44km/h | 3754m | -14.9m/s | 1.3°C | 69.9% | 0hPa | 2.6V | 00:00:00 | 02:00:38 | 00:00:00 | |
| 9A1FER-10 | 2026-09-01 01:03:16 | 45.82646 | 17.12444 | 81° | 44km/h | 3814m | -15.1m/s | 0.8°C | 72.6% | 0hPa | 2.6V | 00:00:00 | 02:00:34 | 00:00:00 | |
| 9A1FER-3 | 2026-09-01 01:03:05 | 45.82632 | 17.12274 | 88° | 44km/h | 3983m | -15.1m/s | -0.6°C | 79.4% | 0hPa | 2.6V | 00:00:00 | 02:00:23 | 00:00:00 | |
| 9A1FER-10 | 2026-09-01 01:03:01 | 45.82632 | 17.12212 | 89° | 44km/h | 4043m | -15.8m/s | -1.0°C | 80.0% | 0hPa | 2.6V | 00:00:00 | 02:00:19 | 00:00:00 | |
| 9A1FER-10 | 2026-09-01 01:02:46 | 45.82634 | 17.11975 | 94° | 49km/h | 4278m | -15.9m/s | -2.6°C | 78.7% | 0hPa | 2.6V | 00:00:00 | 02:00:04 | 00:00:00 | |
| 9A1FER-3 | 2026-09-01 01:02:35 | 45.82638 | 17.11785 | 94° | 57km/h | 4454m | -15.8m/s | -4.1°C | 82.4% | 0hPa | 2.5V | 00:00:00 | 01:59:53 | 00:00:00 | |
| 9A1FER-10 | 2026-09-01 01:02:31 | 45.82643 | 17.11708 | 94° | 58km/h | 4518m | -16.4m/s | -4.5°C | 81.6% | 0hPa | 2.5V | 00:00:00 | 01:59:49 | 00:00:00 | |
| 9A1FER-3 | 2026-09-01 01:02:20 | 45.82654 | 17.11476 | 94° | 60km/h | 4702m | -16.9m/s | -4.0°C | 36.7% | 0hPa | 2.5V | 00:00:00 | 01:59:38 | 00:00:00 | |
| 9A1FER-10 | 2026-09-01 01:02:16 | 45.82656 | 17.11387 | 93° | 60km/h | 4769m | -16.7m/s | -4.3°C | 35.1% | 0hPa | 2.5V | 00:00:00 | 01:59:34 | 00:00:00 | |
| 9A1FER-3 | 2026-09-01 01:02:05 | 45.82675 | 17.11147 | 96° | 58km/h | 4953m | -17.3m/s | -5.6°C | 29.8% | 0hPa | 2.5V | 00:00:00 | 01:59:23 | 00:00:00 | |
| 9A1FER-10 | 2026-09-01 01:02:01 | 45.82680 | 17.11061 | 96° | 58km/h | 5023m | -17.5m/s | -6.2°C | 31.9% | 0hPa | 2.5V | 00:00:00 | 01:59:19 | 00:00:00 | |
| 9A1FER-3 | 2026-09-01 01:01:50 | 45.82693 | 17.10829 | 94° | 62km/h | 5215m | -17.5m/s | -7.8°C | 40.0% | 0hPa | 2.5V | 08:17:00 | 01:59:08 | 00:00:00 | |
| 9A1FER-10 | 2026-09-01 01:01:46 | 45.82697 | 17.10744 | 92° | 64km/h | 5284m | -17.4m/s | -8.4°C | 42.2% | 0hPa | 2.6V | 00:00:00 | 01:59:04 | 00:00:00 | |
| 9A1FER-3 | 2026-09-01 01:01:35 | 45.82711 | 17.10490 | 99° | 57km/h | 5473m | -17.0m/s | -9.1°C | 31.2% | 0hPa | 2.6V | 00:00:00 | 01:58:53 | 00:00:00 | |
| 9A1FER-10 | 2026-09-01 01:01:31 | 45.82718 | 17.10399 | 95° | 53km/h | 5540m | -17.8m/s | -9.4°C | 54.7% | 0hPa | 2.6V | 00:00:00 | 01:58:49 | 00:00:00 | |
| 9A1FER-3 | 2026-09-01 01:01:20 | 45.82730 | 17.10189 | 95° | 47km/h | 5731m | -17.5m/s | -9.2°C | 56.3% | 0hPa | 2.6V | 00:00:00 | 01:58:38 | 00:00:00 | |
| 9A1FER-10 | 2026-09-01 01:01:16 | 45.82733 | 17.10119 | 94° | 47km/h | 5801m | -17.7m/s | -9.4°C | 47.9% | 0hPa | 2.6V | 08:17:00 | 01:58:34 | 00:00:00 | |
| 9A1FER-3 | 2026-09-01 01:01:05 | 45.82743 | 17.09932 | 92° | 57km/h | 5990m | -17.3m/s | -10.6°C | 42.6% | 0hPa | 2.6V | 00:00:00 | 01:58:23 | 00:00:00 | |
| 9A1FER-10 | 2026-09-01 01:01:01 | 45.82745 | 17.09857 | 95° | 60km/h | 6058m | -17.0m/s | -11.0°C | 43.2% | 0hPa | 2.6V | 00:00:00 | 01:58:19 | 00:00:00 | |
| 9A1FER-3 | 2026-09-01 01:00:50 | 45.82764 | 17.09624 | 98° | 68km/h | 6243m | -17.0m/s | -12.3°C | 42.7% | 0hPa | 2.6V | 00:00:00 | 01:58:08 | 00:00:00 | |
| 9A1FER-10 | 2026-09-01 01:00:46 | 45.82776 | 17.09532 | 102° | 71km/h | 6310m | -17.8m/s | -12.7°C | 39.8% | 0hPa | 2.6V | 00:00:00 | 01:58:04 | 00:00:00 | |
| 9A1FER-3 | 2026-09-01 01:00:35 | 45.82826 | 17.09266 | 110° | 77km/h | 6499m | -17.2m/s | -14.3°C | 46.4% | 0hPa | 2.6V | 00:00:00 | 01:57:53 | 00:00:00 | |
| 9A1FER-10 | 2026-09-01 01:00:31 | 45.82851 | 17.09162 | 108° | 77km/h | 6568m | -17.9m/s | -14.2°C | 47.1% | 0hPa | 2.6V | 00:00:00 | 01:57:49 | 00:00:00 | |
| OE3JTB-15 | 2026-09-01 01:00:30 | 45.82856 | 17.09136 | 108° | 78km/h | 6586m | -18.0m/s | -14.4°C | 47.0% | 0hPa | 2.6V | 00:00:00 | 00:00:00 | 00:00:00 | |
| 9A1FER-3 | 2026-09-01 01:00:20 | 45.82919 | 17.08872 | 109° | 80km/h | 6764m | -18.1m/s | -16.0°C | 50.8% | 0hPa | 2.6V | 00:00:00 | 01:57:38 | 00:00:00 | |
| 9A1FER-10 | 2026-09-01 01:00:16 | 45.82946 | 17.08765 | 110° | 80km/h | 6835m | -17.8m/s | -16.6°C | 51.8% | 0hPa | 2.6V | 00:00:00 | 01:57:34 | 00:00:00 | |
| 9A1FER-3 | 2026-09-01 01:00:05 | 45.83025 | 17.08467 | 111° | 77km/h | 7030m | -18.0m/s | -18.4°C | 55.5% | 0hPa | 2.6V | 00:00:00 | 01:57:23 | 00:00:00 | |
| OE3JTB-15 | 2026-09-01 01:00:01 | 45.83055 | 17.08362 | 114° | 71km/h | 7102m | -17.9m/s | -19.0°C | 56.8% | 0hPa | 2.6V | 00:00:00 | 00:00:00 | 00:00:00 | |
| 9A1FER-3 | 2026-09-01 00:59:50 | 45.83143 | 17.08084 | 115° | 69km/h | 7299m | -18.3m/s | -20.5°C | 29.4% | 0hPa | 2.6V | 00:00:00 | 01:57:08 | 00:00:00 | |
| 9A1FER-10 | 2026-09-01 00:59:46 | 45.83175 | 17.07991 | 114° | 68km/h | 7372m | -18.2m/s | -21.2°C | 36.3% | 0hPa | 2.6V | 00:00:00 | 01:57:04 | 00:00:00 | |
| 9A1FER-3 | 2026-09-01 00:59:35 | 45.83243 | 17.07740 | 108° | 64km/h | 7574m | -18.8m/s | -23.0°C | 43.2% | 0hPa | 2.5V | 08:19:00 | 01:56:53 | 00:00:00 | |
| OE3JTB-15 | 2026-09-01 00:59:32 | 45.83258 | 17.07673 | 105° | 68km/h | 7629m | -18.4m/s | -23.5°C | 42.6% | 0hPa | 2.5V | 00:00:00 | 01:56:50 | 00:00:00 | |
| 9A1FER-10 | 2026-09-01 00:59:31 | 45.83262 | 17.07650 | 105° | 64km/h | 7647m | -18.3m/s | -23.7°C | 43.2% | 0hPa | 2.5V | 00:00:00 | 01:56:49 | 00:00:00 | |
| 9A1FER-3 | 2026-09-01 00:59:20 | 45.83300 | 17.07403 | 100° | 69km/h | 7850m | -18.3m/s | -25.5°C | 37.2% | 0hPa | 2.5V | 00:00:00 | 01:56:38 | 00:00:00 | |
| 9A1FER-10 | 2026-09-01 00:59:16 | 45.83308 | 17.07307 | 98° | 69km/h | 7924m | -18.4m/s | -26.1°C | 25.6% | 0hPa | 2.5V | 00:00:00 | 01:56:34 | 00:00:00 | |
| 9A1FER-3 | 2026-09-01 00:59:05 | 45.83335 | 17.07032 | 99° | 73km/h | 8125m | -18.1m/s | -27.8°C | 64.0% | 0hPa | 2.5V | 00:00:00 | 01:56:23 | 00:00:00 | |
| OE3JTB-15 | 2026-09-01 00:59:03 | 45.83341 | 17.06979 | 99° | 71km/h | 8162m | -19.0m/s | -28.2°C | 64.5% | 0hPa | 2.5V | 08:20:00 | 00:00:00 | 00:00:00 | |
| 9A1FER-10 | 2026-09-01 00:59:01 | 45.83347 | 17.06927 | 100° | 71km/h | 8199m | -18.6m/s | -28.5°C | 66.9% | 0hPa | 2.6V | 08:20:00 | 01:56:19 | 00:00:00 | |
| 9A1FER-3 | 2026-09-01 00:58:50 | 45.83376 | 17.06643 | 96° | 69km/h | 8403m | -19.0m/s | -30.0°C | 26.4% | 0hPa | 2.5V | 00:00:00 | 01:56:08 | 00:00:00 | |
| 9A1FER-10 | 2026-09-01 00:58:46 | 45.83384 | 17.06543 | 96° | 71km/h | 8478m | -18.9m/s | -30.7°C | 26.0% | 0hPa | 2.5V | 00:00:00 | 01:56:04 | 00:00:00 | |
| 9A1FER-3 | 2026-09-01 00:58:35 | 45.83406 | 17.06264 | 96° | 75km/h | 8690m | -19.4m/s | -32.6°C | 58.9% | 0hPa | 2.5V | 00:00:00 | 01:55:53 | 00:00:00 | |
| OE3JTB-15 | 2026-09-01 00:58:34 | 45.83408 | 17.06238 | 97° | 78km/h | 8710m | -19.2m/s | -32.7°C | 59.2% | 0hPa | 2.5V | 00:00:00 | 00:00:00 | 00:00:00 | |
| 9A1FER-10 | 2026-09-01 00:58:31 | 45.83412 | 17.06160 | 95° | 77km/h | 8768m | -19.6m/s | -33.2°C | 59.7% | 0hPa | 2.5V | 00:00:00 | 01:55:49 | 00:00:00 | |
| 9A1FER-3 | 2026-09-01 00:58:20 | 45.83425 | 17.05860 | 92° | 82km/h | 8982m | -19.7m/s | -34.9°C | 36.0% | 0hPa | 2.5V | 00:00:00 | 01:55:38 | 00:00:00 | |
| 9A1FER-10 | 2026-09-01 00:58:16 | 45.83427 | 17.05743 | 94° | 84km/h | 9062m | -19.3m/s | -35.6°C | 48.7% | 0hPa | 2.5V | 00:00:00 | 01:55:34 | 00:00:00 | |
| 9A1FER-3 | 2026-09-01 00:58:05 | 45.83438 | 17.05411 | 96° | 84km/h | 9280m | -20.3m/s | -37.3°C | 70.1% | 0hPa | 2.5V | 00:00:00 | 01:55:23 | 00:00:00 | |
| 9A1FER-10 | 2026-09-01 00:58:01 | 45.83448 | 17.05290 | 99° | 86km/h | 9360m | -20.0m/s | -38.0°C | 65.3% | 0hPa | 2.4V | 00:00:00 | 01:55:19 | 00:00:00 | |
| 9A1FER-3 | 2026-09-01 00:57:50 | 45.83496 | 17.04960 | 105° | 84km/h | 9587m | -21.0m/s | -39.8°C | 54.2% | 0hPa | 2.4V | 00:00:00 | 01:55:08 | 00:00:00 | |
| 9A1FER-10 | 2026-09-01 00:57:43 | 45.83536 | 17.04752 | 105° | 82km/h | 9734m | -21.1m/s | -41.0°C | 46.4% | 0hPa | 2.4V | 00:00:00 | 01:55:01 | 00:00:00 | |
| OE3JTB-15 | 2026-09-01 00:57:36 | 45.83579 | 17.04524 | 102° | 97km/h | 9904m | -21.4m/s | -42.4°C | 43.4% | 0hPa | 2.4V | 00:00:00 | 00:00:00 | 00:00:00 | |
| 9A1FER-3 | 2026-09-01 00:57:35 | 45.83579 | 17.04524 | 102° | 86km/h | 9904m | -21.4m/s | -42.4°C | 43.4% | 0hPa | 2.5V | 00:00:00 | 01:54:53 | 00:00:00 | |
| 9A1FER-10 | 2026-09-01 00:57:28 | 45.83605 | 17.04319 | 97° | 95km/h | 10054m | -21.2m/s | -43.7°C | 45.3% | 0hPa | 2.5V | 00:00:00 | 01:54:46 | 00:00:00 | |
| 9A1FER-3 | 2026-09-01 00:57:20 | 45.83622 | 17.04060 | 93° | 110km/h | 10224m | -21.5m/s | -44.8°C | 24.9% | 0hPa | 2.6V | 08:21:00 | 01:54:38 | 00:00:00 | |
| 9A1FER-10 | 2026-09-01 00:57:13 | 45.83627 | 17.03797 | 91° | 120km/h | 10377m | -21.9m/s | -45.4°C | 17.6% | 0hPa | 2.6V | 00:00:00 | 01:54:31 | 00:00:00 | |
| OE3JTB-15 | 2026-09-01 00:57:07 | 45.83628 | 17.03545 | 92° | 141km/h | 10509m | -22.0m/s | -45.8°C | 18.4% | 0hPa | 2.6V | 00:00:00 | 00:00:00 | 00:00:00 | |
| 9A1FER-3 | 2026-09-01 00:57:05 | 45.83630 | 17.03457 | 92° | 133km/h | 10553m | -22.2m/s | -46.1°C | 18.6% | 0hPa | 2.6V | 00:00:00 | 01:54:23 | 00:00:00 | |
| 9A1FER-10 | 2026-09-01 00:56:58 | 45.83635 | 17.03135 | 93° | 146km/h | 10707m | -21.8m/s | -47.1°C | 20.0% | 0hPa | 2.6V | 00:00:00 | 01:54:16 | 00:00:00 | |
| 9A1FER-3 | 2026-09-01 00:56:50 | 45.83639 | 17.02726 | 90° | 153km/h | 10885m | -22.1m/s | -47.8°C | 26.5% | 0hPa | 2.6V | 00:00:00 | 01:54:08 | 00:00:00 | |
| 9A1FER-10 | 2026-09-01 00:56:43 | 45.83630 | 17.02340 | 87° | 155km/h | 11044m | -23.2m/s | -48.3°C | 27.9% | 0hPa | 2.6V | 08:22:00 | 01:54:01 | 00:00:00 | |
| OE3JTB-15 | 2026-09-01 00:56:38 | 45.83615 | 17.02005 | 85° | 157km/h | 11183m | -22.9m/s | -48.9°C | 26.2% | 0hPa | 2.5V | 00:00:00 | 01:53:55 | 00:00:00 | |
| 9A1FER-3 | 2026-09-01 00:56:35 | 45.83608 | 17.01893 | 85° | 155km/h | 11229m | -23.1m/s | -49.3°C | 25.9% | 0hPa | 2.5V | 00:00:00 | 01:53:53 | 00:00:00 | |
| 9A1FER-10 | 2026-09-01 00:56:28 | 45.83590 | 17.01503 | 88° | 157km/h | 11391m | -23.4m/s | -50.4°C | 23.0% | 0hPa | 2.5V | 00:00:00 | 01:53:46 | 00:00:00 | |
| 9A1FER-3 | 2026-09-01 00:56:20 | 45.83575 | 17.01053 | 86° | 161km/h | 11579m | -23.7m/s | -50.9°C | 20.5% | 0hPa | 2.5V | 00:00:00 | 01:53:38 | 00:00:00 | |
| 9A1FER-10 | 2026-09-01 00:56:13 | 45.83554 | 17.00649 | 87° | 159km/h | 11746m | -24.1m/s | -51.9°C | 20.2% | 0hPa | 2.5V | 00:00:00 | 01:53:31 | 00:00:00 | |
| OE3JTB-15 | 2026-09-01 00:56:09 | 45.83536 | 17.00300 | 87° | 157km/h | 11891m | -24.1m/s | -52.6°C | 19.7% | 0hPa | 2.5V | 00:00:00 | 00:00:00 | 00:00:00 | |
| 9A1FER-3 | 2026-09-01 00:56:06 | 45.83532 | 17.00186 | 87° | 159km/h | 11938m | -24.2m/s | -52.9°C | 19.6% | 0hPa | 2.4V | 00:00:00 | 01:53:23 | 00:00:00 | |
| 9A1FER-10 | 2026-09-01 00:55:58 | 45.83514 | 16.99786 | 88° | 157km/h | 12109m | -24.3m/s | -53.5°C | 18.1% | 0hPa | 2.4V | 00:00:00 | 01:53:16 | 00:00:00 | |
| 9A1FER-3 | 2026-09-01 00:55:50 | 45.83495 | 16.99328 | 87° | 157km/h | 12306m | -24.9m/s | -54.4°C | 16.5% | 0hPa | 2.5V | 00:00:00 | 01:53:08 | 00:00:00 | |
| 9A1FER-10 | 2026-09-01 00:55:43 | 45.83475 | 16.98934 | 87° | 155km/h | 12482m | -25.6m/s | -54.9°C | 14.8% | 0hPa | 2.5V | 00:00:00 | 01:53:01 | 00:00:00 | |
| OE3JTB-15 | 2026-09-01 00:55:41 | 45.83466 | 16.98706 | 87° | 142km/h | 12584m | -25.8m/s | -55.3°C | 14.1% | 0hPa | 2.5V | 00:00:00 | 00:00:00 | 00:00:00 | |
| 9A1FER-3 | 2026-09-01 00:55:35 | 45.83457 | 16.98481 | 87° | 150km/h | 12686m | -25.6m/s | -55.7°C | 13.7% | 0hPa | 2.5V | 00:00:00 | 01:52:53 | 00:00:00 | |
| 9A1FER-10 | 2026-09-01 00:55:28 | 45.83438 | 16.98094 | 87° | 142km/h | 12867m | -25.9m/s | -56.7°C | 13.6% | 0hPa | 2.5V | 00:00:00 | 01:52:46 | 00:00:00 | |
| PETON7-10 | 2026-09-01 00:55:23 | 45.83430 | 16.97826 | 90° | 135km/h | 12998m | -26.2m/s | -57.2°C | 13.0% | 0hPa | 2.5V | 00:00:00 | 00:00:00 | 00:00:00 | |
| 9A1FER-3 | 2026-09-01 00:55:20 | 45.83427 | 16.97669 | 89° | 131km/h | 13077m | -26.1m/s | -57.3°C | 12.1% | 0hPa | 2.5V | 00:00:00 | 01:52:38 | 00:00:00 | |
| PETON7-10 | 2026-09-01 00:55:08 | 45.83415 | 16.97093 | 88° | 115km/h | 13395m | -26.1m/s | -57.3°C | 8.6% | 0hPa | 2.5V | 00:00:00 | 01:52:26 | 00:00:00 | |
| 9A1FER-3 | 2026-09-01 00:55:05 | 45.83408 | 16.96963 | 85° | 113km/h | 13474m | -27.2m/s | -57.1°C | 7.7% | 0hPa | 2.5V | 08:24:00 | 01:52:23 | 00:00:00 | |
| 9A1FER-10 | 2026-09-01 00:54:58 | 45.83380 | 16.96679 | 80° | 113km/h | 13664m | -27.4m/s | -57.1°C | 7.1% | 0hPa | 2.5V | 00:00:00 | 01:52:16 | 00:00:00 | |
| PETON7-10 | 2026-09-01 00:54:53 | 45.83356 | 16.96474 | 81° | 111km/h | 13802m | -27.8m/s | -57.9°C | 7.3% | 0hPa | 2.5V | 08:24:00 | 00:00:00 | 00:00:00 | |
| 9A1FER-3 | 2026-09-01 00:54:50 | 45.83344 | 16.96351 | 84° | 108km/h | 13885m | -27.6m/s | -57.4°C | 6.9% | 0hPa | 2.6V | 00:00:00 | 01:52:08 | 00:00:00 | |
| 9A1FER-10 | 2026-09-01 00:54:43 | 45.83327 | 16.96071 | 88° | 100km/h | 14080m | -28.1m/s | -57.1°C | 6.4% | 0hPa | 2.6V | 00:00:00 | 01:52:01 | 00:00:00 | |
| OE3JTB-15 | 2026-09-01 00:54:41 | 45.83325 | 16.95917 | 91° | 89km/h | 14193m | -28.3m/s | -57.5°C | 6.2% | 0hPa | 2.6V | 08:24:00 | 00:00:00 | 00:00:00 | |
| PETON7-10 | 2026-09-01 00:54:38 | 45.83326 | 16.95879 | 90° | 95km/h | 14221m | -28.9m/s | -57.7°C | 6.2% | 0hPa | 2.5V | 00:00:00 | 00:00:00 | 00:00:00 | |
| 9A1FER-3 | 2026-09-01 00:54:35 | 45.83322 | 16.95770 | 87° | 95km/h | 14308m | -28.9m/s | -57.8°C | 6.0% | 0hPa | 2.5V | 00:00:00 | 01:51:53 | 00:00:00 | |
| OE5DRO-10 | 2026-09-01 00:54:32 | 45.83317 | 16.95665 | 86° | 91km/h | 14395m | -29.1m/s | -57.9°C | 6.1% | 0hPa | 2.5V | 00:00:00 | 00:00:00 | 00:00:00 | |
| 9A1FER-10 | 2026-09-01 00:54:28 | 45.83309 | 16.95531 | 88° | 91km/h | 14512m | -29.5m/s | -57.2°C | 5.7% | 0hPa | 2.6V | 08:24:00 | 01:51:46 | 00:00:00 | |
| PETON7-10 | 2026-09-01 00:54:22 | 45.83300 | 16.95329 | 88° | 88km/h | 14689m | -29.5m/s | -57.3°C | 5.6% | 0hPa | 2.5V | 00:00:00 | 01:51:40 | 00:00:00 | |
| 9A1FER-3 | 2026-09-01 00:54:20 | 45.83298 | 16.95261 | 88° | 86km/h | 14748m | -29.6m/s | -57.7°C | 5.8% | 0hPa | 2.5V | 00:00:00 | 01:51:38 | 00:00:00 | |
| 9A1FER-10 | 2026-09-01 00:54:13 | 45.83295 | 16.95040 | 86° | 80km/h | 14957m | -30.2m/s | -57.7°C | 5.7% | 0hPa | 2.6V | 00:00:00 | 01:51:31 | 00:00:00 | |
| PETON7-10 | 2026-09-01 00:54:07 | 45.83282 | 16.94861 | 84° | 69km/h | 15138m | -30.2m/s | -58.1°C | 5.5% | 0hPa | 2.6V | 00:00:00 | 00:00:00 | 00:00:00 | |
| 9A1FER-3 | 2026-09-01 00:54:05 | 45.83277 | 16.94800 | 85° | 66km/h | 15199m | -30.5m/s | -58.2°C | 5.5% | 0hPa | 2.6V | 00:00:00 | 01:51:23 | 00:00:00 | |
| 9A1FER-10 | 2026-09-01 00:53:58 | 45.83269 | 16.94604 | 88° | 53km/h | 15410m | -30.7m/s | -57.9°C | 5.2% | 0hPa | 2.6V | 00:00:00 | 01:51:16 | 00:00:00 | |
| OE5DRO-10 | 2026-09-01 00:53:54 | 45.83268 | 16.94522 | 87° | 51km/h | 15532m | -31.0m/s | -57.5°C | 4.9% | 0hPa | 2.6V | 00:00:00 | 00:00:00 | 00:00:00 | |
| PETON7-10 | 2026-09-01 00:53:52 | 45.83268 | 16.94486 | 91° | 51km/h | 15594m | -31.1m/s | -58.0°C | 5.0% | 0hPa | 2.6V | 00:00:00 | 00:00:00 | 00:00:00 | |
| 9A1FER-3 | 2026-09-01 00:53:50 | 45.83267 | 16.94451 | 86° | 51km/h | 15657m | -31.0m/s | -58.4°C | 5.1% | 0hPa | 2.6V | 00:00:00 | 01:51:08 | 00:00:00 | |
| 9A1FER-10 | 2026-09-01 00:53:43 | 45.83261 | 16.94321 | 89° | 49km/h | 15876m | -31.6m/s | -59.1°C | 5.5% | 0hPa | 2.6V | 00:00:00 | 01:51:01 | 00:00:00 | |
| PETON7-10 | 2026-09-01 00:53:37 | 45.83259 | 16.94208 | 93° | 47km/h | 16066m | -32.4m/s | -59.0°C | 5.4% | 0hPa | 2.5V | 00:00:00 | 01:50:55 | 00:00:00 | |
| 9A1FER-3 | 2026-09-01 00:53:35 | 45.83260 | 16.94175 | 91° | 49km/h | 16130m | -32.5m/s | -59.3°C | 5.5% | 0hPa | 2.5V | 00:00:00 | 01:50:53 | 00:00:00 | |
| 9A1FER-10 | 2026-09-01 00:53:28 | 45.83251 | 16.94062 | 72° | 53km/h | 16358m | -32.1m/s | -60.4°C | 6.0% | 0hPa | 2.4V | 00:00:00 | 01:50:46 | 00:00:00 | |
| PETON7-10 | 2026-09-01 00:53:22 | 45.83214 | 16.93963 | 60° | 51km/h | 16554m | -33.3m/s | -59.5°C | 5.5% | 0hPa | 2.4V | 00:00:00 | 00:00:00 | 00:00:00 | |
| 9A1FER-3 | 2026-09-01 00:53:20 | 45.83201 | 16.93928 | 65° | 47km/h | 16620m | -33.4m/s | -58.7°C | 5.3% | 0hPa | 2.6V | 00:00:00 | 01:50:38 | 00:00:00 | |
| OE5DRO-10 | 2026-09-01 00:53:16 | 45.83182 | 16.93853 | 81° | 44km/h | 16755m | -33.5m/s | -56.9°C | 4.6% | 0hPa | 2.6V | 00:00:00 | 00:00:00 | 00:00:00 | |
| 9A1FER-10 | 2026-09-01 00:53:13 | 45.83177 | 16.93798 | 85° | 42km/h | 16857m | -34.1m/s | -55.2°C | 4.0% | 0hPa | 2.6V | 00:00:00 | 01:50:31 | 00:00:00 | |
| PETON7-10 | 2026-09-01 00:53:07 | 45.83173 | 16.93707 | 87° | 35km/h | 17064m | -35.0m/s | -53.4°C | 3.5% | 0hPa | 2.6V | 00:00:00 | 00:00:00 | 00:00:00 | |
| 9A1FER-3 | 2026-09-01 00:53:05 | 45.83171 | 16.93677 | 82° | 37km/h | 17134m | -35.2m/s | -53.3°C | 3.4% | 0hPa | 2.6V | 00:00:00 | 01:50:23 | 00:00:00 | |
| PG1ADW-2 | 2026-09-01 00:53:01 | 45.83163 | 16.93617 | 82° | 29km/h | 17275m | -35.4m/s | -54.0°C | 3.5% | 0hPa | 2.6V | 00:00:00 | 00:00:00 | 00:00:00 | |
| 9A1FER-10 | 2026-09-01 00:52:58 | 45.83159 | 16.93573 | 87° | 31km/h | 17380m | -35.3m/s | -54.8°C | 3.7% | 0hPa | 2.6V | 00:00:00 | 01:50:16 | 00:00:00 | |
| OE5DRO-10 | 2026-09-01 00:52:57 | 45.83158 | 16.93559 | 87° | 29km/h | 17416m | -35.1m/s | -54.9°C | 3.7% | 0hPa | 2.5V | 00:00:00 | 00:00:00 | 00:00:00 | |
| OE5DXL-15 | 2026-09-01 00:52:56 | 45.83158 | 16.93545 | 89° | 27km/h | 17451m | -35.5m/s | -54.9°C | 3.7% | 0hPa | 2.5V | 00:00:00 | 00:00:00 | 00:00:00 | |
| PETON7-10 | 2026-09-01 00:52:51 | 45.83158 | 16.93497 | 85° | 27km/h | 17632m | -36.5m/s | -54.5°C | 3.5% | 0hPa | 2.5V | 00:00:00 | 01:50:09 | 00:00:00 | |
| 9A1FER-3 | 2026-09-01 00:52:50 | 45.83157 | 16.93488 | 88° | 27km/h | 17668m | -36.5m/s | -54.6°C | 3.6% | 0hPa | 2.5V | 08:26:00 | 01:50:08 | 00:00:00 | |
| 9A1FER-10 | 2026-09-01 00:52:43 | 45.83147 | 16.93409 | 78° | 26km/h | 17925m | -37.4m/s | -55.9°C | 4.0% | 0hPa | 2.6V | 00:00:00 | 01:50:01 | 00:00:00 | |
| PG1ADW-2 | 2026-09-01 00:52:39 | 45.83143 | 16.93369 | 82° | 16km/h | 18074m | -37.6m/s | -56.0°C | 4.1% | 0hPa | 2.6V | 00:00:00 | 00:00:00 | 00:00:00 | |
| OE5DRO-10 | 2026-09-01 00:52:38 | 45.83142 | 16.93361 | 79° | 20km/h | 18112m | -37.8m/s | -56.2°C | 4.2% | 0hPa | 2.6V | 08:26:00 | 00:00:00 | 00:00:00 | |
| PETON7-10 | 2026-09-01 00:52:36 | 45.83141 | 16.93345 | 83° | 22km/h | 18187m | -37.4m/s | -56.4°C | 4.3% | 0hPa | 2.5V | 08:26:00 | 00:00:00 | 00:00:00 | |
| 9A1FER-10 | 2026-09-01 00:52:28 | 45.83120 | 16.93284 | 66° | 16km/h | 18489m | -37.9m/s | -57.9°C | 4.9% | 0hPa | 2.6V | 00:00:00 | 01:49:46 | 00:00:00 | |
| PETON7-10 | 2026-09-01 00:52:21 | 45.83106 | 16.93242 | 42° | 16km/h | 18759m | -38.9m/s | -56.6°C | 4.5% | 0hPa | 2.6V | 00:00:00 | 00:00:00 | 00:00:00 | |
| 9A1FER-3 | 2026-09-01 00:52:20 | 45.83103 | 16.93240 | 24° | 16km/h | 18798m | -39.4m/s | -56.1°C | 4.3% | 0hPa | 2.6V | 00:00:00 | 01:49:38 | 00:00:00 | |
| 9A1FER-10 | 2026-09-01 00:52:13 | 45.83077 | 16.93229 | 23° | 16km/h | 19077m | -40.1m/s | -55.4°C | 4.1% | 0hPa | 2.6V | 08:27:00 | 01:49:31 | 00:00:00 | |
| PETON7-10 | 2026-09-01 00:52:06 | 45.83049 | 16.93212 | 29° | 18km/h | 19361m | -40.7m/s | -55.3°C | 4.0% | 0hPa | 2.5V | 00:00:00 | 01:49:24 | 00:00:00 | |
| 9A1FER-3 | 2026-09-01 00:52:05 | 45.83045 | 16.93208 | 27° | 18km/h | 19402m | -40.8m/s | -55.6°C | 4.1% | 0hPa | 2.5V | 00:00:00 | 01:49:23 | 00:00:00 | |
| OE5DRO-10 | 2026-09-01 00:52:00 | 45.83030 | 16.93190 | 57° | 18km/h | 19607m | -42.0m/s | -55.2°C | 4.0% | 0hPa | 2.5V | 00:00:00 | 00:00:00 | 00:00:00 | |
| 9A1FER-10 | 2026-09-01 00:51:58 | 45.83025 | 16.93181 | 57° | 20km/h | 19692m | -42.0m/s | -54.4°C | 3.8% | 0hPa | 2.5V | 00:00:00 | 01:49:16 | 00:00:00 | |
| PG1ADW-2 | 2026-09-01 00:51:53 | 45.83009 | 16.93151 | 53° | 15km/h | 19902m | -42.9m/s | -54.0°C | 3.6% | 0hPa | 2.5V | 00:00:00 | 01:49:11 | 00:00:00 | |
| PETON7-10 | 2026-09-01 00:51:52 | 45.83002 | 16.93137 | 66° | 16km/h | 19988m | -43.0m/s | -54.2°C | 3.7% | 0hPa | 2.5V | 00:00:00 | 00:00:00 | 00:00:00 | |
| 9A1FER-3 | 2026-09-01 00:51:50 | 45.82999 | 16.93129 | 67° | 15km/h | 20031m | -43.3m/s | -54.3°C | 3.8% | 0hPa | 2.6V | 00:00:00 | 01:49:08 | 00:00:00 | |
| OE5DXL-15 | 2026-09-01 00:51:49 | 45.82997 | 16.93122 | 72° | 13km/h | 20074m | -43.8m/s | -54.2°C | 3.7% | 0hPa | 2.6V | 08:27:00 | 00:00:00 | 00:00:00 | |
| 9A1FER-10 | 2026-09-01 00:51:43 | 45.82995 | 16.93085 | 93° | 9km/h | 20341m | -44.7m/s | -54.6°C | 3.8% | 0hPa | 2.5V | 00:00:00 | 01:49:01 | 00:00:00 | |
| OE5DRO-10 | 2026-09-01 00:51:41 | 45.82994 | 16.93074 | 88° | 11km/h | 20431m | -45.3m/s | -54.9°C | 3.9% | 0hPa | 2.5V | 00:00:00 | 00:00:00 | 00:00:00 | |
| PETON7-10 | 2026-09-01 00:51:36 | 45.82994 | 16.93055 | 86° | 11km/h | 20657m | -46.1m/s | -54.6°C | 3.9% | 0hPa | 2.6V | 00:00:00 | 00:00:00 | 00:00:00 | |
| 9A1FER-3 | 2026-09-01 00:51:35 | 45.82994 | 16.93054 | 89° | 11km/h | 20704m | -46.5m/s | -54.4°C | 3.8% | 0hPa | 2.6V | 00:00:00 | 01:48:53 | 00:00:00 | |
| PG1ADW-2 | 2026-09-01 00:51:33 | 45.82995 | 16.93051 | 92° | 9km/h | 20797m | -46.7m/s | -54.8°C | 4.0% | 0hPa | 2.6V | 08:27:00 | 00:00:00 | 00:00:00 | |
| 9A1FER-10 | 2026-09-01 00:51:24 | 45.82992 | 16.93016 | 120° | 9km/h | 21223m | -47.7m/s | -54.7°C | 4.0% | 0hPa | 2.5V | 00:00:00 | 01:48:42 | 00:00:00 | |
| OE5DRO-10 | 2026-09-01 00:51:22 | 45.82994 | 16.93006 | 113° | 9km/h | 21320m | -48.2m/s | -54.6°C | 4.0% | 0hPa | 2.6V | 00:00:00 | 00:00:00 | 00:00:00 | |
| PETON7-10 | 2026-09-01 00:51:20 | 45.82997 | 16.92999 | 126° | 9km/h | 21416m | -48.7m/s | -54.3°C | 3.9% | 0hPa | 2.6V | 00:00:00 | 01:48:38 | 00:00:00 | |
| OE5DXL-15 | 2026-09-01 00:51:19 | 45.82998 | 16.92997 | 109° | 7km/h | 21465m | -49.1m/s | -54.4°C | 4.0% | 0hPa | 2.6V | 00:00:00 | 00:00:00 | 00:00:00 | |
| PG1ADW-2 | 2026-09-01 00:51:13 | 45.82990 | 16.92989 | 23° | 9km/h | 21763m | -50.2m/s | -54.5°C | 4.1% | 0hPa | 2.6V | 00:00:00 | 00:00:00 | 00:00:00 | |
| 9A1FER-10 | 2026-09-01 00:51:09 | 45.82978 | 16.92982 | 34° | 7km/h | 21968m | -51.0m/s | -54.2°C | 4.1% | 0hPa | 2.6V | 00:00:00 | 01:48:27 | 00:00:00 | |
| PETON7-10 | 2026-09-01 00:51:05 | 45.82969 | 16.92975 | 32° | 5km/h | 22173m | -51.3m/s | -53.7°C | 3.9% | 0hPa | 2.6V | 00:00:00 | 00:00:00 | 00:00:00 | |
| OE5DRO-10 | 2026-09-01 00:51:03 | 45.82966 | 16.92973 | 19° | 5km/h | 22276m | -51.8m/s | -52.8°C | 3.6% | 0hPa | 2.5V | 00:00:00 | 00:00:00 | 00:00:00 | |
| LZ4TU-5 | 2026-09-01 00:50:58 | 45.82960 | 16.92977 | 304° | 5km/h | 22484m | -52.2m/s | -52.5°C | 0% | 0hPa | 2.5V | 00:00:00 | 00:00:00 | 00:00:00 | |
| 9A1FER-10 | 2026-09-01 00:50:54 | 45.82954 | 16.92980 | 332° | 9km/h | 22745m | -52.5m/s | -52.8°C | 3.7% | 0hPa | 2.5V | 00:00:00 | 01:48:12 | 00:00:00 | |
| PG1ADW-2 | 2026-09-01 00:50:53 | 45.82953 | 16.92980 | 295° | 7km/h | 22798m | -52.9m/s | -52.8°C | 3.7% | 0hPa | 2.5V | 00:00:00 | 00:00:00 | 00:00:00 | |
| PETON7-10 | 2026-09-01 00:50:50 | 45.82952 | 16.92980 | 315° | 9km/h | 22957m | -53.6m/s | -52.2°C | 3.5% | 0hPa | 2.5V | 00:00:00 | 00:00:00 | 00:00:00 | |
| 9A1FER-3 | 2026-09-01 00:50:49 | 45.82952 | 16.92981 | 251° | 9km/h | 23010m | -53.7m/s | -52.2°C | 3.5% | 0hPa | 2.5V | 00:00:00 | 01:48:07 | 00:00:00 | |
| OE5DRO-10 | 2026-09-01 00:50:44 | 45.82952 | 16.92999 | 282° | 9km/h | 23283m | -55.8m/s | -52.0°C | 3.5% | 0hPa | 2.5V | 00:00:00 | 00:00:00 | 00:00:00 | |
| 9A1FER-10 | 2026-09-01 00:50:38 | 45.82949 | 16.93018 | 232° | 11km/h | 23623m | -58.0m/s | -51.9°C | 3.4% | 0hPa | 2.5V | 00:00:00 | 01:47:56 | 00:00:00 | |
| PETON7-10 | 2026-09-01 00:50:35 | 45.82950 | 16.93022 | 246° | 11km/h | 23797m | -58.9m/s | -52.1°C | 3.5% | 0hPa | 2.5V | 00:00:00 | 01:47:53 | 00:00:00 | |
| 9A1FER-3 | 2026-09-01 00:50:34 | 45.82951 | 16.93024 | 256° | 11km/h | 23856m | -59.1m/s | -52.1°C | 3.5% | 0hPa | 2.5V | 00:00:00 | 01:47:52 | 08:30:00 | |
| PG1ADW-2 | 2026-09-01 00:50:33 | 45.82951 | 16.93026 | 278° | 13km/h | 23915m | -58.8m/s | -52.1°C | 3.5% | 0hPa | 2.5V | 00:00:00 | 01:47:51 | 00:00:00 | |
| OE5DRO-10 | 2026-09-01 00:50:25 | 45.82940 | 16.93061 | 296° | 13km/h | 24389m | -60.3m/s | -51.2°C | 3.4% | 0hPa | 2.6V | 00:00:00 | 00:00:00 | 00:00:00 | |
| 9A1FER-10 | 2026-09-01 00:50:22 | 45.82934 | 16.93071 | 324° | 7km/h | 24571m | -60.6m/s | -51.3°C | 3.5% | 0hPa | 2.6V | 00:00:00 | 01:47:40 | 00:00:00 | |
| PETON7-10 | 2026-09-01 00:50:20 | 45.82930 | 16.93075 | 319° | 13km/h | 24692m | -61.1m/s | -51.4°C | 3.5% | 0hPa | 2.6V | 08:28:00 | 00:00:00 | 00:00:00 | |
| OE5DXL-15 | 2026-09-01 00:50:19 | 45.82928 | 16.93077 | 341° | 7km/h | 24753m | -60.7m/s | -51.5°C | 3.6% | 0hPa | 2.5V | 00:00:00 | 00:00:00 | 00:00:00 | |
| PG1ADW-2 | 2026-09-01 00:50:13 | 45.82912 | 16.93092 | 326° | 7km/h | 25123m | -62.6m/s | -51.8°C | 3.9% | 0hPa | 2.6V | 00:00:00 | 00:00:00 | 00:00:00 | |
| 9A1FER-3 | 2026-09-01 00:50:07 | 45.82892 | 16.93099 | 360° | 4km/h | 25503m | -64.0m/s | -50.7°C | 3.8% | 0hPa | 2.6V | 00:00:00 | 01:47:25 | 00:00:00 | |
| OE5DRO-10 | 2026-09-01 00:50:06 | 45.82890 | 16.93099 | 33° | 4km/h | 25568m | -64.4m/s | -50.4°C | 3.7% | 0hPa | 2.6V | 00:00:00 | 00:00:00 | 00:00:00 | |
| PETON7-10 | 2026-09-01 00:50:05 | 45.82888 | 16.93097 | 21° | 4km/h | 25632m | -63.9m/s | -50.2°C | 3.7% | 0hPa | 2.6V | 00:00:00 | 00:00:00 | 00:00:00 | |
| 9A1FER-10 | 2026-09-01 00:50:02 | 45.82887 | 16.93097 | 248° | 4km/h | 25825m | -64.9m/s | -49.0°C | 3.3% | 0hPa | 2.6V | 00:00:00 | 01:47:20 | 00:00:00 | |
| PETON7-10 | 2026-09-01 00:49:50 | 45.82892 | 16.93108 | 327° | 4km/h | 26621m | -68.3m/s | -46.8°C | 3.0% | 0hPa | 2.6V | 00:00:00 | 01:47:08 | 00:00:00 | |
| OE5DXL-15 | 2026-09-01 00:49:49 | 45.82891 | 16.93108 | 114° | 5km/h | 26690m | -69.2m/s | -46.7°C | 3.0% | 0hPa | 2.6V | 00:00:00 | 00:00:00 | 00:00:00 | |
| OE5DRO-10 | 2026-09-01 00:49:47 | 45.82890 | 16.93107 | 72° | 4km/h | 26830m | -71.0m/s | -45.8°C | 2.8% | 0hPa | 2.6V | 00:00:00 | 00:00:00 | 08:30:00 | |
| PETON7-10 | 2026-09-01 00:49:35 | 45.82897 | 16.93098 | 179° | 7km/h | 27696m | -75.0m/s | -45.0°C | 2.8% | 0hPa | 2.5V | 00:00:00 | 00:00:00 | 00:00:00 | |
| 9A1FER-3 | 2026-09-01 00:49:33 | 45.82898 | 16.93097 | 50° | 7km/h | 27847m | -76.2m/s | -44.4°C | 2.7% | 0hPa | 2.6V | 00:00:00 | 01:46:51 | 00:00:00 | |
| 9A1FER-10 | 2026-09-01 00:49:32 | 45.82897 | 16.93096 | 76° | 7km/h | 27923m | -76.5m/s | -44.1°C | 2.5% | 0hPa | 2.6V | 00:00:00 | 01:46:50 | 00:00:00 | |
| OE3JTB-15 | 2026-09-01 00:49:26 | 45.82893 | 16.93082 | 78° | 13km/h | 28390m | -80.1m/s | -43.3°C | 2.4% | 0hPa | 2.6V | 00:00:00 | 00:00:00 | 00:00:00 | |
| PETON7-10 | 2026-09-01 00:49:20 | 45.82895 | 16.93066 | 130° | 7km/h | 28880m | -82.2m/s | -41.5°C | 2.1% | 0hPa | 2.6V | 00:00:00 | 00:00:00 | 00:00:00 | |
| OE5DXL-15 | 2026-09-01 00:49:19 | 45.82895 | 16.93065 | 165° | 15km/h | 28962m | -82.6m/s | -41.5°C | 2.1% | 0hPa | 2.6V | 00:00:00 | 00:00:00 | 00:00:00 | |
| 9A1FER-10 | 2026-09-01 00:49:18 | 45.82896 | 16.93064 | 188° | 13km/h | 29129m | -83.4m/s | -41.1°C | 2.0% | 0hPa | 2.6V | 00:00:00 | 01:46:35 | 00:00:00 | |
| PG1ADW-2 | 2026-09-01 00:49:13 | 45.82898 | 16.93058 | 91° | 16km/h | 29463m | -83.4m/s | -41.7°C | 2.1% | 0hPa | 2.6V | 00:00:00 | 01:46:31 | 00:00:00 | |
| OE5DRO-10 | 2026-09-01 00:49:09 | 45.82898 | 16.93041 | 78° | 20km/h | 29795m | -84.0m/s | -42.8°C | 2.3% | 0hPa | 2.6V | 00:00:00 | 00:00:00 | 00:00:00 | |
| OE8JPQ-2 | 2026-09-01 00:49:07 | 45.82895 | 16.93032 | 66° | 18km/h | 29961m | -81.9m/s | -42.5°C | 2.2% | 0hPa | 2.6V | 00:00:00 | 00:00:00 | 00:00:00 | |
| PETON7-10 | 2026-09-01 00:49:05 | 45.82893 | 16.93023 | 61° | 20km/h | 30123m | -80.2m/s | -42.7°C | 2.3% | 0hPa | 2.6V | 00:00:00 | 01:46:23 | 00:00:00 | |
| 9A1FER-10 | 2026-09-01 00:49:01 | 45.82884 | 16.93002 | 62° | 24km/h | 30437m | -75.7m/s | -42.8°C | 2.3% | 0hPa | 2.6V | 00:00:00 | 01:46:19 | 00:00:00 | |
| OE3JTB-15 | 2026-09-01 00:48:56 | 45.82872 | 16.92965 | 77° | 27km/h | 30792m | -66.1m/s | -41.5°C | 1.9% | 0hPa | 2.5V | 00:00:00 | 01:46:14 | 00:00:00 | |
| PG1ADW-2 | 2026-09-01 00:48:53 | 45.82872 | 16.92942 | 99° | 27km/h | 30980m | -55.8m/s | -42.1°C | 2.0% | 0hPa | 2.5V | 00:00:00 | 00:00:00 | 00:00:00 | |
| 9A1FER-3 | 2026-09-01 00:48:52 | 45.82873 | 16.92934 | 105° | 29km/h | 31033m | -50.1m/s | -42.3°C | 2.1% | 0hPa | 2.5V | 00:00:00 | 01:46:10 | 00:00:00 | |
| PETON7-10 | 2026-09-01 00:48:50 | 45.82877 | 16.92918 | 113° | 29km/h | 31122m | -38.4m/s | -42.6°C | 2.2% | 0hPa | 2.5V | 00:00:00 | 00:00:00 | 00:00:00 | |
| OE5DXL-15 | 2026-09-01 00:48:49 | 45.82880 | 16.92908 | 115° | 27km/h | 31157m | -32.0m/s | -42.7°C | 2.2% | 0hPa | 2.5V | 00:00:00 | 00:00:00 | 00:00:00 | |
| 9A1FER-10 | 2026-09-01 00:48:46 | 45.82890 | 16.92878 | 118° | 29km/h | 31219m | -8.0m/s | -42.9°C | 2.3% | 0hPa | 2.5V | 00:00:00 | 01:46:04 | 00:00:00 | |
| 9A1FER-3 | 2026-09-01 00:48:37 | 45.82903 | 16.92783 | 96° | 27km/h | 31176m | 5.3m/s | -43.0°C | 2.3% | 0hPa | 2.5V | 00:00:00 | 01:45:55 | 00:00:00 | |
| PETON7-10 | 2026-09-01 00:48:35 | 45.82906 | 16.92765 | 116° | 29km/h | 31164m | 6.9m/s | -43.0°C | 2.3% | 0hPa | 2.5V | 00:00:00 | 00:00:00 | 00:00:00 | |
| PG1ADW-2 | 2026-09-01 00:48:33 | 45.82912 | 16.92751 | 122° | 26km/h | 31151m | 5.9m/s | -43.0°C | 2.3% | 0hPa | 2.5V | 00:00:00 | 00:00:00 | 08:30:00 | |
| 9A1FER-10 | 2026-09-01 00:48:31 | 45.82917 | 16.92734 | 103° | 26km/h | 31138m | 5.6m/s | -43.0°C | 2.3% | 0hPa | 2.6V | 00:00:00 | 01:45:49 | 00:00:00 | |
| LZ4TU-5 | 2026-09-01 00:48:30 | 45.82917 | 16.92734 | 104° | 29km/h | 31138m | 5.7m/s | -43.0°C | 0% | 0hPa | 2.6V | 00:00:00 | 00:00:00 | 00:00:00 | |
| OE3JTB-15 | 2026-09-01 00:48:27 | 45.82917 | 16.92692 | 77° | 29km/h | 31113m | 5.6m/s | -42.9°C | 2.3% | 0hPa | 2.6V | 00:00:00 | 00:00:00 | 00:00:00 | |
| LZ4TU-5 | 2026-09-01 00:48:26 | 45.82917 | 16.92692 | 78° | 27km/h | 31113m | 5.7m/s | -43.0°C | 0% | 0hPa | 2.6V | 00:00:00 | 00:00:00 | 00:00:00 | |
| 9A1FER-3 | 2026-09-01 00:48:22 | 45.82909 | 16.92640 | 81° | 27km/h | 31082m | 7.1m/s | -43.0°C | 2.3% | 0hPa | 2.6V | 00:00:00 | 01:45:40 | 00:00:00 | |
| PETON7-10 | 2026-09-01 00:48:20 | 45.82907 | 16.92625 | 79° | 27km/h | 31068m | 6.2m/s | -43.0°C | 2.3% | 0hPa | 2.6V | 00:00:00 | 01:45:38 | 00:00:00 | |
| OE5DXL-15 | 2026-09-01 00:48:19 | 45.82906 | 16.92619 | 79° | 35km/h | 31062m | 6.5m/s | -43.1°C | 2.3% | 0hPa | 2.6V | 00:00:00 | 00:00:00 | 00:00:00 | |
| 9A1FER-10 | 2026-09-01 00:48:16 | 45.82902 | 16.92594 | 74° | 31km/h | 31042m | 5.8m/s | -43.2°C | 2.3% | 0hPa | 2.6V | 00:00:00 | 01:45:34 | 00:00:00 | |
| OE8JPQ-2 | 2026-09-01 00:48:15 | 45.82900 | 16.92585 | 73° | 35km/h | 31036m | 7.2m/s | -43.2°C | 2.3% | 0hPa | 2.5V | 00:00:00 | 00:00:00 | 00:00:00 | |
| PG1ADW-2 | 2026-09-01 00:48:13 | 45.82895 | 16.92565 | 74° | 37km/h | 31023m | 5.8m/s | -43.2°C | 2.3% | 0hPa | 2.5V | 00:00:00 | 00:00:00 | 00:00:00 | |
| OE5DRO-10 | 2026-09-01 00:48:12 | 45.82893 | 16.92554 | 76° | 37km/h | 31016m | 7.7m/s | -43.2°C | 2.3% | 0hPa | 2.5V | 00:00:00 | 00:00:00 | 00:00:00 | |
| 9A1FER-3 | 2026-09-01 00:48:07 | 45.82877 | 16.92498 | 48° | 37km/h | 30983m | 6.3m/s | -42.9°C | 2.3% | 0hPa | 2.5V | 00:00:00 | 01:45:25 | 00:00:00 | |
| PETON7-10 | 2026-09-01 00:48:05 | 45.82867 | 16.92484 | 44° | 38km/h | 30970m | 7.5m/s | -42.8°C | 2.3% | 0hPa | 2.5V | 00:00:00 | 00:00:00 | 08:30:00 | |
| 9A1FER-10 | 2026-09-01 00:48:01 | 45.82845 | 16.92454 | 41° | 40km/h | 30942m | 6.3m/s | -42.8°C | 2.2% | 0hPa | 2.6V | 00:00:00 | 01:45:19 | 00:00:00 | |
| OE3JTB-15 | 2026-09-01 00:47:58 | 45.82825 | 16.92423 | 55° | 38km/h | 30922m | 7.6m/s | -43.0°C | 2.3% | 0hPa | 2.6V | 00:00:00 | 00:00:00 | 00:00:00 | |
| PG1ADW-2 | 2026-09-01 00:47:53 | 45.82790 | 16.92360 | 43° | 37km/h | 30888m | 6.5m/s | -43.1°C | 2.3% | 0hPa | 2.6V | 00:00:00 | 01:45:11 | 00:00:00 | |
| 9A1FER-3 | 2026-09-01 00:47:52 | 45.82782 | 16.92351 | 44° | 37km/h | 30881m | 7.5m/s | -43.1°C | 2.3% | 0hPa | 2.6V | 00:00:00 | 01:45:10 | 00:00:00 | |
| PETON7-10 | 2026-09-01 00:47:50 | 45.82769 | 16.92333 | 45° | 37km/h | 30867m | 6.2m/s | -43.0°C | 2.3% | 0hPa | 2.6V | 00:00:00 | 00:00:00 | 00:00:00 | |
| OE5DXL-15 | 2026-09-01 00:47:49 | 45.82762 | 16.92323 | 42° | 33km/h | 30861m | 6.8m/s | -43.0°C | 2.3% | 0hPa | 2.6V | 00:00:00 | 00:00:00 | 00:00:00 | |
| OE8JPQ-2 | 2026-09-01 00:47:48 | 45.82755 | 16.92314 | 37° | 35km/h | 30853m | 8.1m/s | -43.0°C | 2.3% | 0hPa | 2.6V | 00:00:00 | 01:45:06 | 00:00:00 | |
| 9A1FER-10 | 2026-09-01 00:47:46 | 45.82737 | 16.92297 | 34° | 35km/h | 30839m | 6.2m/s | -42.9°C | 2.3% | 0hPa | 2.6V | 00:00:00 | 01:45:04 | 00:00:00 | |
| 9A1FER-3 | 2026-09-01 00:47:37 | 45.82675 | 16.92225 | 36° | 31km/h | 30776m | 7.3m/s | -42.8°C | 2.2% | 0hPa | 2.6V | 00:00:00 | 01:44:55 | 08:30:00 | |
| PETON7-10 | 2026-09-01 00:47:35 | 45.82663 | 16.92212 | 37° | 29km/h | 30762m | 6.4m/s | -42.8°C | 2.2% | 0hPa | 2.5V | 00:00:00 | 01:44:53 | 00:00:00 | |
| OE5DRO-10 | 2026-09-01 00:47:34 | 45.82656 | 16.92206 | 31° | 31km/h | 30755m | 7.7m/s | -42.9°C | 2.2% | 0hPa | 2.5V | 00:00:00 | 00:00:00 | 00:00:00 | |
| PG1ADW-2 | 2026-09-01 00:47:33 | 45.82649 | 16.92200 | 25° | 31km/h | 30747m | 7.7m/s | -42.9°C | 2.2% | 0hPa | 2.5V | 00:00:00 | 00:00:00 | 00:00:00 | |
| 9A1FER-10 | 2026-09-01 00:47:31 | 45.82632 | 16.92190 | 25° | 29km/h | 30734m | 6.5m/s | -42.9°C | 2.2% | 0hPa | 2.6V | 00:00:00 | 01:44:49 | 08:30:00 | |
| OE3JTB-15 | 2026-09-01 00:47:29 | 45.82617 | 16.92178 | 36° | 26km/h | 30719m | 6.9m/s | -42.9°C | 2.2% | 0hPa | 2.5V | 00:00:00 | 01:44:47 | 00:00:00 | |
| OE8JPQ-2 | 2026-09-01 00:47:28 | 45.82611 | 16.92171 | 38° | 29km/h | 30712m | 6.4m/s | -43.0°C | 2.2% | 0hPa | 2.5V | 00:00:00 | 00:00:00 | 00:00:00 | |
| 9A1FER-3 | 2026-09-01 00:47:22 | 45.82575 | 16.92147 | 14° | 29km/h | 30670m | 6.7m/s | -43.4°C | 2.3% | 0hPa | 2.5V | 00:00:00 | 01:44:40 | 00:00:00 | |
| PETON7-10 | 2026-09-01 00:47:20 | 45.82563 | 16.92146 | 355° | 27km/h | 30656m | 8.2m/s | -43.5°C | 2.3% | 0hPa | 2.5V | 00:00:00 | 00:00:00 | 00:00:00 | |
| OE5DXL-15 | 2026-09-01 00:47:19 | 45.82556 | 16.92148 | 351° | 24km/h | 30648m | 6.6m/s | -43.5°C | 2.3% | 0hPa | 2.5V | 00:00:00 | 00:00:00 | 08:30:00 | |
| 9A1FER-10 | 2026-09-01 00:47:16 | 45.82531 | 16.92150 | 9° | 24km/h | 30629m | 7.5m/s | -43.8°C | 2.3% | 0hPa | 2.5V | 00:00:00 | 01:44:34 | 00:00:00 | |
| OE5DRO-10 | 2026-09-01 00:47:15 | 45.82523 | 16.92147 | 23° | 24km/h | 30622m | 6.7m/s | -43.9°C | 2.3% | 0hPa | 2.5V | 00:00:00 | 00:00:00 | 00:00:00 | |
| PG1ADW-2 | 2026-09-01 00:47:13 | 45.82508 | 16.92135 | 33° | 22km/h | 30609m | 6.9m/s | -44.0°C | 2.4% | 0hPa | 2.5V | 00:00:00 | 00:00:00 | 00:00:00 | |
| OE8JPQ-2 | 2026-09-01 00:47:08 | 45.82474 | 16.92116 | 358° | 20km/h | 30575m | 8.3m/s | -44.1°C | 2.4% | 0hPa | 2.5V | 00:00:00 | 00:00:00 | 00:00:00 | |
| 9A1FER-3 | 2026-09-01 00:47:07 | 45.82471 | 16.92117 | 327° | 20km/h | 30568m | 6.4m/s | -44.1°C | 2.4% | 0hPa | 2.5V | 00:00:00 | 01:44:25 | 00:00:00 | |
| PETON7-10 | 2026-09-01 00:47:05 | 45.82468 | 16.92123 | 316° | 20km/h | 30556m | 6.6m/s | -44.1°C | 2.4% | 0hPa | 2.5V | 00:00:00 | 00:00:00 | 00:00:00 | |
| 9A1FER-10 | 2026-09-01 00:47:01 | 45.82449 | 16.92124 | 25° | 20km/h | 30530m | 7.6m/s | -44.3°C | 2.4% | 0hPa | 2.5V | 00:00:00 | 01:44:19 | 00:00:00 | |
| OE3JTB-15 | 2026-09-01 00:47:00 | 45.82443 | 16.92119 | 36° | 16km/h | 30523m | 6.4m/s | -44.3°C | 2.4% | 0hPa | 2.5V | 00:00:00 | 00:00:00 | 08:30:00 | |
| OE5DRO-10 | 2026-09-01 00:46:56 | 45.82421 | 16.92098 | 12° | 15km/h | 30498m | 6.4m/s | -44.3°C | 2.4% | 0hPa | 2.6V | 00:00:00 | 00:00:00 | 08:30:00 | |
| PG1ADW-2 | 2026-09-01 00:46:53 | 45.82408 | 16.92101 | 330° | 15km/h | 30478m | 6.7m/s | -44.3°C | 2.4% | 0hPa | 2.6V | 00:00:00 | 00:00:00 | 00:00:00 | |
| 9A1FER-3 | 2026-09-01 00:46:52 | 45.82406 | 16.92103 | 328° | 13km/h | 30472m | 5.9m/s | -44.4°C | 2.4% | 0hPa | 2.6V | 00:00:00 | 01:44:10 | 00:00:00 | |
| PETON7-10 | 2026-09-01 00:46:50 | 45.82399 | 16.92108 | 342° | 13km/h | 30458m | 6.2m/s | -44.4°C | 2.4% | 0hPa | 2.5V | 00:00:00 | 01:44:08 | 00:00:00 | |
| OE5DXL-15 | 2026-09-01 00:46:49 | 45.82394 | 16.92110 | 357° | 13km/h | 30453m | 5.4m/s | -44.4°C | 2.4% | 0hPa | 2.5V | 00:00:00 | 00:00:00 | 00:00:00 | |
| OE8JPQ-2 | 2026-09-01 00:46:46 | 45.82385 | 16.92104 | 59° | 13km/h | 30433m | 6.0m/s | -44.4°C | 2.4% | 0hPa | 2.5V | 00:00:00 | 01:44:04 | 00:00:00 | |
| 9A1FER-3 | 2026-09-01 00:46:37 | 45.82367 | 16.92084 | 327° | 13km/h | 30377m | 7.7m/s | -44.6°C | 2.4% | 0hPa | 2.5V | 00:00:00 | 01:43:55 | 00:00:00 | |
| PETON7-10 | 2026-09-01 00:46:35 | 45.82360 | 16.92092 | 317° | 13km/h | 30364m | 5.3m/s | -44.6°C | 2.5% | 0hPa | 2.5V | 00:00:00 | 00:00:00 | 00:00:00 | |
| PG1ADW-2 | 2026-09-01 00:46:33 | 45.82353 | 16.92102 | 314° | 11km/h | 30352m | 6.9m/s | -44.5°C | 2.5% | 0hPa | 2.5V | 00:00:00 | 01:43:51 | 00:00:00 | |
| 9A1FER-10 | 2026-09-01 00:46:31 | 45.82348 | 16.92108 | 330° | 11km/h | 30339m | 6.1m/s | -44.4°C | 2.4% | 0hPa | 2.6V | 00:00:00 | 01:43:49 | 00:00:00 | |
| OE8JPQ-2 | 2026-09-01 00:46:26 | 45.82336 | 16.92110 | 18° | 11km/h | 30310m | 6.6m/s | -44.3°C | 2.4% | 0hPa | 2.6V | 00:00:00 | 00:00:00 | 08:30:00 | |
| 9A1FER-3 | 2026-09-01 00:46:22 | 45.82327 | 16.92113 | 337° | 13km/h | 30286m | 5.5m/s | -44.3°C | 2.4% | 0hPa | 2.6V | 00:00:00 | 01:43:40 | 00:00:00 | |
| PETON7-10 | 2026-09-01 00:46:20 | 45.82319 | 16.92119 | 324° | 11km/h | 30275m | 6.9m/s | -44.5°C | 2.4% | 0hPa | 2.6V | 00:00:00 | 00:00:00 | 00:00:00 | |
| OE5DXL-15 | 2026-09-01 00:46:19 | 45.82316 | 16.92123 | 311° | 9km/h | 30268m | 5.5m/s | -44.6°C | 2.4% | 0hPa | 2.6V | 00:00:00 | 00:00:00 | 00:00:00 | |
| OE5DRO-10 | 2026-09-01 00:46:18 | 45.82314 | 16.92127 | 297° | 9km/h | 30263m | 5.0m/s | -44.6°C | 2.5% | 0hPa | 2.6V | 00:00:00 | 00:00:00 | 00:00:00 | |
| 9A1FER-10 | 2026-09-01 00:46:16 | 45.82312 | 16.92134 | 305° | 9km/h | 30252m | 6.1m/s | -44.7°C | 2.5% | 0hPa | 2.6V | 00:00:00 | 01:43:34 | 00:00:00 | |
| PG1ADW-2 | 2026-09-01 00:46:13 | 45.82309 | 16.92134 | 87° | 11km/h | 30235m | 7.3m/s | -44.8°C | 2.5% | 0hPa | 2.6V | 00:00:00 | 00:00:00 | 00:00:00 | |
| 9A1FER-3 | 2026-09-01 00:46:07 | 45.82308 | 16.92110 | 21° | 11km/h | 30197m | 6.7m/s | -45.0°C | 2.6% | 0hPa | 2.6V | 00:00:00 | 01:43:25 | 00:00:00 | |
| PETON7-10 | 2026-09-01 00:46:06 | 45.82307 | 16.92113 | 273° | 9km/h | 30185m | 5.5m/s | -45.0°C | 2.5% | 0hPa | 2.6V | 00:00:00 | 01:43:23 | 00:00:00 | |
| OE3JTB-15 | 2026-09-01 00:46:02 | 45.82306 | 16.92124 | 289° | 11km/h | 30167m | 4.1m/s | -45.0°C | 2.6% | 0hPa | 2.6V | 00:00:00 | 01:43:20 | 00:00:00 | |
| 9A1FER-10 | 2026-09-01 00:46:01 | 45.82305 | 16.92127 | 260° | 9km/h | 30162m | 5.6m/s | -45.0°C | 2.5% | 0hPa | 2.6V | 00:00:00 | 01:43:19 | 00:00:00 | |
| OE5DRO-10 | 2026-09-01 00:45:59 | 45.82308 | 16.92126 | 141° | 11km/h | 30150m | 6.1m/s | -44.9°C | 2.5% | 0hPa | 2.5V | 00:00:00 | 00:00:00 | 00:00:00 | |
| PG1ADW-2 | 2026-09-01 00:45:53 | 45.82317 | 16.92099 | 129° | 11km/h | 30113m | 5.2m/s | -44.7°C | 2.5% | 0hPa | 2.5V | 00:00:00 | 00:00:00 | 00:00:00 | |
| 9A1FER-3 | 2026-09-01 00:45:52 | 45.82318 | 16.92097 | 131° | 13km/h | 30107m | 5.9m/s | -44.6°C | 2.5% | 0hPa | 2.5V | 00:00:00 | 01:43:10 | 00:00:00 | |
| PETON7-10 | 2026-09-01 00:45:50 | 45.82318 | 16.92097 | 354° | 13km/h | 30096m | 4.3m/s | -44.6°C | 2.5% | 0hPa | 2.5V | 00:00:00 | 00:00:00 | 08:30:00 | |
| OE5DXL-15 | 2026-09-01 00:45:49 | 45.82317 | 16.92097 | 17° | 16km/h | 30091m | 4.3m/s | -44.6°C | 2.5% | 0hPa | 2.5V | 00:00:00 | 00:00:00 | 00:00:00 | |
| 9A1FER-10 | 2026-09-01 00:45:46 | 45.82321 | 16.92091 | 134° | 15km/h | 30074m | 4.9m/s | -44.5°C | 2.4% | 0hPa | 2.5V | 00:00:00 | 01:43:04 | 00:00:00 | |
| OE8JPQ-2 | 2026-09-01 00:45:45 | 45.82323 | 16.92087 | 128° | 20km/h | 30069m | 5.1m/s | -44.4°C | 2.4% | 0hPa | 2.5V | 00:00:00 | 01:43:03 | 00:00:00 | |
| OE5DRO-10 | 2026-09-01 00:45:40 | 45.82330 | 16.92053 | 105° | 18km/h | 30038m | 7.1m/s | -44.4°C | 2.4% | 0hPa | 2.5V | 00:00:00 | 00:00:00 | 00:00:00 | |
| 9A1FER-3 | 2026-09-01 00:45:37 | 45.82336 | 16.92041 | 138° | 18km/h | 30021m | 7.0m/s | -44.6°C | 2.4% | 0hPa | 2.5V | 00:00:00 | 01:42:55 | 00:00:00 | |
| PETON7-10 | 2026-09-01 00:45:35 | 45.82338 | 16.92039 | 177° | 20km/h | 30008m | 5.2m/s | -44.8°C | 2.4% | 0hPa | 2.5V | 00:00:00 | 00:00:00 | 00:00:00 | |
| OE3JTB-15 | 2026-09-01 00:45:33 | 45.82342 | 16.92038 | 158° | 24km/h | 29997m | 5.7m/s | -44.8°C | 2.5% | 0hPa | 2.5V | 00:00:00 | 00:00:00 | 00:00:00 | |
| LZ4TU-5 | 2026-09-01 00:45:32 | 45.82345 | 16.92035 | 141° | 16km/h | 29991m | 4.6m/s | -44.9°C | 0% | 0hPa | 2.5V | 00:00:00 | 00:00:00 | 00:00:00 | |
| 9A1FER-10 | 2026-09-01 00:45:31 | 45.82348 | 16.92031 | 125° | 24km/h | 29987m | 5.2m/s | -44.8°C | 2.5% | 0hPa | 2.5V | 00:00:00 | 01:42:49 | 00:00:00 | |
| LZ4TU-5 | 2026-09-01 00:45:27 | 45.82352 | 16.92009 | 95° | 24km/h | 29969m | 5.4m/s | -44.9°C | 0% | 0hPa | 2.5V | 00:00:00 | 00:00:00 | 00:00:00 | |
| OE8JPQ-2 | 2026-09-01 00:45:25 | 45.82356 | 16.91981 | 111° | 24km/h | 29950m | 5.5m/s | -44.9°C | 2.5% | 0hPa | 2.5V | 00:00:00 | 00:00:00 | 00:00:00 | |
| 9A1FER-3 | 2026-09-01 00:45:22 | 45.82363 | 16.91957 | 103° | 26km/h | 29934m | 6.2m/s | -45.0°C | 2.5% | 0hPa | 2.6V | 00:00:00 | 01:42:40 | 08:30:00 | |
| OE5DRO-10 | 2026-09-01 00:45:21 | 45.82364 | 16.91949 | 93° | 24km/h | 29929m | 4.6m/s | -45.0°C | 2.5% | 0hPa | 2.6V | 00:00:00 | 00:00:00 | 00:00:00 | |
| PETON7-10 | 2026-09-01 00:45:20 | 45.82364 | 16.91941 | 91° | 26km/h | 29924m | 4.9m/s | -45.0°C | 2.5% | 0hPa | 2.6V | 00:00:00 | 01:42:38 | 00:00:00 | |
| OE5DXL-15 | 2026-09-01 00:45:19 | 45.82364 | 16.91933 | 94° | 20km/h | 29918m | 6.6m/s | -45.1°C | 2.5% | 0hPa | 2.6V | 00:00:00 | 00:00:00 | 00:00:00 | |
| 9A1FER-10 | 2026-09-01 00:45:16 | 45.82368 | 16.91904 | 104° | 24km/h | 29900m | 5.1m/s | -45.1°C | 2.5% | 0hPa | 2.6V | 00:00:00 | 01:42:34 | 08:30:00 | |
| PG1ADW-2 | 2026-09-01 00:45:13 | 45.82369 | 16.91876 | 82° | 20km/h | 29882m | 5.9m/s | -45.3°C | 2.6% | 0hPa | 2.5V | 00:00:00 | 01:42:31 | 00:00:00 | |
| 9A1FER-3 | 2026-09-01 00:45:07 | 45.82368 | 16.91821 | 89° | 18km/h | 29845m | 6.7m/s | -45.4°C | 2.6% | 0hPa | 2.5V | 00:00:00 | 01:42:25 | 00:00:00 | |
| PETON7-10 | 2026-09-01 00:45:06 | 45.82368 | 16.91806 | 91° | 16km/h | 29834m | 5.4m/s | -45.5°C | 2.6% | 0hPa | 2.5V | 00:00:00 | 00:00:00 | 00:00:00 | |
| OE3JTB-15 | 2026-09-01 00:45:04 | 45.82368 | 16.91799 | 99° | 13km/h | 29828m | 6.9m/s | -45.5°C | 2.6% | 0hPa | 2.6V | 00:00:00 | 00:00:00 | 00:00:00 | |
| 9A1FER-10 | 2026-09-01 00:45:01 | 45.82371 | 16.91780 | 96° | 15km/h | 29810m | 6.9m/s | -45.4°C | 2.6% | 0hPa | 2.6V | 00:00:00 | 01:42:19 | 00:00:00 | |
| PG1ADW-2 | 2026-09-01 00:44:53 | 45.82372 | 16.91732 | 94° | 11km/h | 29760m | 5.5m/s | -45.2°C | 2.6% | 0hPa | 2.6V | 00:00:00 | 00:00:00 | 00:00:00 | |
| 9A1FER-3 | 2026-09-01 00:44:52 | 45.82372 | 16.91727 | 106° | 11km/h | 29755m | 5.7m/s | -45.1°C | 2.6% | 0hPa | 2.6V | 00:00:00 | 01:42:10 | 00:00:00 | |
| PETON7-10 | 2026-09-01 00:44:50 | 45.82376 | 16.91719 | 134° | 11km/h | 29742m | 5.9m/s | -45.1°C | 2.6% | 0hPa | 2.6V | 00:00:00 | 00:00:00 | 00:00:00 | |
| OE5DXL-15 | 2026-09-01 00:44:49 | 45.82378 | 16.91715 | 138° | 7km/h | 29736m | 5.2m/s | -45.1°C | 2.6% | 0hPa | 2.6V | 00:00:00 | 00:00:00 | 00:00:00 | |
| 9A1FER-10 | 2026-09-01 00:44:46 | 45.82382 | 16.91708 | 100° | 9km/h | 29718m | 5.0m/s | -45.0°C | 2.6% | 0hPa | 2.6V | 00:00:00 | 01:42:04 | 00:00:00 | |
| OE5DRO-10 | 2026-09-01 00:44:43 | 45.82384 | 16.91699 | 117° | 7km/h | 29699m | 5.5m/s | -44.9°C | 2.6% | 0hPa | 2.6V | 00:00:00 | 00:00:00 | 00:00:00 | |
| 9A1FER-3 | 2026-09-01 00:44:37 | 45.82385 | 16.91677 | 131° | 5km/h | 29662m | 6.9m/s | -44.8°C | 2.5% | 0hPa | 2.6V | 00:00:00 | 01:41:55 | 00:00:00 | |
| PETON7-10 | 2026-09-01 00:44:35 | 45.82389 | 16.91675 | 179° | 4km/h | 29650m | 5.6m/s | -44.7°C | 2.6% | 0hPa | 2.5V | 00:00:00 | 01:41:53 | 00:00:00 | |
| PG1ADW-2 | 2026-09-01 00:44:33 | 45.82392 | 16.91676 | 244° | 5km/h | 29637m | 6.1m/s | -44.7°C | 2.5% | 0hPa | 2.5V | 00:00:00 | 00:00:00 | 00:00:00 | |
| 9A1FER-10 | 2026-09-01 00:44:31 | 45.82392 | 16.91679 | 248° | 4km/h | 29624m | 7.6m/s | -44.7°C | 2.6% | 0hPa | 2.6V | 00:00:00 | 01:41:49 | 00:00:00 | |
| OE5DRO-10 | 2026-09-01 00:44:24 | 45.82392 | 16.91677 | 123° | 7km/h | 29577m | 6.8m/s | -44.4°C | 2.5% | 0hPa | 2.5V | 00:00:00 | 00:00:00 | 00:00:00 | |
| OE8JPQ-2 | 2026-09-01 00:44:23 | 45.82393 | 16.91676 | 146° | 7km/h | 29571m | 5.4m/s | -44.4°C | 2.5% | 0hPa | 2.5V | 00:00:00 | 00:00:00 | 00:00:00 | |
| 9A1FER-3 | 2026-09-01 00:44:22 | 45.82394 | 16.91676 | 156° | 7km/h | 29565m | 7.2m/s | -44.3°C | 2.5% | 0hPa | 2.5V | 00:00:00 | 01:41:40 | 00:00:00 | |
| PETON7-10 | 2026-09-01 00:44:20 | 45.82395 | 16.91676 | 250° | 9km/h | 29552m | 5.0m/s | -44.2°C | 2.5% | 0hPa | 2.5V | 00:00:00 | 00:00:00 | 00:00:00 | |
| OE5DXL-15 | 2026-09-01 00:44:19 | 45.82395 | 16.91677 | 234° | 9km/h | 29545m | 7.2m/s | -44.2°C | 2.5% | 0hPa | 2.5V | 00:00:00 | 00:00:00 | 00:00:00 | |
| 9A1FER-10 | 2026-09-01 00:44:16 | 45.82398 | 16.91685 | 270° | 9km/h | 29525m | 7.0m/s | -44.1°C | 2.5% | 0hPa | 2.6V | 00:00:00 | 01:41:34 | 00:00:00 | |
| PG1ADW-2 | 2026-09-01 00:44:13 | 45.82394 | 16.91696 | 302° | 9km/h | 29507m | 5.8m/s | -44.0°C | 2.5% | 0hPa | 2.6V | 00:00:00 | 00:00:00 | 00:00:00 | |
| 9A1FER-3 | 2026-09-01 00:44:07 | 45.82395 | 16.91714 | 263° | 7km/h | 29466m | 6.2m/s | -43.9°C | 2.4% | 0hPa | 2.6V | 00:00:00 | 01:41:25 | 00:00:00 | |
| OE3JTB-15 | 2026-09-01 00:44:06 | 45.82395 | 16.91716 | 251° | 13km/h | 29460m | 6.2m/s | -43.8°C | 2.4% | 0hPa | 2.6V | 00:00:00 | 00:00:00 | 00:00:00 | |
| PETON7-10 | 2026-09-01 00:44:05 | 45.82396 | 16.91718 | 222° | 9km/h | 29452m | 8.2m/s | -43.8°C | 2.4% | 0hPa | 2.6V | 00:00:00 | 00:00:00 | 00:00:00 | |
| 9A1FER-10 | 2026-09-01 00:44:01 | 45.82401 | 16.91723 | 262° | 9km/h | 29424m | 6.6m/s | -43.8°C | 2.5% | 0hPa | 2.6V | 00:00:00 | 01:41:19 | 00:00:00 | |
| OE8JPQ-2 | 2026-09-01 00:44:00 | 45.82402 | 16.91727 | 239° | 13km/h | 29411m | 7.9m/s | -43.8°C | 2.4% | 0hPa | 2.6V | 00:00:00 | 00:00:00 | 00:00:00 | |
| PG1ADW-2 | 2026-09-01 00:43:53 | 45.82410 | 16.91745 | 249° | 15km/h | 29370m | 5.7m/s | -43.7°C | 2.4% | 0hPa | 2.6V | 00:00:00 | 01:41:11 | 00:00:00 | |
| 9A1FER-3 | 2026-09-01 00:43:52 | 45.82412 | 16.91748 | 227° | 15km/h | 29363m | 7.7m/s | -43.7°C | 2.4% | 0hPa | 2.6V | 00:00:00 | 01:41:10 | 00:00:00 | |
| PETON7-10 | 2026-09-01 00:43:50 | 45.82416 | 16.91752 | 200° | 15km/h | 29349m | 6.1m/s | -43.6°C | 2.4% | 0hPa | 2.6V | 00:00:00 | 01:41:08 | 00:00:00 | |
| OE5DXL-15 | 2026-09-01 00:43:49 | 45.82419 | 16.91753 | 200° | 13km/h | 29342m | 7.3m/s | -43.6°C | 2.4% | 0hPa | 2.6V | 00:00:00 | 00:00:00 | 00:00:00 | |
| 9A1FER-10 | 2026-09-01 00:43:46 | 45.82422 | 16.91758 | 242° | 16km/h | 29321m | 7.7m/s | -43.5°C | 2.4% | 0hPa | 2.6V | 00:00:00 | 01:41:04 | 00:00:00 | |
| OE8JPQ-2 | 2026-09-01 00:43:39 | 45.82426 | 16.91801 | 251° | 13km/h | 29270m | 7.9m/s | -43.3°C | 2.4% | 0hPa | 2.5V | 00:00:00 | 01:40:57 | 00:00:00 | |
| 9A1FER-3 | 2026-09-01 00:43:37 | 45.82431 | 16.91812 | 229° | 13km/h | 29256m | 7.2m/s | -43.4°C | 2.4% | 0hPa | 2.5V | 00:00:00 | 01:40:55 | 00:00:00 | |
| OE3JTB-15 | 2026-09-01 00:43:36 | 45.82434 | 16.91816 | 222° | 13km/h | 29249m | 7.7m/s | -43.4°C | 2.4% | 0hPa | 2.5V | 00:00:00 | 00:00:00 | 00:00:00 | |
| PETON7-10 | 2026-09-01 00:43:35 | 45.82436 | 16.91818 | 208° | 11km/h | 29242m | 6.4m/s | -43.4°C | 2.4% | 0hPa | 2.5V | 00:00:00 | 00:00:00 | 08:30:00 | |
| 9A1FER-10 | 2026-09-01 00:43:31 | 45.82451 | 16.91824 | 199° | 11km/h | 29214m | 6.6m/s | -43.4°C | 2.4% | 0hPa | 2.6V | 00:00:00 | 01:40:49 | 00:00:00 | |
| OE5DRO-10 | 2026-09-01 00:43:27 | 45.82458 | 16.91836 | 250° | 11km/h | 29185m | 7.8m/s | -43.4°C | 2.4% | 0hPa | 2.6V | 00:00:00 | 00:00:00 | 00:00:00 | |
| 9A1FER-3 | 2026-09-01 00:43:22 | 45.82465 | 16.91851 | 220° | 11km/h | 29148m | 6.3m/s | -43.3°C | 2.4% | 0hPa | 2.6V | 00:00:00 | 01:40:40 | 00:00:00 | |
| PETON7-10 | 2026-09-01 00:43:20 | 45.82469 | 16.91854 | 213° | 13km/h | 29134m | 7.7m/s | -43.2°C | 2.4% | 0hPa | 2.6V | 00:00:00 | 00:00:00 | 00:00:00 | |
| OE5DXL-15 | 2026-09-01 00:43:19 | 45.82471 | 16.91857 | 225° | 9km/h | 29127m | 6.1m/s | -43.2°C | 2.4% | 0hPa | 2.6V | 00:00:00 | 00:00:00 | 00:00:00 | |
| OE8JPQ-2 | 2026-09-01 00:43:18 | 45.82473 | 16.91861 | 240° | 9km/h | 29120m | 7.8m/s | -43.1°C | 2.4% | 0hPa | 2.6V | 00:00:00 | 00:00:00 | 08:30:00 | |
| 9A1FER-10 | 2026-09-01 00:43:16 | 45.82475 | 16.91872 | 270° | 9km/h | 29105m | 5.5m/s | -43.0°C | 2.4% | 0hPa | 2.6V | 00:00:00 | 01:40:34 | 00:00:00 | |
| PG1ADW-2 | 2026-09-01 00:43:13 | 45.82476 | 16.91890 | 252° | 5km/h | 29084m | 7.4m/s | -42.9°C | 2.4% | 0hPa | 2.6V | 00:00:00 | 00:00:00 | 00:00:00 | |
| OE5DRO-10 | 2026-09-01 00:43:08 | 45.82477 | 16.91900 | 12° | 5km/h | 29047m | 7.2m/s | -42.6°C | 2.3% | 0hPa | 2.6V | 00:00:00 | 00:00:00 | 00:00:00 | |
| 9A1FER-3 | 2026-09-01 00:43:07 | 45.82475 | 16.91899 | 28° | 5km/h | 29040m | 7.2m/s | -42.6°C | 2.3% | 0hPa | 2.5V | 00:00:00 | 01:40:25 | 08:30:00 | |
| PETON7-10 | 2026-09-01 00:43:05 | 45.82474 | 16.91897 | 75° | 5km/h | 29025m | 6.5m/s | -42.5°C | 2.2% | 0hPa | 2.5V | 00:00:00 | 01:40:23 | 00:00:00 | |
| 9A1FER-10 | 2026-09-01 00:43:01 | 45.82471 | 16.91896 | 304° | 7km/h | 28995m | 7.2m/s | -42.4°C | 2.2% | 0hPa | 2.5V | 00:00:00 | 01:40:19 | 08:30:00 | |
| OE8JPQ-2 | 2026-09-01 00:42:58 | 45.82472 | 16.91901 | 244° | 13km/h | 28974m | 5.8m/s | -42.7°C | 2.3% | 0hPa | 2.5V | 00:00:00 | 00:00:00 | 00:00:00 | |
| PG1ADW-2 | 2026-09-01 00:42:53 | 45.82466 | 16.91901 | 57° | 15km/h | 28938m | 7.9m/s | -43.0°C | 2.3% | 0hPa | 2.5V | 00:00:00 | 00:00:00 | 00:00:00 | |
| 9A1FER-3 | 2026-09-01 00:42:52 | 45.82465 | 16.91898 | 75° | 15km/h | 28930m | 7.4m/s | -43.0°C | 2.3% | 0hPa | 2.5V | 00:00:00 | 01:40:10 | 00:00:00 | |
| PETON7-10 | 2026-09-01 00:42:50 | 45.82464 | 16.91892 | 64° | 16km/h | 28915m | 8.1m/s | -43.0°C | 2.3% | 0hPa | 2.5V | 00:00:00 | 00:00:00 | 00:00:00 | |
| OE5DXL-15 | 2026-09-01 00:42:49 | 45.82463 | 16.91890 | 56° | 18km/h | 28908m | 6.3m/s | -43.0°C | 2.3% | 0hPa | 2.5V | 00:00:00 | 00:00:00 | 08:30:00 | |
| 9A1FER-10 | 2026-09-01 00:42:48 | 45.82462 | 16.91882 | 87° | 18km/h | 28887m | 6.8m/s | -43.0°C | 2.3% | 0hPa | 2.5V | 00:00:00 | 01:40:04 | 00:00:00 | |
| OE8JPQ-2 | 2026-09-01 00:42:47 | 45.82453 | 16.91827 | 127° | 18km/h | 28831m | 6.4m/s | -43.1°C | 2.3% | 0hPa | 2.5V | 00:00:00 | 01:39:56 | 00:00:00 | |
| 9A1FER-3 | 2026-09-01 00:42:46 | 45.82456 | 16.91822 | 138° | 20km/h | 28824m | 7.5m/s | -43.1°C | 2.3% | 0hPa | 2.5V | 00:00:00 | 01:39:55 | 00:00:00 | |
| PETON7-10 | 2026-09-01 00:42:35 | 45.82463 | 16.91816 | 159° | 20km/h | 28810m | 5.6m/s | -43.1°C | 2.3% | 0hPa | 2.5V | 00:00:00 | 00:00:00 | 00:00:00 | |
| PG1ADW-2 | 2026-09-01 00:42:33 | 45.82470 | 16.91812 | 152° | 18km/h | 28797m | 7.4m/s | -43.1°C | 2.3% | 0hPa | 2.5V | 00:00:00 | 01:39:51 | 08:30:00 | |
| 9A1FER-10 | 2026-09-01 00:42:31 | 45.82475 | 16.91804 | 113° | 18km/h | 28783m | 7.3m/s | -43.1°C | 2.3% | 0hPa | 2.5V | 00:00:00 | 01:39:49 | 00:00:00 | |
| OE5DRO-10 | 2026-09-01 00:42:30 | 45.82476 | 16.91799 | 89° | 20km/h | 28775m | 7.7m/s | -43.1°C | 2.3% | 0hPa | 2.5V | 00:00:00 | 00:00:00 | 00:00:00 | |
| 9A1FER-3 | 2026-09-01 00:42:22 | 45.82485 | 16.91730 | 127° | 20km/h | 28721m | 6.5m/s | -43.3°C | 2.3% | 0hPa | 2.5V | 00:00:00 | 01:39:40 | 00:00:00 | |
| PETON7-10 | 2026-09-01 00:42:20 | 45.82489 | 16.91725 | 154° | 20km/h | 28708m | 7.7m/s | -43.5°C | 2.3% | 0hPa | 2.5V | 00:00:00 | 01:39:38 | 00:00:00 | |
| OE5DXL-15 | 2026-09-01 00:42:19 | 45.82491 | 16.91723 | 146° | 22km/h | 28701m | 5.9m/s | -43.5°C | 2.3% | 0hPa | 2.5V | 00:00:00 | 00:00:00 | 00:00:00 | |
| 9A1FER-10 | 2026-09-01 00:42:16 | 45.82490 | 16.91715 | 46° | 22km/h | 28681m | 7.6m/s | -43.6°C | 2.3% | 0hPa | 2.5V | 00:00:00 | 01:39:34 | 00:00:00 | |
| PG1ADW-2 | 2026-09-01 00:42:13 | 45.82477 | 16.91693 | 59° | 20km/h | 28662m | 7.9m/s | -43.7°C | 2.4% | 0hPa | 2.5V | 00:00:00 | 00:00:00 | 00:00:00 | |
| OE5DRO-10 | 2026-09-01 00:42:11 | 45.82472 | 16.91673 | 80° | 20km/h | 28648m | 6.0m/s | -43.7°C | 2.4% | 0hPa | 2.5V | 00:00:00 | 00:00:00 | 00:00:00 | |
| OE3JTB-15 | 2026-09-01 00:42:09 | 45.82470 | 16.91653 | 80° | 15km/h | 28636m | 7.2m/s | -43.7°C | 2.3% | 0hPa | 2.5V | 00:00:00 | 00:00:00 | 00:00:00 | |
| 9A1FER-3 | 2026-09-01 00:42:07 | 45.82467 | 16.91638 | 71° | 18km/h | 28623m | 5.8m/s | -43.7°C | 2.4% | 0hPa | 2.5V | 00:00:00 | 01:39:25 | 00:00:00 | |
| PETON7-10 | 2026-09-01 00:42:05 | 45.82465 | 16.91628 | 82° | 18km/h | 28609m | 6.7m/s | -43.8°C | 2.4% | 0hPa | 2.5V | 00:00:00 | 00:00:00 | 00:00:00 | |
| 9A1FER-10 | 2026-09-01 00:42:01 | 45.82459 | 16.91610 | 51° | 20km/h | 28583m | 5.3m/s | -44.0°C | 2.4% | 0hPa | 2.5V | 00:00:00 | 01:39:19 | 00:00:00 | |
| OE8JPQ-2 | 2026-09-01 00:41:56 | 45.82453 | 16.91575 | 87° | 13km/h | 28550m | 5.9m/s | -44.3°C | 2.4% | 0hPa | 2.5V | 00:00:00 | 00:00:00 | 00:00:00 | |
| PG1ADW-2 | 2026-09-01 00:41:53 | 45.82458 | 16.91548 | 126° | 11km/h | 28525m | 5.0m/s | -44.2°C | 2.4% | 0hPa | 2.5V | 00:00:00 | 00:00:00 | 00:00:00 | |
| OE5DRO-10 | 2026-09-01 00:41:52 | 45.82458 | 16.91548 | 126° | 13km/h | 28525m | 5.0m/s | -44.2°C | 2.4% | 0hPa | 2.5V | 00:00:00 | 00:00:00 | 00:00:00 | |
| PETON7-10 | 2026-09-01 00:41:50 | 45.82461 | 16.91541 | 106° | 13km/h | 28512m | 6.4m/s | -44.3°C | 2.4% | 0hPa | 2.5V | 00:00:00 | 00:00:00 | 00:00:00 | |
| OE3JTB-15 | 2026-09-01 00:41:40 | 45.82453 | 16.91510 | 75° | 16km/h | 28451m | 5.3m/s | -44.5°C | 2.4% | 0hPa | 2.5V | 00:00:00 | 01:38:58 | 00:00:00 | |
| 9A1FER-3 | 2026-09-01 00:41:37 | 45.82447 | 16.91491 | 50° | 13km/h | 28433m | 4.7m/s | -44.5°C | 2.4% | 0hPa | 2.5V | 00:00:00 | 01:38:55 | 00:00:00 | |
| PETON7-10 | 2026-09-01 00:41:35 | 45.82442 | 16.91483 | 58° | 13km/h | 28422m | 6.3m/s | -44.5°C | 2.4% | 0hPa | 2.6V | 00:00:00 | 01:38:53 | 00:00:00 | |
| OE8JPQ-2 | 2026-09-01 00:41:34 | 45.82441 | 16.91480 | 74° | 16km/h | 28416m | 5.8m/s | -44.6°C | 2.4% | 0hPa | 2.6V | 00:00:00 | 01:38:52 | 00:00:00 | |
| OE5DRO-10 | 2026-09-01 00:41:33 | 45.82441 | 16.91477 | 79° | 15km/h | 28411m | 4.9m/s | -44.6°C | 2.4% | 0hPa | 2.6V | 00:00:00 | 00:00:00 | 00:00:00 | |
| PG1ADW-2 | 2026-09-01 00:41:32 | 45.82440 | 16.91476 | 55° | 16km/h | 28405m | 6.7m/s | -44.6°C | 2.4% | 0hPa | 2.6V | 00:00:00 | 00:00:00 | 00:00:00 | |
| LZ4TU-5 | 2026-09-01 00:41:27 | 45.82435 | 16.91468 | 70° | 11km/h | 28381m | 6.1m/s | -44.7°C | 0% | 0hPa | 2.5V | 00:00:00 | 00:00:00 | 00:00:00 | |
| LZ4TU-5 | 2026-09-01 00:41:23 | 45.82426 | 16.91449 | 51° | 20km/h | 28358m | 5.6m/s | -44.8°C | 0% | 0hPa | 2.5V | 00:00:00 | 00:00:00 | 00:00:00 | |
| 9A1FER-3 | 2026-09-01 00:41:22 | 45.82420 | 16.91436 | 58° | 22km/h | 28345m | 5.1m/s | -44.9°C | 2.5% | 0hPa | 2.5V | 00:00:00 | 01:38:40 | 00:00:00 | |
| PETON7-10 | 2026-09-01 00:41:20 | 45.82414 | 16.91425 | 40° | 24km/h | 28335m | 6.6m/s | -45.1°C | 2.5% | 0hPa | 2.5V | 00:00:00 | 00:00:00 | 08:30:00 | |
| OE5DRO-10 | 2026-09-01 00:41:14 | 45.82388 | 16.91404 | 27° | 22km/h | 28301m | 6.5m/s | -45.3°C | 2.6% | 0hPa | 2.5V | 00:00:00 | 00:00:00 | 08:30:00 | |
| OE8JPQ-2 | 2026-09-01 00:41:13 | 45.82383 | 16.91400 | 28° | 24km/h | 28295m | 4.6m/s | -45.3°C | 2.5% | 0hPa | 2.5V | 00:00:00 | 00:00:00 | 00:00:00 | |
| PG1ADW-2 | 2026-09-01 00:41:12 | 45.82377 | 16.91395 | 33° | 22km/h | 28290m | 5.2m/s | -45.3°C | 2.6% | 0hPa | 2.6V | 00:00:00 | 01:38:30 | 00:00:00 | |
| OE3JTB-15 | 2026-09-01 00:41:11 | 45.82372 | 16.91390 | 39° | 18km/h | 28285m | 6.7m/s | -45.3°C | 2.5% | 0hPa | 2.6V | 00:00:00 | 00:00:00 | 00:00:00 | |
| 9A1FER-3 | 2026-09-01 00:41:07 | 45.82350 | 16.91368 | 24° | 22km/h | 28262m | 4.0m/s | -45.4°C | 2.6% | 0hPa | 2.5V | 00:00:00 | 01:38:25 | 00:00:00 | |
| PETON7-10 | 2026-09-01 00:41:05 | 45.82339 | 16.91362 | 21° | 20km/h | 28253m | 6.2m/s | -45.4°C | 2.6% | 0hPa | 2.5V | 00:00:00 | 00:00:00 | 00:00:00 | |
| OE5DXL-15 | 2026-09-01 00:41:04 | 45.82334 | 16.91359 | 26° | 15km/h | 28247m | 5.7m/s | -45.4°C | 2.5% | 0hPa | 2.5V | 00:00:00 | 00:00:00 | 00:00:00 | |
| 9A1FER-10 | 2026-09-01 00:40:56 | 45.82297 | 16.91338 | 24° | 15km/h | 28205m | 4.0m/s | -45.5°C | 2.6% | 0hPa | 2.5V | 00:00:00 | 01:38:14 | 00:00:00 | |
| OE5DRO-10 | 2026-09-01 00:40:55 | 45.82291 | 16.91335 | 18° | 11km/h | 28200m | 5.9m/s | -45.5°C | 2.5% | 0hPa | 2.5V | 00:00:00 | 00:00:00 | 00:00:00 | |
| OE8JPQ-2 | 2026-09-01 00:40:53 | 45.82280 | 16.91333 | 1° | 11km/h | 28190m | 4.4m/s | -45.7°C | 2.6% | 0hPa | 2.5V | 00:00:00 | 00:00:00 | 00:00:00 | |
| 9A1FER-3 | 2026-09-01 00:40:52 | 45.82276 | 16.91333 | 358° | 11km/h | 28185m | 5.7m/s | -45.8°C | 2.6% | 0hPa | 2.5V | 00:00:00 | 01:38:10 | 08:30:00 | |
| PETON7-10 | 2026-09-01 00:40:50 | 45.82272 | 16.91333 | 15° | 9km/h | 28173m | 4.4m/s | -45.8°C | 2.6% | 0hPa | 2.5V | 00:00:00 | 01:38:08 | 00:00:00 | |
| OE3JTB-15 | 2026-09-01 00:40:42 | 45.82256 | 16.91325 | 5° | 7km/h | 28129m | 6.0m/s | -45.9°C | 2.6% | 0hPa | 2.5V | 00:00:00 | 00:00:00 | 00:00:00 | |
| 9A1FER-10 | 2026-09-01 00:40:39 | 45.82244 | 16.91326 | 355° | 11km/h | 28114m | 5.9m/s | -46.1°C | 2.7% | 0hPa | 2.5V | 00:00:00 | 01:37:57 | 00:00:00 | |
| 9A1FER-3 | 2026-09-01 00:40:37 | 45.82242 | 16.91327 | 277° | 9km/h | 28104m | 4.5m/s | -46.1°C | 2.7% | 0hPa | 2.5V | 00:00:00 | 01:37:55 | 00:00:00 | |
| OE5DRO-10 | 2026-09-01 00:40:36 | 45.82241 | 16.91330 | 268° | 7km/h | 28099m | 6.4m/s | -46.1°C | 2.6% | 0hPa | 2.5V | 00:00:00 | 00:00:00 | 00:00:00 | |
| PETON7-10 | 2026-09-01 00:40:34 | 45.82242 | 16.91336 | 263° | 9km/h | 28088m | 4.4m/s | -46.1°C | 2.6% | 0hPa | 2.5V | 00:00:00 | 00:00:00 | 00:00:00 | |
| PG1ADW-2 | 2026-09-01 00:40:32 | 45.82244 | 16.91342 | 234° | 9km/h | 28077m | 5.9m/s | -46.0°C | 2.6% | 0hPa | 2.5V | 00:00:00 | 00:00:00 | 00:00:00 | |
| OE8JPQ-2 | 2026-09-01 00:40:30 | 45.82247 | 16.91349 | 241° | 9km/h | 28068m | 3.5m/s | -46.0°C | 2.6% | 0hPa | 2.5V | 00:00:00 | 01:37:48 | 00:00:00 | |
| 9A1FER-3 | 2026-09-01 00:40:22 | 45.82239 | 16.91375 | 299° | 9km/h | 28024m | 6.3m/s | -46.3°C | 2.6% | 0hPa | 2.5V | 00:00:00 | 01:37:40 | 00:00:00 | |
| PETON7-10 | 2026-09-01 00:40:19 | 45.82238 | 16.91380 | 248° | 9km/h | 28008m | 5.5m/s | -46.4°C | 2.6% | 0hPa | 2.5V | 00:00:00 | 00:00:00 | 00:00:00 | |
| OE5DRO-10 | 2026-09-01 00:40:15 | 45.82241 | 16.91386 | 290° | 4km/h | 27986m | 6.1m/s | -46.5°C | 2.7% | 0hPa | 2.5V | 00:00:00 | 00:00:00 | 00:00:00 | |
| PG1ADW-2 | 2026-09-01 00:40:12 | 45.82235 | 16.91393 | 323° | 5km/h | 27970m | 6.2m/s | -46.6°C | 2.6% | 0hPa | 2.5V | 00:00:00 | 00:00:00 | 00:00:00 | |
| 9A1FER-10 | 2026-09-01 00:40:09 | 45.82229 | 16.91399 | 353° | 5km/h | 27954m | 5.3m/s | -46.7°C | 2.7% | 0hPa | 2.5V | 00:00:00 | 01:37:27 | 08:30:00 | |
| OE8JPQ-2 | 2026-09-01 00:40:08 | 45.82227 | 16.91399 | 4° | 5km/h | 27948m | 6.2m/s | -46.7°C | 2.6% | 0hPa | 2.5V | 00:00:00 | 00:00:00 | 08:30:00 | |
| 9A1FER-3 | 2026-09-01 00:40:06 | 45.82221 | 16.91397 | 11° | 9km/h | 27937m | 5.5m/s | -46.9°C | 2.7% | 0hPa | 2.5V | 00:00:00 | 01:37:24 | 00:00:00 | |
| PETON7-10 | 2026-09-01 00:40:04 | 45.82220 | 16.91397 | 215° | 4km/h | 27925m | 5.8m/s | -47.1°C | 2.7% | 0hPa | 2.5V | 00:00:00 | 01:37:22 | 00:00:00 | |
| 9A1FER-10 | 2026-09-01 00:39:54 | 45.82227 | 16.91410 | 180° | 5km/h | 27865m | 7.4m/s | -47.7°C | 2.8% | 0hPa | 2.5V | 00:00:00 | 01:37:12 | 00:00:00 | |
| PG1ADW-2 | 2026-09-01 00:39:52 | 45.82229 | 16.91409 | 146° | 7km/h | 27853m | 5.4m/s | -47.7°C | 2.8% | 0hPa | 2.5V | 00:00:00 | 01:37:10 | 00:00:00 | |
| PETON7-10 | 2026-09-01 00:39:49 | 45.82229 | 16.91407 | 94° | 7km/h | 27834m | 6.3m/s | -47.7°C | 2.8% | 0hPa | 2.5V | 00:00:00 | 00:00:00 | 00:00:00 | |
| OE8JPQ-2 | 2026-09-01 00:39:48 | 45.82230 | 16.91407 | 217° | 7km/h | 27828m | 6.8m/s | -47.7°C | 2.8% | 0hPa | 2.5V | 00:00:00 | 00:00:00 | 00:00:00 | |
| OE5DRO-10 | 2026-09-01 00:39:46 | 45.82230 | 16.91410 | 288° | 9km/h | 27815m | 7.0m/s | -47.8°C | 2.8% | 0hPa | 2.5V | 00:00:00 | 00:00:00 | 00:00:00 | |
| 9A1FER-10 | 2026-09-01 00:39:39 | 45.82230 | 16.91427 | 147° | 9km/h | 27772m | 5.6m/s | -47.9°C | 2.9% | 0hPa | 2.5V | 00:00:00 | 01:36:57 | 00:00:00 | |
| OE3JTB-15 | 2026-09-01 00:39:36 | 45.82236 | 16.91420 | 148° | 9km/h | 27754m | 6.3m/s | -48.1°C | 2.9% | 0hPa | 2.5V | 00:00:00 | 01:36:54 | 00:00:00 | |
| PETON7-10 | 2026-09-01 00:39:34 | 45.82241 | 16.91416 | 153° | 9km/h | 27744m | 5.3m/s | -48.2°C | 2.9% | 0hPa | 2.5V | 00:00:00 | 00:00:00 | 00:00:00 | |
| PG1ADW-2 | 2026-09-01 00:39:32 | 45.82244 | 16.91413 | 95° | 7km/h | 27731m | 6.6m/s | -48.2°C | 2.9% | 0hPa | 2.5V | 00:00:00 | 00:00:00 | 08:30:00 | |
| OE8JPQ-2 | 2026-09-01 00:39:28 | 45.82243 | 16.91416 | 210° | 9km/h | 27706m | 6.3m/s | -48.2°C | 2.9% | 0hPa | 2.6V | 00:00:00 | 01:36:46 | 00:00:00 | |
| OE5DRO-10 | 2026-09-01 00:39:27 | 45.82246 | 16.91417 | 190° | 9km/h | 27701m | 5.3m/s | -48.2°C | 2.9% | 0hPa | 2.6V | 00:00:00 | 00:00:00 | 00:00:00 | |
| LZ4TU-5 | 2026-09-01 00:39:26 | 45.82246 | 16.91417 | 191° | 13km/h | 27701m | 5.4m/s | 0°C | 0% | 0hPa | 2.6V | 00:00:00 | 00:00:00 | 00:00:00 | |
| 9A1FER-10 | 2026-09-01 00:39:24 | 45.82257 | 16.91415 | 166° | 9km/h | 27682m | 5.0m/s | -48.4°C | 3.0% | 0hPa | 2.6V | 00:00:00 | 01:36:42 | 00:00:00 | |
| LZ4TU-5 | 2026-09-01 00:39:22 | 45.82261 | 16.91414 | 173° | 15km/h | 27676m | 7.2m/s | 0°C | 0% | 0hPa | 2.5V | 00:00:00 | 00:00:00 | 00:00:00 | |
| PETON7-10 | 2026-09-01 00:39:19 | 45.82271 | 16.91413 | 102° | 7km/h | 27650m | 6.5m/s | -48.3°C | 2.9% | 0hPa | 2.5V | 00:00:00 | 01:36:37 | 00:00:00 | |
| PG1ADW-2 | 2026-09-01 00:39:12 | 45.82275 | 16.91417 | 188° | 9km/h | 27604m | 5.4m/s | -48.4°C | 3.0% | 0hPa | 2.5V | 00:00:00 | 00:00:00 | 00:00:00 | |
| 9A1FER-10 | 2026-09-01 00:39:09 | 45.82284 | 16.91421 | 204° | 7km/h | 27584m | 5.2m/s | -48.3°C | 2.9% | 0hPa | 2.5V | 00:00:00 | 01:36:27 | 00:00:00 | |
| OE8JPQ-2 | 2026-09-01 00:39:08 | 45.82287 | 16.91423 | 199° | 7km/h | 27578m | 6.3m/s | -48.3°C | 2.9% | 0hPa | 2.5V | 00:00:00 | 00:00:00 | 00:00:00 | |
| OE3JTB-15 | 2026-09-01 00:39:07 | 45.82289 | 16.91424 | 176° | 7km/h | 27572m | 7.3m/s | -48.3°C | 2.9% | 0hPa | 2.5V | 00:00:00 | 00:00:00 | 00:00:00 | |
| PETON7-10 | 2026-09-01 00:39:04 | 45.82290 | 16.91419 | 105° | 7km/h | 27551m | 7.2m/s | -48.3°C | 2.9% | 0hPa | 2.6V | 00:00:00 | 00:00:00 | 08:30:00 | |
| OE5DXL-15 | 2026-09-01 00:39:00 | 45.82293 | 16.91412 | 114° | 7km/h | 27524m | 6.7m/s | -48.3°C | 2.9% | 0hPa | 2.5V | 00:00:00 | 00:00:00 | 00:00:00 | |
| 9A1FER-10 | 2026-09-01 00:38:54 | 45.82305 | 16.91414 | 232° | 7km/h | 27483m | 6.2m/s | -48.3°C | 2.9% | 0hPa | 2.6V | 00:00:00 | 01:36:12 | 00:00:00 | |
| PG1ADW-2 | 2026-09-01 00:38:52 | 45.82307 | 16.91417 | 226° | 7km/h | 27470m | 7.7m/s | -48.3°C | 3.0% | 0hPa | 2.6V | 00:00:00 | 00:00:00 | 00:00:00 | |
| OE5DRO-10 | 2026-09-01 00:38:49 | 45.82312 | 16.91418 | 146° | 9km/h | 27450m | 6.9m/s | -48.3°C | 3.0% | 0hPa | 2.6V | 00:00:00 | 00:00:00 | 00:00:00 | |
| PETON7-10 | 2026-09-01 00:38:48 | 45.82313 | 16.91416 | 116° | 9km/h | 27443m | 6.9m/s | -48.3°C | 3.0% | 0hPa | 2.6V | 00:00:00 | 00:00:00 | 00:00:00 | |
| OE8JPQ-2 | 2026-09-01 00:38:47 | 45.82313 | 16.91413 | 102° | 7km/h | 27437m | 4.9m/s | -48.3°C | 3.0% | 0hPa | 2.6V | 00:00:00 | 00:00:00 | 00:00:00 | |
| 9A1FER-10 | 2026-09-01 00:38:39 | 45.82332 | 16.91412 | 203° | 9km/h | 27383m | 6.7m/s | -48.4°C | 3.0% | 0hPa | 2.6V | 00:00:00 | 01:35:57 | 00:00:00 | |
| 9A1FER-3 | 2026-09-01 00:38:34 | 45.82340 | 16.91416 | 57° | 9km/h | 27349m | 7.3m/s | -48.3°C | 3.0% | 0hPa | 2.5V | 00:00:00 | 01:35:52 | 00:00:00 | |
| PETON7-10 | 2026-09-01 00:38:33 | 45.82340 | 16.91415 | 73° | 9km/h | 27342m | 6.9m/s | -48.3°C | 3.0% | 0hPa | 2.5V | 00:00:00 | 01:35:51 | 00:00:00 | |
| PG1ADW-2 | 2026-09-01 00:38:32 | 45.82340 | 16.91414 | 134° | 9km/h | 27336m | 6.4m/s | -48.2°C | 3.0% | 0hPa | 2.5V | 00:00:00 | 01:35:50 | 00:00:00 | |
| OE5DXL-15 | 2026-09-01 00:38:30 | 45.82342 | 16.91412 | 127° | 11km/h | 27322m | 7.6m/s | -48.2°C | 3.0% | 0hPa | 2.5V | 00:00:00 | 00:00:00 | 00:00:00 | |
| OE8JPQ-2 | 2026-09-01 00:38:27 | 45.82348 | 16.91403 | 154° | 11km/h | 27301m | 7.9m/s | -48.1°C | 2.9% | 0hPa | 2.5V | 00:00:00 | 01:35:45 | 00:00:00 | |
| 9A1FER-10 | 2026-09-01 00:38:24 | 45.82360 | 16.91400 | 172° | 11km/h | 27280m | 7.9m/s | -48.0°C | 3.0% | 0hPa | 2.5V | 00:00:00 | 01:35:42 | 00:00:00 | |
| 9A1FER-3 | 2026-09-01 00:38:19 | 45.82369 | 16.91394 | 125° | 11km/h | 27245m | 6.1m/s | -47.9°C | 2.9% | 0hPa | 2.5V | 00:00:00 | 01:35:37 | 00:00:00 | |
| PETON7-10 | 2026-09-01 00:38:18 | 45.82369 | 16.91392 | 93° | 11km/h | 27238m | 8.1m/s | -47.8°C | 2.9% | 0hPa | 2.5V | 00:00:00 | 00:00:00 | 00:00:00 | |
| PG1ADW-2 | 2026-09-01 00:38:12 | 45.82377 | 16.91374 | 148° | 11km/h | 27197m | 7.9m/s | -47.7°C | 2.9% | 0hPa | 2.5V | 00:00:00 | 00:00:00 | 00:00:00 | |
| 9A1FER-10 | 2026-09-01 00:38:09 | 45.82386 | 16.91366 | 157° | 9km/h | 27176m | 7.8m/s | -47.7°C | 2.8% | 0hPa | 2.5V | 00:00:00 | 01:35:27 | 00:00:00 | |
| OE3JTB-15 | 2026-09-01 00:38:08 | 45.82389 | 16.91364 | 162° | 9km/h | 27169m | 6.1m/s | -47.7°C | 2.9% | 0hPa | 2.5V | 00:00:00 | 00:00:00 | 00:00:00 | |
| OE8JPQ-2 | 2026-09-01 00:38:05 | 45.82393 | 16.91358 | 79° | 11km/h | 27149m | 7.1m/s | -47.7°C | 2.9% | 0hPa | 2.5V | 00:00:00 | 00:00:00 | 00:00:00 | |
| 9A1FER-3 | 2026-09-01 00:38:04 | 45.82392 | 16.91355 | 61° | 9km/h | 27142m | 6.4m/s | -47.8°C | 2.9% | 0hPa | 2.6V | 00:00:00 | 01:35:22 | 00:00:00 | |
| PETON7-10 | 2026-09-01 00:38:03 | 45.82391 | 16.91353 | 51° | 9km/h | 27135m | 8.1m/s | -47.8°C | 2.9% | 0hPa | 2.6V | 00:00:00 | 00:00:00 | 00:00:00 | |
| OE5DXL-15 | 2026-09-01 00:38:00 | 45.82389 | 16.91347 | 74° | 9km/h | 27114m | 7.8m/s | -47.8°C | 2.9% | 0hPa | 2.6V | 00:00:00 | 00:00:00 | 00:00:00 | |
| 9A1FER-10 | 2026-09-01 00:37:54 | 45.82396 | 16.91331 | 140° | 11km/h | 27073m | 6.5m/s | -47.8°C | 2.9% | 0hPa | 2.6V | 00:00:00 | 01:35:12 | 08:30:00 | |
| PG1ADW-2 | 2026-09-01 00:37:52 | 45.82399 | 16.91323 | 93° | 11km/h | 27060m | 5.4m/s | -47.7°C | 2.9% | 0hPa | 2.5V | 00:00:00 | 00:00:00 | 00:00:00 | |
| OE5DRO-10 | 2026-09-01 00:37:50 | 45.82398 | 16.91315 | 69° | 9km/h | 27046m | 7.3m/s | -47.7°C | 2.8% | 0hPa | 2.5V | 00:00:00 | 00:00:00 | 00:00:00 | |
| 9A1FER-3 | 2026-09-01 00:37:49 | 45.82396 | 16.91312 | 47° | 9km/h | 27039m | 6.1m/s | -47.7°C | 2.8% | 0hPa | 2.5V | 00:00:00 | 01:35:07 | 00:00:00 | |
| PETON7-10 | 2026-09-01 00:37:48 | 45.82394 | 16.91308 | 38° | 9km/h | 27033m | 6.5m/s | -47.7°C | 2.9% | 0hPa | 2.5V | 00:00:00 | 01:35:06 | 00:00:00 | |
| OE8JPQ-2 | 2026-09-01 00:37:45 | 45.82384 | 16.91299 | 31° | 9km/h | 27013m | 6.4m/s | -47.7°C | 2.8% | 0hPa | 2.5V | 00:00:00 | 00:00:00 | 00:00:00 | |
| 9A1FER-10 | 2026-09-01 00:37:39 | 45.82388 | 16.91289 | 128° | 7km/h | 26974m | 5.5m/s | -47.8°C | 2.8% | 0hPa | 2.5V | 00:00:00 | 01:34:57 | 00:00:00 | |
| OE3JTB-15 | 2026-09-01 00:37:38 | 45.82390 | 16.91287 | 126° | 9km/h | 26967m | 7.3m/s | -47.8°C | 2.8% | 0hPa | 2.5V | 00:00:00 | 01:34:56 | 00:00:00 | |
| 9A1FER-3 | 2026-09-01 00:37:34 | 45.82385 | 16.91278 | 43° | 9km/h | 26941m | 5.6m/s | -47.9°C | 2.9% | 0hPa | 2.5V | 00:00:00 | 01:34:52 | 00:00:00 | |
| PETON7-10 | 2026-09-01 00:37:33 | 45.82383 | 16.91275 | 44° | 9km/h | 26935m | 5.4m/s | -47.9°C | 2.9% | 0hPa | 2.5V | 00:00:00 | 00:00:00 | 00:00:00 | |
| PG1ADW-2 | 2026-09-01 00:37:32 | 45.82381 | 16.91273 | 47° | 9km/h | 26929m | 7.6m/s | -47.9°C | 2.9% | 0hPa | 2.5V | 00:00:00 | 00:00:00 | 00:00:00 | |
| OE5DRO-10 | 2026-09-01 00:37:31 | 45.82381 | 16.91271 | 107° | 9km/h | 26922m | 6.0m/s | -47.9°C | 2.9% | 0hPa | 2.6V | 00:00:00 | 00:00:00 | 00:00:00 | |
| OE5DXL-15 | 2026-09-01 00:37:30 | 45.82382 | 16.91270 | 164° | 9km/h | 26916m | 5.7m/s | -47.9°C | 2.9% | 0hPa | 2.6V | 00:00:00 | 01:34:48 | 08:30:00 | |
| LZ4TU-5 | 2026-09-01 00:37:28 | 45.82383 | 16.91269 | 160° | 7km/h | 26910m | 6.7m/s | 0°C | 0% | 0hPa | 2.5V | 00:00:00 | 00:00:00 | 00:00:00 | |
| OE8JPQ-2 | 2026-09-01 00:37:25 | 45.82386 | 16.91267 | 305° | 9km/h | 26886m | 7.0m/s | -48.0°C | 2.9% | 0hPa | 2.5V | 00:00:00 | 01:34:43 | 00:00:00 | |
| 9A1FER-10 | 2026-09-01 00:37:24 | 45.82385 | 16.91269 | 312° | 11km/h | 26879m | 6.0m/s | -48.0°C | 2.9% | 0hPa | 2.5V | 00:00:00 | 01:34:42 | 00:00:00 | |
| 9A1FER-3 | 2026-09-01 00:37:19 | 45.82370 | 16.91275 | 351° | 9km/h | 26849m | 6.6m/s | -48.2°C | 2.9% | 0hPa | 2.5V | 00:00:00 | 01:34:37 | 08:30:00 | |
| PETON7-10 | 2026-09-01 00:37:18 | 45.82366 | 16.91277 | 343° | 9km/h | 26843m | 6.1m/s | -48.3°C | 2.9% | 0hPa | 2.5V | 00:00:00 | 00:00:00 | 00:00:00 | |
| OE5DRO-10 | 2026-09-01 00:37:12 | 45.82350 | 16.91284 | 287° | 11km/h | 26804m | 7.0m/s | -48.4°C | 3.0% | 0hPa | 2.5V | 00:00:00 | 00:00:00 | 00:00:00 | |
| 9A1FER-10 | 2026-09-01 00:37:09 | 45.82351 | 16.91290 | 210° | 11km/h | 26786m | 5.6m/s | -48.4°C | 3.0% | 0hPa | 2.6V | 00:00:00 | 01:34:27 | 00:00:00 | |
| 9A1FER-3 | 2026-09-01 00:37:04 | 45.82354 | 16.91300 | 288° | 13km/h | 26754m | 7.2m/s | -48.6°C | 3.0% | 0hPa | 2.5V | 00:00:00 | 01:34:22 | 00:00:00 | |
| PETON7-10 | 2026-09-01 00:37:03 | 45.82353 | 16.91302 | 306° | 15km/h | 26747m | 4.7m/s | -48.6°C | 3.0% | 0hPa | 2.5V | 00:00:00 | 01:34:21 | 00:00:00 | |
| OE5DXL-15 | 2026-09-01 00:37:00 | 45.82349 | 16.91313 | 287° | 18km/h | 26730m | 6.4m/s | -48.6°C | 3.0% | 0hPa | 2.5V | 00:00:00 | 00:00:00 | 00:00:00 | |
| 9A1FER-10 | 2026-09-01 00:36:54 | 45.82344 | 16.91344 | 278° | 20km/h | 26693m | 6.3m/s | -48.6°C | 3.0% | 0hPa | 2.5V | 00:00:00 | 01:34:12 | 00:00:00 | |
| OE5DRO-10 | 2026-09-01 00:36:53 | 45.82344 | 16.91350 | 278° | 18km/h | 26687m | 5.0m/s | -48.6°C | 3.0% | 0hPa | 2.5V | 00:00:00 | 00:00:00 | 00:00:00 | |
| PG1ADW-2 | 2026-09-01 00:36:52 | 45.82343 | 16.91355 | 281° | 18km/h | 26681m | 6.6m/s | -48.6°C | 3.0% | 0hPa | 2.5V | 00:00:00 | 00:00:00 | 00:00:00 | |
| 9A1FER-3 | 2026-09-01 00:36:49 | 45.82342 | 16.91370 | 270° | 18km/h | 26663m | 7.5m/s | -48.5°C | 3.0% | 0hPa | 2.5V | 00:00:00 | 01:34:07 | 00:00:00 | |
| PETON7-10 | 2026-09-01 00:36:47 | 45.82342 | 16.91384 | 271° | 20km/h | 26651m | 5.1m/s | -48.4°C | 3.0% | 0hPa | 2.5V | 00:00:00 | 00:00:00 | 08:30:00 | |
| OE8JPQ-2 | 2026-09-01 00:36:44 | 45.82341 | 16.91405 | 276° | 20km/h | 26633m | 6.9m/s | -48.3°C | 2.9% | 0hPa | 2.6V | 00:00:00 | 00:00:00 | 00:00:00 | |
| OE5DRO-10 | 2026-09-01 00:36:34 | 45.82349 | 16.91471 | 231° | 20km/h | 26572m | 5.5m/s | -48.2°C | 2.9% | 0hPa | 2.6V | 00:00:00 | 00:00:00 | 00:00:00 | |
| PETON7-10 | 2026-09-01 00:36:32 | 45.82354 | 16.91482 | 247° | 22km/h | 26559m | 6.1m/s | -48.2°C | 2.9% | 0hPa | 2.6V | 00:00:00 | 00:00:00 | 00:00:00 | |
| OE5DXL-15 | 2026-09-01 00:36:30 | 45.82358 | 16.91498 | 254° | 24km/h | 26548m | 6.3m/s | -48.2°C | 2.9% | 0hPa | 2.6V | 00:00:00 | 00:00:00 | 00:00:00 | |
| OE8JPQ-2 | 2026-09-01 00:36:23 | 45.82374 | 16.91549 | 234° | 22km/h | 26506m | 5.3m/s | -48.4°C | 2.9% | 0hPa | 2.6V | 00:00:00 | 01:33:41 | 00:00:00 | |
| PETON7-10 | 2026-09-01 00:36:17 | 45.82395 | 16.91586 | 232° | 24km/h | 26469m | 5.3m/s | -48.5°C | 2.9% | 0hPa | 2.6V | 00:00:00 | 01:33:35 | 00:00:00 | |
| PG1ADW-2 | 2026-09-01 00:36:12 | 45.82413 | 16.91619 | 226° | 22km/h | 26440m | 5.8m/s | -48.6°C | 3.0% | 0hPa | 2.6V | 00:00:00 | 00:00:00 | 00:00:00 | |
| OE8JPQ-2 | 2026-09-01 00:36:03 | 45.82462 | 16.91647 | 201° | 20km/h | 26385m | 5.3m/s | -49.0°C | 3.0% | 0hPa | 2.6V | 00:00:00 | 00:00:00 | 00:00:00 | |
| PETON7-10 | 2026-09-01 00:36:02 | 45.82468 | 16.91651 | 204° | 20km/h | 26380m | 5.1m/s | -49.0°C | 3.0% | 0hPa | 2.6V | 00:00:00 | 00:00:00 | 00:00:00 | |
| OE5DXL-15 | 2026-09-01 00:36:00 | 45.82480 | 16.91658 | 206° | 15km/h | 26367m | 5.4m/s | -48.9°C | 3.0% | 0hPa | 2.5V | 00:00:00 | 00:00:00 | 00:00:00 | |
| 9A1FER-10 | 2026-09-01 00:35:58 | 45.82490 | 16.91664 | 198° | 18km/h | 26354m | 6.2m/s | -48.9°C | 3.0% | 0hPa | 2.6V | 00:00:00 | 01:33:16 | 00:00:00 | |
| PG1ADW-2 | 2026-09-01 00:35:52 | 45.82521 | 16.91666 | 174° | 13km/h | 26317m | 4.4m/s | -48.8°C | 3.0% | 0hPa | 2.6V | 00:00:00 | 01:33:10 | 00:00:00 | |
| OE5DRO-10 | 2026-09-01 00:35:48 | 45.82536 | 16.91663 | 184° | 7km/h | 26291m | 7.4m/s | -48.9°C | 2.9% | 0hPa | 2.6V | 00:00:00 | 00:00:00 | 00:00:00 | |
| PETON7-10 | 2026-09-01 00:35:47 | 45.82540 | 16.91664 | 187° | 13km/h | 26285m | 5.5m/s | -49.0°C | 3.0% | 0hPa | 2.6V | 00:00:00 | 00:00:00 | 00:00:00 | |
| 9A1FER-10 | 2026-09-01 00:35:43 | 45.82557 | 16.91662 | 162° | 7km/h | 26261m | 6.2m/s | -49.1°C | 2.9% | 0hPa | 2.6V | 00:00:00 | 01:33:01 | 00:00:00 | |
| LZ4TU-5 | 2026-09-01 00:35:34 | 45.82573 | 16.91638 | 0° | 0km/h | 26213m | 5.1m/s | 0°C | 0% | 0hPa | 2.5V | 00:00:00 | 00:00:00 | 00:00:00 | |
| PETON7-10 | 2026-09-01 00:35:32 | 45.82573 | 16.91636 | 75° | 13km/h | 26195m | 6.1m/s | -49.8°C | 3.1% | 0hPa | 2.5V | 00:00:00 | 01:32:50 | 00:00:00 | |
| OE5DXL-15 | 2026-09-01 00:35:30 | 45.82573 | 16.91633 | 104° | 11km/h | 26184m | 6.8m/s | -50.0°C | 3.1% | 0hPa | 2.5V | 00:00:00 | 00:00:00 | 00:00:00 | |
| OE5DRO-10 | 2026-09-01 00:35:29 | 45.82573 | 16.91631 | 125° | 9km/h | 26177m | 6.0m/s | -50.1°C | 3.2% | 0hPa | 2.5V | 00:00:00 | 00:00:00 | 00:00:00 | |
| 9A1FER-10 | 2026-09-01 00:35:28 | 45.82574 | 16.91629 | 116° | 11km/h | 26172m | 5.1m/s | -50.1°C | 3.1% | 0hPa | 2.5V | 00:00:00 | 01:32:46 | 00:00:00 | |
| OE8JPQ-2 | 2026-09-01 00:35:23 | 45.82572 | 16.91603 | 65° | 13km/h | 26141m | 6.1m/s | -50.2°C | 3.2% | 0hPa | 2.5V | 00:00:00 | 01:32:41 | 00:00:00 | |
| PETON7-10 | 2026-09-01 00:35:17 | 45.82556 | 16.91591 | 353° | 13km/h | 26105m | 6.7m/s | -50.3°C | 3.1% | 0hPa | 2.5V | 00:00:00 | 00:00:00 | 00:00:00 | |
| PG1ADW-2 | 2026-09-01 00:35:12 | 45.82549 | 16.91587 | 14° | 13km/h | 26072m | 6.9m/s | -50.4°C | 3.2% | 0hPa | 2.6V | 00:00:00 | 00:00:00 | 00:00:00 | |
| OE8JPQ-2 | 2026-09-01 00:35:03 | 45.82517 | 16.91597 | 327° | 11km/h | 26014m | 5.7m/s | -50.7°C | 3.3% | 0hPa | 2.6V | 00:00:00 | 00:00:00 | 00:00:00 | |
| PETON7-10 | 2026-09-01 00:35:02 | 45.82514 | 16.91600 | 316° | 11km/h | 26008m | 5.9m/s | -50.7°C | 3.3% | 0hPa | 2.5V | 00:00:00 | 00:00:00 | 00:00:00 | |
| OE5DRO-10 | 2026-09-01 00:35:01 | 45.82512 | 16.91603 | 293° | 11km/h | 26002m | 7.8m/s | -50.7°C | 3.3% | 0hPa | 2.5V | 00:00:00 | 00:00:00 | 00:00:00 | |
| OE5DXL-15 | 2026-09-01 00:35:00 | 45.82512 | 16.91608 | 270° | 7km/h | 25994m | 6.8m/s | -50.7°C | 3.3% | 0hPa | 2.5V | 00:00:00 | 00:00:00 | 00:00:00 | |
| 9A1FER-10 | 2026-09-01 00:34:58 | 45.82512 | 16.91616 | 273° | 11km/h | 25981m | 7.4m/s | -50.7°C | 3.3% | 0hPa | 2.5V | 00:00:00 | 01:32:16 | 08:30:00 | |
| PG1ADW-2 | 2026-09-01 00:34:52 | 45.82506 | 16.91636 | 320° | 9km/h | 25943m | 7.6m/s | -50.6°C | 3.3% | 0hPa | 2.5V | 00:00:00 | 00:00:00 | 00:00:00 | |
| 9A1FER-10 | 2026-09-01 00:34:43 | 45.82497 | 16.91667 | 276° | 5km/h | 25888m | 7.2m/s | -50.5°C | 3.2% | 0hPa | 2.5V | 00:00:00 | 01:32:01 | 00:00:00 | |
| OE5DRO-10 | 2026-09-01 00:34:41 | 45.82496 | 16.91672 | 313° | 5km/h | 25875m | 6.6m/s | -50.4°C | 3.2% | 0hPa | 2.5V | 00:00:00 | 00:00:00 | 08:30:00 | |
| PETON7-10 | 2026-09-01 00:34:32 | 45.82490 | 16.91667 | 186° | 9km/h | 25817m | 7.8m/s | -50.4°C | 3.1% | 0hPa | 2.6V | 00:00:00 | 00:00:00 | 08:30:00 | |
| OE5DXL-15 | 2026-09-01 00:34:29 | 45.82496 | 16.91668 | 171° | 16km/h | 25797m | 6.8m/s | -50.5°C | 3.1% | 0hPa | 2.5V | 00:00:00 | 00:00:00 | 00:00:00 | |
| 9A1FER-10 | 2026-09-01 00:34:28 | 45.82496 | 16.91668 | 50° | 9km/h | 25791m | 5.1m/s | -50.5°C | 3.1% | 0hPa | 2.6V | 00:00:00 | 01:31:46 | 00:00:00 | |
| OE8JPQ-2 | 2026-09-01 00:34:23 | 45.82488 | 16.91661 | 44° | 13km/h | 25759m | 6.0m/s | 0°C | 0% | 0hPa | 2.6V | 00:00:00 | 01:31:41 | 00:00:00 | |
| OE5DRO-10 | 2026-09-01 00:34:22 | 45.82485 | 16.91657 | 53° | 15km/h | 25753m | 4.5m/s | -51.0°C | 3.2% | 0hPa | 2.6V | 00:00:00 | 00:00:00 | 00:00:00 | |
| PETON7-10 | 2026-09-01 00:34:17 | 45.82486 | 16.91639 | 129° | 15km/h | 25723m | 6.3m/s | -51.4°C | 3.2% | 0hPa | 2.6V | 00:00:00 | 00:00:00 | 00:00:00 | |
| 9A1FER-10 | 2026-09-01 00:34:13 | 45.82489 | 16.91627 | 65° | 16km/h | 25699m | 5.9m/s | -51.9°C | 3.4% | 0hPa | 2.6V | 00:00:00 | 01:31:31 | 00:00:00 | |
| PG1ADW-2 | 2026-09-01 00:34:12 | 45.82488 | 16.91625 | 46° | 16km/h | 25693m | 5.8m/s | -51.9°C | 3.5% | 0hPa | 2.5V | 00:00:00 | 00:00:00 | 00:00:00 | |
| OE8JPQ-2 | 2026-09-01 00:34:03 | 45.82453 | 16.91592 | 23° | 20km/h | 25637m | 6.0m/s | 0°C | 0% | 0hPa | 2.5V | 00:00:00 | 00:00:00 | 08:30:00 | |
| PETON7-10 | 2026-09-01 00:34:02 | 45.82449 | 16.91590 | 10° | 18km/h | 25630m | 7.6m/s | -51.8°C | 3.5% | 0hPa | 2.5V | 00:00:00 | 01:31:20 | 00:00:00 | |
| 9A1FER-3 | 2026-09-01 00:34:01 | 45.82445 | 16.91590 | 358° | 20km/h | 25623m | 5.7m/s | -51.8°C | 3.5% | 0hPa | 2.5V | 00:00:00 | 01:31:19 | 00:00:00 | |
| 9A1FER-10 | 2026-09-01 00:33:58 | 45.82435 | 16.91590 | 14° | 22km/h | 25605m | 6.2m/s | -51.7°C | 3.4% | 0hPa | 2.5V | 00:00:00 | 01:31:16 | 00:00:00 | |
| PG1ADW-2 | 2026-09-01 00:33:52 | 45.82411 | 16.91582 | 25° | 27km/h | 25568m | 5.5m/s | -51.7°C | 3.4% | 0hPa | 2.5V | 00:00:00 | 00:00:00 | 00:00:00 | |
| OE5DXL-15 | 2026-09-01 00:33:51 | 45.82406 | 16.91579 | 20° | 31km/h | 25562m | 5.9m/s | -51.6°C | 3.4% | 0hPa | 2.5V | 00:00:00 | 00:00:00 | 00:00:00 | |
| PETON7-10 | 2026-09-01 00:33:47 | 45.82380 | 16.91573 | 9° | 29km/h | 25536m | 7.5m/s | -51.6°C | 3.4% | 0hPa | 2.5V | 00:00:00 | 00:00:00 | 00:00:00 | |
| 9A1FER-3 | 2026-09-01 00:33:46 | 45.82373 | 16.91571 | 10° | 29km/h | 25529m | 5.4m/s | -51.7°C | 3.4% | 0hPa | 2.6V | 00:00:00 | 01:31:04 | 00:00:00 | |
| OE5DRO-10 | 2026-09-01 00:33:44 | 45.82359 | 16.91569 | 1° | 33km/h | 25517m | 7.3m/s | -51.7°C | 3.4% | 0hPa | 2.6V | 00:00:00 | 00:00:00 | 00:00:00 | |
| OE8JPQ-2 | 2026-09-01 00:33:43 | 45.82352 | 16.91569 | 353° | 33km/h | 25511m | 5.3m/s | 0°C | 0% | 0hPa | 2.5V | 00:00:00 | 00:00:00 | 00:00:00 | |
| LZ4TU-5 | 2026-09-01 00:33:39 | 45.82334 | 16.91571 | 7° | 26km/h | 25493m | 6.5m/s | 0°C | 0% | 0hPa | 2.5V | 00:00:00 | 00:00:00 | 00:00:00 | |
| LZ4TU-5 | 2026-09-01 00:33:35 | 45.82306 | 16.91567 | 3° | 31km/h | 25470m | 4.4m/s | 0°C | 0% | 0hPa | 2.5V | 00:00:00 | 00:00:00 | 00:00:00 | |
| PETON7-10 | 2026-09-01 00:33:32 | 45.82271 | 16.91564 | 356° | 37km/h | 25447m | 5.9m/s | -52.0°C | 3.4% | 0hPa | 2.5V | 00:00:00 | 00:00:00 | 00:00:00 | |
| 9A1FER-10 | 2026-09-01 00:33:28 | 45.82233 | 16.91581 | 340° | 37km/h | 25421m | 7.3m/s | -52.0°C | 3.4% | 0hPa | 2.5V | 00:00:00 | 01:30:46 | 00:00:00 | |
| OE5DRO-10 | 2026-09-01 00:33:25 | 45.82205 | 16.91594 | 341° | 35km/h | 25402m | 7.0m/s | -52.1°C | 3.4% | 0hPa | 2.5V | 00:00:00 | 00:00:00 | 00:00:00 | |
| OE8JPQ-2 | 2026-09-01 00:33:22 | 45.82182 | 16.91604 | 350° | 35km/h | 25384m | 6.2m/s | 0°C | 0% | 0hPa | 2.5V | 00:00:00 | 01:30:40 | 00:00:00 | |
| OE5DXL-15 | 2026-09-01 00:33:21 | 45.82173 | 16.91606 | 348° | 35km/h | 25379m | 4.7m/s | -52.2°C | 3.4% | 0hPa | 2.5V | 00:00:00 | 00:00:00 | 00:00:00 | |
| PETON7-10 | 2026-09-01 00:33:17 | 45.82140 | 16.91627 | 330° | 35km/h | 25354m | 6.8m/s | -52.3°C | 3.5% | 0hPa | 2.5V | 00:00:00 | 01:30:35 | 00:00:00 | |
| 9A1FER-3 | 2026-09-01 00:33:13 | 45.82105 | 16.91657 | 324° | 33km/h | 25330m | 6.4m/s | -52.3°C | 3.5% | 0hPa | 2.5V | 00:00:00 | 01:30:31 | 00:00:00 | |
| PG1ADW-2 | 2026-09-01 00:33:12 | 45.82098 | 16.91665 | 320° | 33km/h | 25325m | 4.3m/s | -52.3°C | 3.5% | 0hPa | 2.5V | 00:00:00 | 01:30:30 | 00:00:00 | |
| OE5DRO-10 | 2026-09-01 00:33:06 | 45.82059 | 16.91703 | 324° | 31km/h | 25291m | 5.0m/s | -52.4°C | 3.6% | 0hPa | 2.5V | 00:00:00 | 00:00:00 | 00:00:00 | |
| OE8JPQ-2 | 2026-09-01 00:33:02 | 45.82029 | 16.91730 | 326° | 29km/h | 25267m | 7.0m/s | 0°C | 0% | 0hPa | 2.5V | 00:00:00 | 00:00:00 | 00:00:00 | |
| 9A1FER-10 | 2026-09-01 00:32:58 | 45.82001 | 16.91764 | 322° | 29km/h | 25245m | 5.2m/s | -52.4°C | 3.5% | 0hPa | 2.5V | 00:00:00 | 01:30:16 | 00:00:00 | |
| PG1ADW-2 | 2026-09-01 00:32:52 | 45.81967 | 16.91813 | 317° | 29km/h | 25210m | 5.5m/s | -52.3°C | 3.5% | 0hPa | 2.5V | 00:00:00 | 00:00:00 | 00:00:00 | |
| OE5DXL-15 | 2026-09-01 00:32:51 | 45.81962 | 16.91819 | 318° | 24km/h | 25205m | 4.7m/s | -52.3°C | 3.5% | 0hPa | 2.5V | 00:00:00 | 00:00:00 | 08:30:00 | |
| PETON7-10 | 2026-09-01 00:32:47 | 45.81947 | 16.91846 | 313° | 29km/h | 25182m | 6.8m/s | -52.3°C | 3.4% | 0hPa | 2.5V | 00:00:00 | 00:00:00 | 00:00:00 | |
| 9A1FER-10 | 2026-09-01 00:32:43 | 45.81925 | 16.91879 | 303° | 27km/h | 25160m | 5.9m/s | -52.4°C | 3.4% | 0hPa | 2.5V | 00:00:00 | 01:30:01 | 08:30:00 | |
| OE8JPQ-2 | 2026-09-01 00:32:39 | 45.81914 | 16.91917 | 293° | 22km/h | 25139m | 5.0m/s | 0°C | 0% | 0hPa | 2.5V | 00:00:00 | 00:00:00 | 00:00:00 | |
| PETON7-10 | 2026-09-01 00:32:32 | 45.81895 | 16.91986 | 297° | 15km/h | 25099m | 5.1m/s | -52.8°C | 3.5% | 0hPa | 2.5V | 00:00:00 | 01:29:50 | 00:00:00 | |
| 9A1FER-10 | 2026-09-01 00:32:28 | 45.81892 | 16.92013 | 262° | 13km/h | 25076m | 6.3m/s | -53.1°C | 3.6% | 0hPa | 2.5V | 00:00:00 | 01:29:46 | 00:00:00 | |
| OE5DXL-15 | 2026-09-01 00:32:21 | 45.81897 | 16.92047 | 268° | 9km/h | 25034m | 6.2m/s | -53.2°C | 3.7% | 0hPa | 2.5V | 00:00:00 | 00:00:00 | 00:00:00 | |
| OE8JPQ-2 | 2026-09-01 00:32:19 | 45.81897 | 16.92056 | 264° | 9km/h | 25021m | 6.9m/s | 0°C | 0% | 0hPa | 2.5V | 00:00:00 | 01:29:37 | 00:00:00 | |
| PETON7-10 | 2026-09-01 00:32:17 | 45.81897 | 16.92062 | 298° | 5km/h | 25011m | 5.6m/s | -53.2°C | 3.6% | 0hPa | 2.5V | 00:00:00 | 00:00:00 | 08:30:00 | |
| 9A1FER-10 | 2026-09-01 00:32:13 | 45.81889 | 16.92072 | 310° | 7km/h | 24986m | 4.4m/s | -53.1°C | 3.6% | 0hPa | 2.5V | 00:00:00 | 01:29:31 | 00:00:00 | |
| PG1ADW-2 | 2026-09-01 00:32:12 | 45.81887 | 16.92075 | 314° | 9km/h | 24981m | 5.6m/s | -53.0°C | 3.6% | 0hPa | 2.5V | 00:00:00 | 00:00:00 | 00:00:00 | |
| OE5DRO-10 | 2026-09-01 00:32:09 | 45.81883 | 16.92080 | 282° | 7km/h | 24962m | 7.2m/s | -53.0°C | 3.6% | 0hPa | 2.5V | 00:00:00 | 00:00:00 | 00:00:00 | |
| PETON7-10 | 2026-09-01 00:32:02 | 45.81877 | 16.92079 | 346° | 11km/h | 24923m | 3.8m/s | -53.2°C | 3.6% | 0hPa | 2.5V | 00:00:00 | 00:00:00 | 00:00:00 | |
| 9A1FER-10 | 2026-09-01 00:31:58 | 45.81863 | 16.92083 | 334° | 9km/h | 24899m | 7.9m/s | -53.3°C | 3.7% | 0hPa | 2.5V | 00:00:00 | 01:29:16 | 00:00:00 | |
| OE8JPQ-2 | 2026-09-01 00:31:56 | 45.81858 | 16.92087 | 342° | 9km/h | 24887m | 6.8m/s | 0°C | 0% | 0hPa | 2.6V | 00:00:00 | 00:00:00 | 00:00:00 | |
| 9A1FER-3 | 2026-09-01 00:31:55 | 45.81855 | 16.92088 | 4° | 5km/h | 24881m | 6.0m/s | -53.3°C | 3.7% | 0hPa | 2.6V | 00:00:00 | 01:29:13 | 00:00:00 | |
| PG1ADW-2 | 2026-09-01 00:31:52 | 45.81851 | 16.92085 | 56° | 11km/h | 24862m | 5.3m/s | -53.3°C | 3.7% | 0hPa | 2.6V | 00:00:00 | 01:29:10 | 00:00:00 | |
| OE5DXL-15 | 2026-09-01 00:31:51 | 45.81851 | 16.92084 | 53° | 11km/h | 24856m | 6.4m/s | -53.3°C | 3.7% | 0hPa | 2.6V | 00:00:00 | 00:00:00 | 00:00:00 | |
| OE5DRO-10 | 2026-09-01 00:31:50 | 45.81849 | 16.92082 | 36° | 13km/h | 24849m | 6.2m/s | -53.3°C | 3.7% | 0hPa | 2.6V | 00:00:00 | 00:00:00 | 08:30:00 | |
| PETON7-10 | 2026-09-01 00:31:47 | 45.81842 | 16.92081 | 332° | 13km/h | 24832m | 6.7m/s | -53.2°C | 3.6% | 0hPa | 2.5V | 00:00:00 | 01:29:05 | 00:00:00 | |
| LZ4TU-5 | 2026-09-01 00:31:44 | 45.81838 | 16.92087 | 310° | 15km/h | 24820m | 5.8m/s | 0°C | 0% | 0hPa | 2.5V | 00:00:00 | 00:00:00 | 00:00:00 | |
| 9A1FER-10 | 2026-09-01 00:31:43 | 45.81832 | 16.92094 | 335° | 11km/h | 24809m | 5.6m/s | -53.3°C | 3.7% | 0hPa | 2.5V | 00:00:00 | 01:29:01 | 00:00:00 | |
| 9A1FER-3 | 2026-09-01 00:31:39 | 45.81823 | 16.92100 | 326° | 13km/h | 24785m | 6.1m/s | -53.3°C | 3.7% | 0hPa | 2.5V | 00:00:00 | 01:28:57 | 08:30:00 | |
| OE8JPQ-2 | 2026-09-01 00:31:35 | 45.81815 | 16.92113 | 289° | 15km/h | 24760m | 5.9m/s | 0°C | 0% | 0hPa | 2.5V | 00:00:00 | 00:00:00 | 00:00:00 | |
| PETON7-10 | 2026-09-01 00:31:32 | 45.81810 | 16.92127 | 309° | 13km/h | 24742m | 5.3m/s | -53.3°C | 3.7% | 0hPa | 2.5V | 00:00:00 | 00:00:00 | 00:00:00 | |
| OE5DRO-10 | 2026-09-01 00:31:31 | 45.81808 | 16.92130 | 309° | 13km/h | 24736m | 6.9m/s | -53.3°C | 3.7% | 0hPa | 2.5V | 00:00:00 | 00:00:00 | 00:00:00 | |
| 9A1FER-10 | 2026-09-01 00:31:28 | 45.81803 | 16.92137 | 332° | 13km/h | 24717m | 7.3m/s | -53.3°C | 3.6% | 0hPa | 2.5V | 00:00:00 | 01:28:46 | 00:00:00 | |
| 9A1FER-3 | 2026-09-01 00:31:24 | 45.81794 | 16.92149 | 285° | 15km/h | 24692m | 5.1m/s | -53.3°C | 3.7% | 0hPa | 2.5V | 00:00:00 | 01:28:42 | 00:00:00 | |
| OE5DXL-15 | 2026-09-01 00:31:21 | 45.81791 | 16.92165 | 294° | 20km/h | 24674m | 5.8m/s | -53.3°C | 3.7% | 0hPa | 2.5V | 00:00:00 | 00:00:00 | 00:00:00 | |
| PETON7-10 | 2026-09-01 00:31:17 | 45.81786 | 16.92182 | 284° | 18km/h | 24650m | 4.4m/s | -53.4°C | 3.7% | 0hPa | 2.5V | 00:00:00 | 00:00:00 | 00:00:00 | |
| OE8JPQ-2 | 2026-09-01 00:31:15 | 45.81784 | 16.92190 | 291° | 20km/h | 24638m | 6.3m/s | 0°C | 0% | 0hPa | 2.5V | 00:00:00 | 01:28:33 | 00:00:00 | |
| 9A1FER-10 | 2026-09-01 00:31:13 | 45.81782 | 16.92202 | 283° | 20km/h | 24625m | 7.1m/s | -53.4°C | 3.7% | 0hPa | 2.5V | 00:00:00 | 01:28:31 | 00:00:00 | |
| OE5DRO-10 | 2026-09-01 00:31:12 | 45.81781 | 16.92208 | 278° | 22km/h | 24619m | 6.1m/s | -53.4°C | 3.7% | 0hPa | 2.5V | 00:00:00 | 00:00:00 | 00:00:00 | |
| 9A1FER-3 | 2026-09-01 00:31:08 | 45.81774 | 16.92236 | 300° | 22km/h | 24595m | 4.8m/s | -53.3°C | 3.7% | 0hPa | 2.5V | 00:00:00 | 01:28:26 | 00:00:00 | |
| PETON7-10 | 2026-09-01 00:31:02 | 45.81766 | 16.92274 | 274° | 27km/h | 24556m | 5.2m/s | -53.1°C | 3.6% | 0hPa | 2.5V | 00:00:00 | 01:28:20 | 00:00:00 | |
| 9A1FER-10 | 2026-09-01 00:30:58 | 45.81771 | 16.92307 | 257° | 29km/h | 24532m | 5.8m/s | -53.2°C | 3.6% | 0hPa | 2.5V | 00:00:00 | 01:28:16 | 00:00:00 | |
| OE8JPQ-2 | 2026-09-01 00:30:53 | 45.81766 | 16.92355 | 285° | 31km/h | 24499m | 5.9m/s | 0°C | 0% | 0hPa | 2.5V | 00:00:00 | 00:00:00 | 00:00:00 | |
| PG1ADW-2 | 2026-09-01 00:30:52 | 45.81764 | 16.92364 | 285° | 27km/h | 24493m | 6.0m/s | -53.3°C | 3.6% | 0hPa | 2.5V | 00:00:00 | 00:00:00 | 00:00:00 | |
| OE5DXL-15 | 2026-09-01 00:30:51 | 45.81763 | 16.92375 | 283° | 29km/h | 24486m | 7.4m/s | -53.3°C | 3.7% | 0hPa | 2.5V | 00:00:00 | 00:00:00 | 00:00:00 | |
| PETON7-10 | 2026-09-01 00:30:47 | 45.81763 | 16.92421 | 263° | 26km/h | 24461m | 4.8m/s | -53.3°C | 3.6% | 0hPa | 2.5V | 00:00:00 | 00:00:00 | 00:00:00 | |
| 9A1FER-10 | 2026-09-01 00:30:43 | 45.81764 | 16.92464 | 270° | 24km/h | 24435m | 6.7m/s | -53.3°C | 3.6% | 0hPa | 2.6V | 00:00:00 | 01:28:01 | 00:00:00 | |
| 9A1FER-3 | 2026-09-01 00:30:38 | 45.81756 | 16.92507 | 293° | 22km/h | 24401m | 6.9m/s | -53.4°C | 3.7% | 0hPa | 2.6V | 00:00:00 | 01:27:56 | 00:00:00 | |
| OE5DRO-10 | 2026-09-01 00:30:34 | 45.81749 | 16.92539 | 282° | 22km/h | 24376m | 5.5m/s | -53.4°C | 3.7% | 0hPa | 2.6V | 00:00:00 | 00:00:00 | 00:00:00 | |
| PETON7-10 | 2026-09-01 00:30:32 | 45.81748 | 16.92557 | 271° | 20km/h | 24364m | 6.7m/s | -53.5°C | 3.7% | 0hPa | 2.6V | 00:00:00 | 00:00:00 | 00:00:00 | |
| 9A1FER-10 | 2026-09-01 00:30:28 | 45.81751 | 16.92589 | 262° | 18km/h | 24338m | 6.1m/s | -53.6°C | 3.8% | 0hPa | 2.6V | 00:00:00 | 01:27:46 | 08:30:00 | |
| 9A1FER-3 | 2026-09-01 00:30:23 | 45.81757 | 16.92625 | 261° | 15km/h | 24304m | 6.3m/s | -53.4°C | 3.7% | 0hPa | 2.6V | 00:00:00 | 01:27:41 | 00:00:00 | |
| OE5DXL-15 | 2026-09-01 00:30:21 | 45.81759 | 16.92640 | 257° | 11km/h | 24291m | 7.9m/s | -53.4°C | 3.7% | 0hPa | 2.6V | 00:00:00 | 00:00:00 | 00:00:00 | |
| PETON7-10 | 2026-09-01 00:30:18 | 45.81761 | 16.92667 | 278° | 13km/h | 24265m | 5.9m/s | -53.3°C | 3.7% | 0hPa | 2.6V | 00:00:00 | 01:27:35 | 00:00:00 | |
| OE5DRO-10 | 2026-09-01 00:30:15 | 45.81759 | 16.92679 | 285° | 11km/h | 24252m | 6.6m/s | -53.3°C | 3.6% | 0hPa | 2.6V | 00:00:00 | 00:00:00 | 00:00:00 | |
| 9A1FER-10 | 2026-09-01 00:30:13 | 45.81757 | 16.92688 | 287° | 11km/h | 24239m | 6.5m/s | -53.3°C | 3.6% | 0hPa | 2.6V | 00:00:00 | 01:27:31 | 00:00:00 | |
| PG1ADW-2 | 2026-09-01 00:30:12 | 45.81756 | 16.92692 | 288° | 9km/h | 24233m | 6.8m/s | -53.3°C | 3.6% | 0hPa | 2.6V | 00:00:00 | 00:00:00 | 00:00:00 | |
| PETON7-10 | 2026-09-01 00:30:02 | 45.81761 | 16.92734 | 247° | 5km/h | 24167m | 7.3m/s | -53.5°C | 3.7% | 0hPa | 2.6V | 00:00:00 | 00:00:00 | 08:30:00 | |
| 9A1FER-10 | 2026-09-01 00:29:58 | 45.81761 | 16.92746 | 290° | 5km/h | 24141m | 6.6m/s | -53.6°C | 3.7% | 0hPa | 2.7V | 00:00:00 | 01:27:16 | 00:00:00 | |
| OE5DRO-10 | 2026-09-01 00:29:56 | 45.81760 | 16.92748 | 287° | 7km/h | 24130m | 6.4m/s | -53.7°C | 3.7% | 0hPa | 2.7V | 00:00:00 | 00:00:00 | 00:00:00 | |
| PG1ADW-2 | 2026-09-01 00:29:52 | 45.81760 | 16.92756 | 235° | 7km/h | 24104m | 6.0m/s | -53.7°C | 3.7% | 0hPa | 2.5V | 00:00:00 | 00:00:00 | 00:00:00 | |
| OE5DXL-15 | 2026-09-01 00:29:51 | 45.81761 | 16.92757 | 231° | 11km/h | 24097m | 6.4m/s | -53.7°C | 3.7% | 0hPa | 2.5V | 00:00:00 | 00:00:00 | 00:00:00 | |
| PETON7-10 | 2026-09-01 00:29:47 | 45.81767 | 16.92764 | 185° | 9km/h | 24071m | 6.3m/s | -53.6°C | 3.7% | 0hPa | 2.5V | 00:00:00 | 00:00:00 | 00:00:00 | |
| 9A1FER-10 | 2026-09-01 00:29:43 | 45.81772 | 16.92766 | 211° | 9km/h | 24047m | 5.5m/s | -53.7°C | 3.7% | 0hPa | 2.5V | 00:00:00 | 01:27:01 | 00:00:00 | |
| OE5DRO-10 | 2026-09-01 00:29:37 | 45.81784 | 16.92773 | 206° | 13km/h | 24010m | 4.8m/s | -53.9°C | 3.8% | 0hPa | 2.5V | 00:00:00 | 00:00:00 | 00:00:00 | |
| PETON7-10 | 2026-09-01 00:29:32 | 45.81797 | 16.92775 | 170° | 13km/h | 23980m | 5.7m/s | -53.8°C | 3.7% | 0hPa | 2.5V | 00:00:00 | 01:26:50 | 00:00:00 | |
| 9A1FER-10 | 2026-09-01 00:29:28 | 45.81803 | 16.92766 | 152° | 15km/h | 23955m | 6.4m/s | -53.9°C | 3.8% | 0hPa | 2.5V | 00:00:00 | 01:26:46 | 00:00:00 | |
| OE5DXL-15 | 2026-09-01 00:29:21 | 45.81832 | 16.92758 | 168° | 11km/h | 23914m | 5.9m/s | -53.9°C | 3.9% | 0hPa | 2.5V | 00:00:00 | 00:00:00 | 00:00:00 | |
| OE5DRO-10 | 2026-09-01 00:29:18 | 45.81838 | 16.92749 | 111° | 11km/h | 23895m | 7.1m/s | -53.8°C | 3.8% | 0hPa | 2.5V | 00:00:00 | 00:00:00 | 00:00:00 | |
| PETON7-10 | 2026-09-01 00:29:17 | 45.81839 | 16.92746 | 94° | 11km/h | 23889m | 5.8m/s | -53.8°C | 3.8% | 0hPa | 2.5V | 00:00:00 | 00:00:00 | 00:00:00 | |
| 9A1FER-10 | 2026-09-01 00:29:13 | 45.81842 | 16.92727 | 119° | 11km/h | 23866m | 6.2m/s | -53.7°C | 3.8% | 0hPa | 2.6V | 00:00:00 | 01:26:31 | 00:00:00 | |
| PG1ADW-2 | 2026-09-01 00:29:12 | 45.81844 | 16.92723 | 134° | 11km/h | 23861m | 5.5m/s | -53.7°C | 3.8% | 0hPa | 2.6V | 00:00:00 | 01:26:30 | 00:00:00 | |
| PETON7-10 | 2026-09-01 00:29:02 | 45.81863 | 16.92706 | 54° | 9km/h | 23804m | 5.2m/s | -53.8°C | 3.8% | 0hPa | 2.6V | 00:00:00 | 00:00:00 | 00:00:00 | |
| OE5DRO-10 | 2026-09-01 00:28:59 | 45.81856 | 16.92696 | 50° | 7km/h | 23787m | 5.3m/s | -53.7°C | 3.8% | 0hPa | 2.6V | 00:00:00 | 00:00:00 | 08:30:00 | |
| 9A1FER-10 | 2026-09-01 00:28:58 | 45.81855 | 16.92692 | 69° | 9km/h | 23781m | 5.6m/s | -53.7°C | 3.8% | 0hPa | 2.6V | 00:00:00 | 01:26:16 | 00:00:00 | |
| OE5DXL-15 | 2026-09-01 00:28:51 | 45.81857 | 16.92691 | 251° | 9km/h | 23742m | 4.5m/s | -53.4°C | 3.7% | 0hPa | 2.5V | 00:00:00 | 00:00:00 | 00:00:00 | |
| PETON7-10 | 2026-09-01 00:28:47 | 45.81855 | 16.92702 | 335° | 9km/h | 23721m | 6.6m/s | -53.3°C | 3.6% | 0hPa | 2.5V | 00:00:00 | 01:26:05 | 00:00:00 | |
| OE5DRO-10 | 2026-09-01 00:28:40 | 45.81855 | 16.92697 | 234° | 11km/h | 23682m | 5.5m/s | -53.5°C | 3.7% | 0hPa | 2.5V | 00:00:00 | 00:00:00 | 00:00:00 | |
| PETON7-10 | 2026-09-01 00:28:32 | 45.81859 | 16.92728 | 308° | 13km/h | 23639m | 5.5m/s | -53.5°C | 3.7% | 0hPa | 2.5V | 00:00:00 | 00:00:00 | 00:00:00 | |
| 9A1FER-10 | 2026-09-01 00:28:31 | 45.81858 | 16.92731 | 305° | 13km/h | 23632m | 8.6m/s | -53.5°C | 3.7% | 0hPa | 2.5V | 00:00:00 | 01:25:49 | 00:00:00 | |
| 9A1FER-3 | 2026-09-01 00:28:26 | 45.81848 | 16.92749 | 299° | 15km/h | 23605m | 7.4m/s | -53.4°C | 3.6% | 0hPa | 2.5V | 00:00:00 | 01:25:44 | 00:00:00 | |
| OE5DXL-15 | 2026-09-01 00:28:21 | 45.81841 | 16.92766 | 305° | 20km/h | 23578m | 6.9m/s | -53.5°C | 3.7% | 0hPa | 2.5V | 00:00:00 | 00:00:00 | 08:30:00 | |
| PETON7-10 | 2026-09-01 00:28:17 | 45.81834 | 16.92783 | 307° | 22km/h | 23557m | 3.5m/s | -53.7°C | 3.8% | 0hPa | 2.5V | 00:00:00 | 00:00:00 | 00:00:00 | |
| 9A1FER-10 | 2026-09-01 00:28:15 | 45.81828 | 16.92794 | 308° | 22km/h | 23546m | 7.5m/s | -53.7°C | 3.7% | 0hPa | 2.5V | 00:00:00 | 01:25:33 | 00:00:00 | |
| PG1ADW-2 | 2026-09-01 00:28:12 | 45.81819 | 16.92812 | 310° | 22km/h | 23531m | 5.0m/s | -53.6°C | 3.7% | 0hPa | 2.5V | 00:00:00 | 00:00:00 | 00:00:00 | |
| 9A1FER-3 | 2026-09-01 00:28:11 | 45.81815 | 16.92819 | 308° | 22km/h | 23526m | 4.4m/s | -53.7°C | 3.7% | 0hPa | 2.5V | 00:00:00 | 01:25:29 | 00:00:00 | |
| PETON7-10 | 2026-09-01 00:28:02 | 45.81783 | 16.92870 | 315° | 22km/h | 23478m | 4.6m/s | -53.9°C | 3.8% | 0hPa | 2.5V | 00:00:00 | 01:25:20 | 00:00:00 | |
| 9A1FER-10 | 2026-09-01 00:28:00 | 45.81776 | 16.92882 | 307° | 20km/h | 23467m | 7.4m/s | -53.9°C | 3.9% | 0hPa | 2.5V | 00:00:00 | 01:25:18 | 08:30:00 | |
| 9A1FER-3 | 2026-09-01 00:27:56 | 45.81768 | 16.92911 | 281° | 20km/h | 23446m | 3.4m/s | -53.8°C | 3.8% | 0hPa | 2.5V | 00:00:00 | 01:25:14 | 00:00:00 | |
| LZ4TU-5 | 2026-09-01 00:27:55 | 45.81768 | 16.92911 | 282° | 26km/h | 23446m | 3.5m/s | 0°C | 0% | 0hPa | 2.5V | 00:00:00 | 00:00:00 | 00:00:00 | |
| PG1ADW-2 | 2026-09-01 00:27:52 | 45.81768 | 16.92944 | 270° | 18km/h | 23424m | 8.2m/s | -53.7°C | 3.7% | 0hPa | 2.5V | 00:00:00 | 01:25:10 | 00:00:00 | |
| OE5DXL-15 | 2026-09-01 00:27:51 | 45.81767 | 16.92952 | 276° | 16km/h | 23418m | 3.3m/s | -53.6°C | 3.7% | 0hPa | 2.5V | 00:00:00 | 00:00:00 | 00:00:00 | |
| LZ4TU-5 | 2026-09-01 00:27:50 | 45.81767 | 16.92952 | 277° | 22km/h | 23418m | 3.3m/s | 0°C | 0% | 0hPa | 2.5V | 00:00:00 | 00:00:00 | 00:00:00 | |
| PETON7-10 | 2026-09-01 00:27:47 | 45.81765 | 16.92977 | 285° | 16km/h | 23396m | 6.8m/s | -53.6°C | 3.7% | 0hPa | 2.5V | 00:00:00 | 00:00:00 | 08:30:00 | |
| 9A1FER-10 | 2026-09-01 00:27:45 | 45.81762 | 16.92990 | 290° | 16km/h | 23387m | 5.7m/s | -53.6°C | 3.7% | 0hPa | 2.7V | 00:00:00 | 01:25:03 | 00:00:00 | |
| OE5DRO-10 | 2026-09-01 00:27:43 | 45.81760 | 16.93002 | 273° | 16km/h | 23375m | 3.6m/s | -53.8°C | 3.7% | 0hPa | 2.7V | 00:00:00 | 00:00:00 | 00:00:00 | |
| 9A1FER-3 | 2026-09-01 00:27:42 | 45.81760 | 16.93015 | 275° | 16km/h | 23363m | 4.6m/s | -54.1°C | 3.8% | 0hPa | 2.7V | 00:00:00 | 01:24:59 | 08:30:00 | |
| LZ4TU-5 | 2026-09-01 00:27:40 | 45.81760 | 16.93015 | 276° | 20km/h | 23363m | 4.7m/s | 0°C | 0% | 0hPa | 2.7V | 00:00:00 | 00:00:00 | 00:00:00 | |
| LZ4TU-5 | 2026-09-01 00:27:36 | 45.81761 | 16.93042 | 253° | 16km/h | 23342m | 5.9m/s | 0°C | 0% | 0hPa | 2.7V | 00:00:00 | 00:00:00 | 00:00:00 | |
| PETON7-10 | 2026-09-01 00:27:32 | 45.81771 | 16.93065 | 220° | 13km/h | 23314m | 5.4m/s | -53.9°C | 3.8% | 0hPa | 2.7V | 00:00:00 | 00:00:00 | 00:00:00 | |
| LZ4TU-5 | 2026-09-01 00:27:31 | 45.81771 | 16.93065 | 220° | 16km/h | 23314m | 5.4m/s | 0°C | 0% | 0hPa | 2.7V | 00:00:00 | 00:00:00 | 00:00:00 | |
| 9A1FER-10 | 2026-09-01 00:27:30 | 45.81777 | 16.93073 | 232° | 13km/h | 23303m | 3.9m/s | -53.9°C | 3.8% | 0hPa | 2.7V | 00:00:00 | 01:24:48 | 00:00:00 | |
| 9A1FER-3 | 2026-09-01 00:27:26 | 45.81789 | 16.93091 | 225° | 11km/h | 23278m | 7.3m/s | -53.9°C | 3.8% | 0hPa | 2.7V | 00:00:00 | 01:24:44 | 00:00:00 | |
| OE5DRO-10 | 2026-09-01 00:27:24 | 45.81794 | 16.93099 | 235° | 7km/h | 23269m | 5.4m/s | -53.9°C | 3.7% | 0hPa | 2.7V | 00:00:00 | 00:00:00 | 00:00:00 | |
| OE5DXL-15 | 2026-09-01 00:27:21 | 45.81801 | 16.93108 | 217° | 7km/h | 23249m | 7.0m/s | -53.9°C | 3.8% | 0hPa | 2.7V | 00:00:00 | 00:00:00 | 00:00:00 | |
| PETON7-10 | 2026-09-01 00:27:17 | 45.81807 | 16.93114 | 189° | 5km/h | 23225m | 3.4m/s | -53.8°C | 3.7% | 0hPa | 2.7V | 00:00:00 | 01:24:35 | 00:00:00 | |
| 9A1FER-10 | 2026-09-01 00:27:15 | 45.81811 | 16.93115 | 199° | 7km/h | 23214m | 8.0m/s | -53.8°C | 3.7% | 0hPa | 2.7V | 00:00:00 | 01:24:33 | 00:00:00 | |
| PG1ADW-2 | 2026-09-01 00:27:12 | 45.81815 | 16.93117 | 189° | 9km/h | 23198m | 3.8m/s | -53.8°C | 3.7% | 0hPa | 2.5V | 00:00:00 | 00:00:00 | 00:00:00 | |
| 9A1FER-3 | 2026-09-01 00:27:11 | 45.81817 | 16.93118 | 195° | 9km/h | 23193m | 5.6m/s | -53.8°C | 3.7% | 0hPa | 2.5V | 00:00:00 | 01:24:29 | 00:00:00 | |
| OE5DRO-10 | 2026-09-01 00:27:05 | 45.81823 | 16.93118 | 130° | 13km/h | 23158m | 8.1m/s | -53.9°C | 3.7% | 0hPa | 2.5V | 00:00:00 | 00:00:00 | 00:00:00 | |
| PETON7-10 | 2026-09-01 00:27:02 | 45.81825 | 16.93110 | 112° | 13km/h | 23141m | 5.8m/s | -54.2°C | 3.8% | 0hPa | 2.7V | 00:00:00 | 00:00:00 | 00:00:00 | |
| 9A1FER-10 | 2026-09-01 00:27:00 | 45.81827 | 16.93102 | 96° | 15km/h | 23129m | 8.0m/s | -54.2°C | 3.8% | 0hPa | 2.6V | 00:00:00 | 01:24:18 | 00:00:00 | |
| 9A1FER-3 | 2026-09-01 00:26:55 | 45.81826 | 16.93080 | 85° | 16km/h | 23100m | 5.9m/s | -54.1°C | 3.8% | 0hPa | 2.6V | 00:00:00 | 01:24:13 | 00:00:00 | |
| PG1ADW-2 | 2026-09-01 00:26:52 | 45.81823 | 16.93069 | 74° | 15km/h | 23082m | 5.7m/s | -54.1°C | 3.8% | 0hPa | 2.5V | 00:00:00 | 00:00:00 | 00:00:00 | |
| OE5DXL-15 | 2026-09-01 00:26:51 | 45.81822 | 16.93064 | 77° | 15km/h | 23077m | 4.7m/s | -54.1°C | 3.8% | 0hPa | 2.5V | 00:00:00 | 00:00:00 | 00:00:00 | |
| PETON7-10 | 2026-09-01 00:26:47 | 45.81819 | 16.93036 | 89° | 15km/h | 23054m | 8.1m/s | -54.1°C | 3.8% | 0hPa | 2.7V | 00:00:00 | 00:00:00 | 00:00:00 | |
| OE5DRO-10 | 2026-09-01 00:26:46 | 45.81819 | 16.93029 | 93° | 13km/h | 23048m | 3.9m/s | -54.1°C | 3.8% | 0hPa | 2.7V | 00:00:00 | 00:00:00 | 00:00:00 | |
| 9A1FER-10 | 2026-09-01 00:26:45 | 45.81819 | 16.93023 | 86° | 13km/h | 23043m | 6.5m/s | -54.1°C | 3.8% | 0hPa | 2.7V | 00:00:00 | 01:24:03 | 00:00:00 | |
| 9A1FER-3 | 2026-09-01 00:26:40 | 45.81812 | 16.93003 | 41° | 11km/h | 23014m | 6.9m/s | -54.2°C | 3.9% | 0hPa | 2.7V | 00:00:00 | 01:23:58 | 00:00:00 | |
| PETON7-10 | 2026-09-01 00:26:32 | 45.81791 | 16.92978 | 51° | 13km/h | 22967m | 6.1m/s | -54.2°C | 3.9% | 0hPa | 2.7V | 00:00:00 | 01:23:50 | 00:00:00 | |
| 9A1FER-10 | 2026-09-01 00:26:30 | 45.81787 | 16.92974 | 29° | 11km/h | 22956m | 5.6m/s | -54.1°C | 3.9% | 0hPa | 2.7V | 00:00:00 | 01:23:48 | 00:00:00 | |
| OE5DRO-10 | 2026-09-01 00:26:27 | 45.81779 | 16.92970 | 1° | 15km/h | 22937m | 7.0m/s | -54.1°C | 3.8% | 0hPa | 2.7V | 00:00:00 | 00:00:00 | 00:00:00 | |
| OE5DXL-15 | 2026-09-01 00:26:21 | 45.81756 | 16.92972 | 4° | 15km/h | 22900m | 5.4m/s | -54.1°C | 3.9% | 0hPa | 2.7V | 00:00:00 | 00:00:00 | 00:00:00 | |
| PETON7-10 | 2026-09-01 00:26:17 | 45.81748 | 16.92966 | 38° | 16km/h | 22875m | 7.5m/s | -54.1°C | 3.8% | 0hPa | 2.7V | 00:00:00 | 00:00:00 | 00:00:00 | |
| 9A1FER-10 | 2026-09-01 00:26:15 | 45.81744 | 16.92965 | 3° | 16km/h | 22863m | 6.0m/s | -54.1°C | 3.9% | 0hPa | 2.5V | 00:00:00 | 01:23:33 | 00:00:00 | |
| PG1ADW-2 | 2026-09-01 00:26:12 | 45.81733 | 16.92966 | 350° | 16km/h | 22844m | 8.4m/s | -54.1°C | 3.9% | 0hPa | 2.5V | 00:00:00 | 00:00:00 | 00:00:00 | |
| OE5DRO-10 | 2026-09-01 00:26:08 | 45.81712 | 16.92972 | 352° | 15km/h | 22820m | 4.6m/s | -54.1°C | 3.9% | 0hPa | 2.5V | 00:00:00 | 00:00:00 | 08:30:00 | |
| PETON7-10 | 2026-09-01 00:26:02 | 45.81689 | 16.92983 | 336° | 11km/h | 22784m | 7.8m/s | -53.9°C | 3.8% | 0hPa | 2.5V | 00:00:00 | 00:00:00 | 00:00:00 | |
| PG1ADW-2 | 2026-09-01 00:25:52 | 45.81657 | 16.93004 | 333° | 9km/h | 22723m | 7.0m/s | -53.6°C | 3.8% | 0hPa | 2.5V | 00:00:00 | 00:00:00 | 00:00:00 | |
| OE5DXL-15 | 2026-09-01 00:25:51 | 45.81655 | 16.93007 | 318° | 7km/h | 22716m | 6.8m/s | -53.6°C | 3.8% | 0hPa | 2.5V | 00:00:00 | 00:00:00 | 00:00:00 | |
| OE5DRO-10 | 2026-09-01 00:25:49 | 45.81652 | 16.93012 | 304° | 9km/h | 22703m | 7.9m/s | -53.5°C | 3.8% | 0hPa | 2.5V | 00:00:00 | 00:00:00 | 00:00:00 | |
| PETON7-10 | 2026-09-01 00:25:47 | 45.81651 | 16.93015 | 284° | 9km/h | 22691m | 6.7m/s | -53.5°C | 3.8% | 0hPa | 2.5V | 00:00:00 | 01:23:05 | 00:00:00 | |
| 9A1FER-10 | 2026-09-01 00:25:45 | 45.81650 | 16.93019 | 298° | 9km/h | 22677m | 4.7m/s | -53.4°C | 3.7% | 0hPa | 2.5V | 00:00:00 | 01:23:03 | 08:30:00 | |
| PETON7-10 | 2026-09-01 00:25:32 | 45.81619 | 16.93029 | 287° | 5km/h | 22595m | 6.9m/s | -53.3°C | 3.7% | 0hPa | 2.5V | 00:00:00 | 00:00:00 | 08:30:00 | |
| 9A1FER-10 | 2026-09-01 00:25:30 | 45.81618 | 16.93033 | 289° | 5km/h | 22583m | 5.3m/s | -53.2°C | 3.7% | 0hPa | 2.6V | 00:00:00 | 01:22:48 | 00:00:00 | |
| OE5DXL-15 | 2026-09-01 00:25:21 | 45.81606 | 16.93032 | 336° | 9km/h | 22525m | 6.7m/s | -53.1°C | 3.6% | 0hPa | 2.6V | 00:00:00 | 00:00:00 | 00:00:00 | |
| 9A1FER-3 | 2026-09-01 00:25:18 | 45.81603 | 16.93038 | 269° | 11km/h | 22506m | 4.0m/s | -53.2°C | 3.7% | 0hPa | 2.5V | 00:00:00 | 01:22:36 | 00:00:00 | |
| PETON7-10 | 2026-09-01 00:25:17 | 45.81603 | 16.93040 | 254° | 11km/h | 22500m | 6.1m/s | -53.2°C | 3.6% | 0hPa | 2.5V | 00:00:00 | 00:00:00 | 00:00:00 | |
| 9A1FER-10 | 2026-09-01 00:25:15 | 45.81605 | 16.93047 | 248° | 11km/h | 22486m | 4.0m/s | -53.3°C | 3.7% | 0hPa | 2.5V | 00:00:00 | 01:22:33 | 00:00:00 | |
| PG1ADW-2 | 2026-09-01 00:25:12 | 45.81607 | 16.93055 | 278° | 9km/h | 22469m | 5.0m/s | -53.2°C | 3.7% | 0hPa | 2.5V | 00:00:00 | 01:22:30 | 00:00:00 | |
| OE5DRO-10 | 2026-09-01 00:25:11 | 45.81606 | 16.93058 | 294° | 9km/h | 22462m | 8.1m/s | -53.2°C | 3.6% | 0hPa | 2.5V | 00:00:00 | 00:00:00 | 00:00:00 | |
| 9A1FER-3 | 2026-09-01 00:25:03 | 45.81584 | 16.93072 | 348° | 7km/h | 22412m | 4.8m/s | -53.4°C | 3.7% | 0hPa | 2.7V | 00:00:00 | 01:22:21 | 00:00:00 | |
| PETON7-10 | 2026-09-01 00:25:02 | 45.81582 | 16.93073 | 339° | 7km/h | 22406m | 5.9m/s | -53.4°C | 3.7% | 0hPa | 2.5V | 00:00:00 | 01:22:20 | 00:00:00 | |
| 9A1FER-10 | 2026-09-01 00:25:00 | 45.81581 | 16.93075 | 287° | 7km/h | 22392m | 3.9m/s | -53.4°C | 3.7% | 0hPa | 2.5V | 00:00:00 | 01:22:18 | 00:00:00 | |
| PG1ADW-2 | 2026-09-01 00:24:52 | 45.81571 | 16.93080 | 360° | 9km/h | 22344m | 6.7m/s | -53.3°C | 3.7% | 0hPa | 2.5V | 00:00:00 | 00:00:00 | 00:00:00 | |
| OE5DXL-15 | 2026-09-01 00:24:51 | 45.81568 | 16.93080 | 351° | 9km/h | 22336m | 8.4m/s | -53.3°C | 3.7% | 0hPa | 2.5V | 00:00:00 | 00:00:00 | 00:00:00 | |
| 9A1FER-3 | 2026-09-01 00:24:48 | 45.81560 | 16.93082 | 1° | 7km/h | 22317m | 5.6m/s | -53.2°C | 3.6% | 0hPa | 2.5V | 00:00:00 | 01:22:06 | 00:00:00 | |
| PETON7-10 | 2026-09-01 00:24:47 | 45.81558 | 16.93082 | 6° | 7km/h | 22312m | 5.1m/s | -53.2°C | 3.7% | 0hPa | 2.5V | 00:00:00 | 00:00:00 | 00:00:00 | |
| 9A1FER-10 | 2026-09-01 00:24:45 | 45.81554 | 16.93083 | 350° | 9km/h | 22300m | 3.2m/s | -53.2°C | 3.6% | 0hPa | 2.5V | 00:00:00 | 01:22:03 | 00:00:00 | |
| 9A1FER-3 | 2026-09-01 00:24:33 | 45.81538 | 16.93064 | 58° | 11km/h | 22227m | 6.6m/s | -53.3°C | 3.6% | 0hPa | 2.5V | 00:00:00 | 01:21:51 | 00:00:00 | |
| PETON7-10 | 2026-09-01 00:24:32 | 45.81536 | 16.93060 | 61° | 9km/h | 22221m | 4.5m/s | -53.3°C | 3.6% | 0hPa | 2.5V | 00:00:00 | 00:00:00 | 00:00:00 | |
| 9A1FER-10 | 2026-09-01 00:24:30 | 45.81532 | 16.93052 | 48° | 9km/h | 22209m | 8.0m/s | -53.4°C | 3.6% | 0hPa | 2.5V | 00:00:00 | 01:21:48 | 00:00:00 | |
| OE5DXL-15 | 2026-09-01 00:24:21 | 45.81518 | 16.93026 | 60° | 13km/h | 22155m | 5.6m/s | -53.9°C | 3.8% | 0hPa | 2.5V | 00:00:00 | 00:00:00 | 00:00:00 | |
| 9A1FER-3 | 2026-09-01 00:24:18 | 45.81515 | 16.93023 | 46° | 13km/h | 22135m | 7.5m/s | -54.0°C | 3.8% | 0hPa | 2.5V | 00:00:00 | 01:21:36 | 08:30:00 | |
| 9A1FER-10 | 2026-09-01 00:24:15 | 45.81509 | 16.93015 | 39° | 15km/h | 22118m | 7.1m/s | -54.1°C | 3.9% | 0hPa | 2.5V | 00:00:00 | 01:21:33 | 00:00:00 | |
| OE5DRO-10 | 2026-09-01 00:24:14 | 45.81506 | 16.93012 | 36° | 16km/h | 22112m | 5.2m/s | -54.0°C | 3.8% | 0hPa | 2.5V | 00:00:00 | 00:00:00 | 00:00:00 | |
| PG1ADW-2 | 2026-09-01 00:24:12 | 45.81501 | 16.93005 | 45° | 16km/h | 22098m | 3.8m/s | -54.0°C | 3.8% | 0hPa | 2.5V | 00:00:00 | 00:00:00 | 00:00:00 | |
| PETON7-10 | 2026-09-01 00:24:02 | 45.81469 | 16.92994 | 6° | 16km/h | 22039m | 3.9m/s | -54.0°C | 3.8% | 0hPa | 2.5V | 00:00:00 | 00:00:00 | 00:00:00 | |
| 9A1FER-10 | 2026-09-01 00:24:00 | 45.81459 | 16.92992 | 9° | 16km/h | 22028m | 8.3m/s | -53.9°C | 3.8% | 0hPa | 2.7V | 00:00:00 | 01:21:18 | 00:00:00 | |
| OE5DRO-10 | 2026-09-01 00:23:55 | 45.81436 | 16.92983 | 11° | 15km/h | 21999m | 8.0m/s | -53.7°C | 3.7% | 0hPa | 2.7V | 00:00:00 | 00:00:00 | 00:00:00 | |
| PG1ADW-2 | 2026-09-01 00:23:52 | 45.81425 | 16.92984 | 346° | 13km/h | 21984m | 4.2m/s | -53.6°C | 3.6% | 0hPa | 2.7V | 00:00:00 | 01:21:10 | 00:00:00 | |
| OE5DXL-15 | 2026-09-01 00:23:51 | 45.81423 | 16.92984 | 352° | 15km/h | 21978m | 7.2m/s | -53.6°C | 3.6% | 0hPa | 2.7V | 00:00:00 | 00:00:00 | 08:30:00 | |
| PETON7-10 | 2026-09-01 00:23:47 | 45.81408 | 16.92979 | 31° | 13km/h | 21953m | 4.4m/s | -53.9°C | 3.6% | 0hPa | 2.7V | 00:00:00 | 00:00:00 | 00:00:00 | |
| 9A1FER-10 | 2026-09-01 00:23:45 | 45.81399 | 16.92973 | 22° | 13km/h | 21942m | 4.6m/s | -54.1°C | 3.7% | 0hPa | 2.7V | 00:00:00 | 01:21:03 | 00:00:00 | |
| OE5DRO-10 | 2026-09-01 00:23:36 | 45.81375 | 16.92976 | 268° | 13km/h | 21894m | 7.2m/s | -54.7°C | 3.9% | 0hPa | 2.7V | 00:00:00 | 00:00:00 | 00:00:00 | |
| 9A1FER-3 | 2026-09-01 00:23:34 | 45.81373 | 16.92977 | 18° | 13km/h | 21884m | 3.7m/s | -54.7°C | 3.9% | 0hPa | 2.7V | 00:00:00 | 01:20:52 | 00:00:00 | |
| PETON7-10 | 2026-09-01 00:23:32 | 45.81369 | 16.92974 | 25° | 13km/h | 21873m | 3.0m/s | -54.7°C | 4.0% | 0hPa | 2.7V | 00:00:00 | 01:20:50 | 00:00:00 | |
| 9A1FER-10 | 2026-09-01 00:23:30 | 45.81360 | 16.92971 | 6° | 13km/h | 21862m | 8.0m/s | -54.7°C | 3.9% | 0hPa | 2.7V | 00:00:00 | 01:20:48 | 08:30:00 | |
| OE5DXL-15 | 2026-09-01 00:23:21 | 45.81330 | 16.92982 | 350° | 11km/h | 21812m | 5.9m/s | -54.7°C | 3.9% | 0hPa | 2.7V | 00:00:00 | 00:00:00 | 00:00:00 | |
| 9A1FER-3 | 2026-09-01 00:23:19 | 45.81325 | 16.92981 | 16° | 13km/h | 21801m | 5.0m/s | -54.8°C | 3.9% | 0hPa | 2.7V | 00:00:00 | 01:20:37 | 00:00:00 | |
| PETON7-10 | 2026-09-01 00:23:17 | 45.81320 | 16.92977 | 32° | 11km/h | 21789m | 3.9m/s | -54.8°C | 4.0% | 0hPa | 2.7V | 00:00:00 | 00:00:00 | 08:30:00 | |
| 9A1FER-10 | 2026-09-01 00:23:15 | 45.81312 | 16.92973 | 15° | 11km/h | 21778m | 5.4m/s | -54.9°C | 4.0% | 0hPa | 2.7V | 00:00:00 | 01:20:33 | 00:00:00 | |
| PG1ADW-2 | 2026-09-01 00:23:12 | 45.81300 | 16.92970 | 359° | 9km/h | 21762m | 4.5m/s | -54.9°C | 4.0% | 0hPa | 2.7V | 00:00:00 | 00:00:00 | 00:00:00 | |
| 9A1FER-3 | 2026-09-01 00:23:04 | 45.81282 | 16.92981 | 13° | 9km/h | 21718m | 6.1m/s | -54.9°C | 4.0% | 0hPa | 2.7V | 00:00:00 | 01:20:22 | 00:00:00 | |
| PETON7-10 | 2026-09-01 00:23:01 | 45.81276 | 16.92978 | 13° | 9km/h | 21701m | 8.1m/s | -54.8°C | 4.0% | 0hPa | 2.5V | 00:00:00 | 00:00:00 | 00:00:00 | |
| 9A1FER-10 | 2026-09-01 00:23:00 | 45.81273 | 16.92977 | 360° | 9km/h | 21695m | 3.9m/s | -54.7°C | 4.0% | 0hPa | 2.5V | 00:00:00 | 01:20:18 | 00:00:00 | |
| OE5DRO-10 | 2026-09-01 00:22:58 | 45.81269 | 16.92978 | 342° | 7km/h | 21685m | 3.3m/s | -54.7°C | 4.0% | 0hPa | 2.5V | 00:00:00 | 00:00:00 | 00:00:00 | |
| PG1ADW-2 | 2026-09-01 00:22:52 | 45.81261 | 16.92994 | 281° | 7km/h | 21651m | 4.7m/s | -54.6°C | 3.9% | 0hPa | 2.5V | 00:00:00 | 00:00:00 | 00:00:00 | |
| OE5DXL-15 | 2026-09-01 00:22:51 | 45.81260 | 16.92998 | 287° | 7km/h | 21644m | 8.0m/s | -54.6°C | 3.8% | 0hPa | 2.5V | 00:00:00 | 00:00:00 | 00:00:00 | |
| 9A1FER-3 | 2026-09-01 00:22:49 | 45.81258 | 16.93004 | 296° | 5km/h | 21633m | 5.9m/s | -54.6°C | 3.9% | 0hPa | 2.5V | 00:00:00 | 01:20:07 | 00:00:00 | |
| PETON7-10 | 2026-09-01 00:22:46 | 45.81255 | 16.93010 | 318° | 5km/h | 21616m | 7.1m/s | -54.7°C | 3.9% | 0hPa | 2.5V | 00:00:00 | 01:20:04 | 00:00:00 | |
| 9A1FER-10 | 2026-09-01 00:22:45 | 45.81253 | 16.93012 | 321° | 5km/h | 21610m | 4.5m/s | -54.7°C | 3.9% | 0hPa | 2.5V | 00:00:00 | 01:20:03 | 00:00:00 | |
| 9A1FER-3 | 2026-09-01 00:22:34 | 45.81255 | 16.93028 | 204° | 11km/h | 21546m | 6.5m/s | -55.0°C | 4.0% | 0hPa | 2.7V | 00:00:00 | 01:19:52 | 00:00:00 | |
| PG1ADW-2 | 2026-09-01 00:22:32 | 45.81258 | 16.93029 | 198° | 13km/h | 21535m | 6.9m/s | -55.0°C | 3.9% | 0hPa | 2.7V | 00:00:00 | 01:19:50 | 00:00:00 | |
| PETON7-10 | 2026-09-01 00:22:31 | 45.81258 | 16.93030 | 183° | 13km/h | 21529m | 5.4m/s | -55.0°C | 4.0% | 0hPa | 2.7V | 00:00:00 | 00:00:00 | 00:00:00 | |
| 9A1FER-10 | 2026-09-01 00:22:30 | 45.81260 | 16.93029 | 157° | 13km/h | 21524m | 4.7m/s | -55.0°C | 3.9% | 0hPa | 2.5V | 00:00:00 | 01:19:48 | 00:00:00 | |
| OE5DRO-10 | 2026-09-01 00:22:20 | 45.81290 | 16.93021 | 174° | 16km/h | 21463m | 4.2m/s | -54.9°C | 3.9% | 0hPa | 2.5V | 00:00:00 | 00:00:00 | 00:00:00 | |
| 9A1FER-3 | 2026-09-01 00:22:19 | 45.81293 | 16.93020 | 167° | 16km/h | 21457m | 7.0m/s | -55.0°C | 3.9% | 0hPa | 2.7V | 00:00:00 | 01:19:37 | 00:00:00 | |
| PETON7-10 | 2026-09-01 00:22:16 | 45.81304 | 16.93012 | 143° | 18km/h | 21438m | 8.4m/s | -54.9°C | 3.9% | 0hPa | 2.5V | 00:00:00 | 00:00:00 | 00:00:00 | |
| 9A1FER-10 | 2026-09-01 00:22:15 | 45.81306 | 16.93008 | 125° | 18km/h | 21432m | 3.7m/s | -55.0°C | 3.9% | 0hPa | 2.5V | 00:00:00 | 01:19:33 | 00:00:00 | |
| PG1ADW-2 | 2026-09-01 00:22:12 | 45.81313 | 16.92993 | 122° | 20km/h | 21416m | 5.0m/s | -55.0°C | 3.9% | 0hPa | 2.5V | 00:00:00 | 00:00:00 | 00:00:00 | |
| PETON7-10 | 2026-09-01 00:22:01 | 45.81336 | 16.92925 | 106° | 20km/h | 21352m | 6.8m/s | -55.5°C | 4.1% | 0hPa | 2.5V | 00:00:00 | 01:19:19 | 00:00:00 | |
| 9A1FER-10 | 2026-09-01 00:22:00 | 45.81338 | 16.92916 | 111° | 20km/h | 21347m | 4.3m/s | -55.6°C | 4.0% | 0hPa | 2.5V | 00:00:00 | 01:19:18 | 00:00:00 | |
| PG1ADW-2 | 2026-09-01 00:21:52 | 45.81358 | 16.92856 | 110° | 15km/h | 21302m | 7.3m/s | -55.7°C | 4.2% | 0hPa | 2.7V | 00:00:00 | 00:00:00 | 00:00:00 | |
| PETON7-10 | 2026-09-01 00:21:46 | 45.81364 | 16.92822 | 97° | 13km/h | 21269m | 4.4m/s | -55.7°C | 4.1% | 0hPa | 2.7V | 00:00:00 | 00:00:00 | 00:00:00 | |
| 9A1FER-10 | 2026-09-01 00:21:45 | 45.81364 | 16.92817 | 103° | 13km/h | 21263m | 6.5m/s | -55.7°C | 4.1% | 0hPa | 2.5V | 00:00:00 | 01:19:03 | 00:00:00 | |
| OE5DRO-10 | 2026-09-01 00:21:42 | 45.81366 | 16.92799 | 89° | 13km/h | 21246m | 6.8m/s | -55.7°C | 4.2% | 0hPa | 2.5V | 00:00:00 | 00:00:00 | 00:00:00 | |
| 9A1FER-3 | 2026-09-01 00:21:38 | 45.81363 | 16.92776 | 60° | 13km/h | 21224m | 6.4m/s | -55.7°C | 4.2% | 0hPa | 2.5V | 00:00:00 | 01:18:56 | 00:00:00 | |
| PG1ADW-2 | 2026-09-01 00:21:32 | 45.81356 | 16.92762 | 79° | 13km/h | 21192m | 4.8m/s | -55.6°C | 4.1% | 0hPa | 2.5V | 00:00:00 | 00:00:00 | 08:30:00 | |
| PETON7-10 | 2026-09-01 00:21:30 | 45.81356 | 16.92752 | 101° | 13km/h | 21181m | 6.5m/s | -55.5°C | 4.1% | 0hPa | 2.7V | 00:00:00 | 00:00:00 | 00:00:00 | |
| OE5DXL-15 | 2026-09-01 00:21:29 | 45.81357 | 16.92747 | 101° | 13km/h | 21175m | 5.1m/s | -55.5°C | 4.0% | 0hPa | 2.7V | 00:00:00 | 00:00:00 | 00:00:00 | |
| OE5DRO-10 | 2026-09-01 00:21:23 | 45.81355 | 16.92716 | 66° | 9km/h | 21140m | 6.8m/s | -55.5°C | 4.1% | 0hPa | 2.7V | 00:00:00 | 00:00:00 | 00:00:00 | |
| PETON7-10 | 2026-09-01 00:21:18 | 45.81347 | 16.92689 | 90° | 11km/h | 21096m | 6.7m/s | -55.5°C | 4.0% | 0hPa | 2.5V | 00:00:00 | 01:18:33 | 00:00:00 | |
| PG1ADW-2 | 2026-09-01 00:21:15 | 45.81347 | 16.92678 | 81° | 11km/h | 21079m | 6.4m/s | -55.3°C | 4.0% | 0hPa | 2.5V | 00:00:00 | 01:18:30 | 00:00:00 | |
| 9A1FER-3 | 2026-09-01 00:21:08 | 45.81344 | 16.92665 | 75° | 13km/h | 21056m | 5.8m/s | -55.4°C | 4.0% | 0hPa | 2.5V | 00:00:00 | 01:18:26 | 08:30:00 | |
| OE5DRO-10 | 2026-09-01 00:21:04 | 45.81340 | 16.92652 | 84° | 11km/h | 21032m | 6.1m/s | -55.7°C | 4.1% | 0hPa | 2.5V | 00:00:00 | 00:00:00 | 00:00:00 | |
| PETON7-10 | 2026-09-01 00:21:00 | 45.81337 | 16.92630 | 78° | 9km/h | 21009m | 6.2m/s | -55.9°C | 4.1% | 0hPa | 2.5V | 00:00:00 | 00:00:00 | 08:30:00 | |
| OE5DXL-15 | 2026-09-01 00:20:59 | 45.81336 | 16.92624 | 83° | 9km/h | 21003m | 5.9m/s | -56.0°C | 4.1% | 0hPa | 2.5V | 00:00:00 | 00:00:00 | 00:00:00 | |
| 9A1FER-3 | 2026-09-01 00:20:53 | 45.81333 | 16.92600 | 94° | 7km/h | 20968m | 5.7m/s | -55.9°C | 4.2% | 0hPa | 2.5V | 00:00:00 | 01:18:11 | 00:00:00 | |
| PG1ADW-2 | 2026-09-01 00:20:52 | 45.81333 | 16.92598 | 89° | 9km/h | 20962m | 6.0m/s | -55.9°C | 4.2% | 0hPa | 2.5V | 00:00:00 | 00:00:00 | 00:00:00 | |
| 9A1FER-10 | 2026-09-01 00:20:45 | 45.81338 | 16.92582 | 140° | 9km/h | 20921m | 6.7m/s | -55.7°C | 4.1% | 0hPa | 2.5V | 00:00:00 | 01:18:03 | 00:00:00 | |
| 9A1FER-3 | 2026-09-01 00:20:38 | 45.81352 | 16.92582 | 177° | 13km/h | 20880m | 4.9m/s | -55.6°C | 4.2% | 0hPa | 2.5V | 00:00:00 | 01:17:56 | 00:00:00 | |
| PG1ADW-2 | 2026-09-01 00:20:33 | 45.81368 | 16.92574 | 186° | 11km/h | 20846m | 5.6m/s | -55.4°C | 4.1% | 0hPa | 2.5V | 00:00:00 | 00:00:00 | 00:00:00 | |
| PETON7-10 | 2026-09-01 00:20:30 | 45.81370 | 16.92574 | 189° | 11km/h | 20836m | 4.8m/s | -55.4°C | 4.0% | 0hPa | 2.6V | 00:00:00 | 01:17:48 | 00:00:00 | |
| OE5DXL-15 | 2026-09-01 00:20:29 | 45.81372 | 16.92575 | 195° | 9km/h | 20830m | 6.3m/s | -55.4°C | 4.1% | 0hPa | 2.6V | 00:00:00 | 00:00:00 | 00:00:00 | |
| OE5DRO-10 | 2026-09-01 00:20:26 | 45.81381 | 16.92577 | 186° | 9km/h | 20813m | 6.6m/s | -55.5°C | 4.1% | 0hPa | 2.7V | 00:00:00 | 00:00:00 | 08:30:00 | |
| 9A1FER-3 | 2026-09-01 00:20:23 | 45.81390 | 16.92581 | 209° | 9km/h | 20796m | 6.1m/s | -55.5°C | 4.0% | 0hPa | 2.5V | 00:00:00 | 01:17:41 | 00:00:00 | |
| PETON7-10 | 2026-09-01 00:20:15 | 45.81408 | 16.92585 | 137° | 9km/h | 20750m | 5.5m/s | -55.3°C | 4.0% | 0hPa | 2.7V | 00:00:00 | 00:00:00 | 00:00:00 | |
| PG1ADW-2 | 2026-09-01 00:20:12 | 45.81413 | 16.92578 | 130° | 9km/h | 20732m | 6.9m/s | -55.3°C | 4.0% | 0hPa | 2.5V | 00:00:00 | 00:00:00 | 00:00:00 | |
| 9A1FER-3 | 2026-09-01 00:20:08 | 45.81417 | 16.92576 | 195° | 9km/h | 20709m | 4.3m/s | -55.6°C | 4.0% | 0hPa | 2.5V | 00:00:00 | 01:17:26 | 00:00:00 | |
| OE5DRO-10 | 2026-09-01 00:20:07 | 45.81419 | 16.92576 | 167° | 11km/h | 20703m | 7.6m/s | -55.7°C | 4.1% | 0hPa | 2.5V | 00:00:00 | 00:00:00 | 00:00:00 | |
| PETON7-10 | 2026-09-01 00:20:00 | 45.81428 | 16.92557 | 96° | 15km/h | 20663m | 6.8m/s | -55.9°C | 4.2% | 0hPa | 2.5V | 00:00:00 | 00:00:00 | 00:00:00 | |
| OE5DXL-15 | 2026-09-01 00:19:59 | 45.81427 | 16.92554 | 78° | 20km/h | 20658m | 3.6m/s | -55.9°C | 4.1% | 0hPa | 2.5V | 00:00:00 | 00:00:00 | 00:00:00 | |
| 9A1FER-3 | 2026-09-01 00:19:53 | 45.81419 | 16.92532 | 72° | 20km/h | 20624m | 7.0m/s | -55.9°C | 4.1% | 0hPa | 2.5V | 00:00:00 | 01:17:11 | 00:00:00 | |
| PG1ADW-2 | 2026-09-01 00:19:52 | 45.81419 | 16.92528 | 81° | 22km/h | 20618m | 5.5m/s | -55.9°C | 4.1% | 0hPa | 2.5V | 00:00:00 | 01:17:10 | 00:00:00 | |
| OE5DRO-10 | 2026-09-01 00:19:48 | 45.81418 | 16.92509 | 80° | 24km/h | 20597m | 6.2m/s | -56.0°C | 4.2% | 0hPa | 2.5V | 00:00:00 | 00:00:00 | 00:00:00 | |
| PETON7-10 | 2026-09-01 00:19:45 | 45.81412 | 16.92486 | 61° | 24km/h | 20579m | 6.2m/s | -56.2°C | 4.3% | 0hPa | 2.5V | 00:00:00 | 01:17:03 | 00:00:00 | |
| 9A1FER-3 | 2026-09-01 00:19:38 | 45.81394 | 16.92430 | 74° | 22km/h | 20542m | 4.5m/s | -56.0°C | 4.2% | 0hPa | 2.5V | 00:00:00 | 01:16:56 | 00:00:00 | |
| PETON7-10 | 2026-09-01 00:19:30 | 45.81377 | 16.92364 | 63° | 18km/h | 20497m | 5.0m/s | -55.6°C | 4.2% | 0hPa | 2.5V | 00:00:00 | 00:00:00 | 00:00:00 | |
| OE5DRO-10 | 2026-09-01 00:19:29 | 45.81374 | 16.92356 | 61° | 18km/h | 20491m | 6.5m/s | -55.6°C | 4.1% | 0hPa | 2.5V | 00:00:00 | 00:00:00 | 00:00:00 | |
| 9A1FER-3 | 2026-09-01 00:19:23 | 45.81359 | 16.92323 | 52° | 16km/h | 20457m | 4.4m/s | -55.3°C | 4.1% | 0hPa | 2.6V | 00:00:00 | 01:16:41 | 00:00:00 | |
| PETON7-10 | 2026-09-01 00:19:15 | 45.81340 | 16.92278 | 47° | 13km/h | 20412m | 4.8m/s | -55.2°C | 4.1% | 0hPa | 2.6V | 00:00:00 | 00:00:00 | 00:00:00 | |
| PG1ADW-2 | 2026-09-01 00:19:12 | 45.81330 | 16.92267 | 29° | 13km/h | 20396m | 4.7m/s | -55.1°C | 4.1% | 0hPa | 2.6V | 00:00:00 | 00:00:00 | 00:00:00 | |
| OE5DRO-10 | 2026-09-01 00:19:10 | 45.81325 | 16.92263 | 39° | 13km/h | 20385m | 6.2m/s | -55.1°C | 4.0% | 0hPa | 2.6V | 00:00:00 | 00:00:00 | 00:00:00 | |
| 9A1FER-3 | 2026-09-01 00:19:08 | 45.81320 | 16.92257 | 32° | 13km/h | 20374m | 5.4m/s | -55.0°C | 4.0% | 0hPa | 2.6V | 00:00:00 | 01:16:26 | 00:00:00 | |
| 9A1FER-10 | 2026-09-01 00:19:00 | 45.81306 | 16.92229 | 70° | 11km/h | 20332m | 4.9m/s | -54.7°C | 4.0% | 0hPa | 2.6V | 00:00:00 | 01:16:18 | 08:30:00 | |
| PETON7-10 | 2026-09-01 00:18:59 | 45.81305 | 16.92225 | 70° | 11km/h | 20327m | 6.4m/s | -54.7°C | 3.9% | 0hPa | 2.6V | 00:00:00 | 01:16:17 | 00:00:00 | |
| 9A1FER-3 | 2026-09-01 00:18:53 | 45.81293 | 16.92204 | 46° | 11km/h | 20292m | 4.8m/s | -54.8°C | 4.0% | 0hPa | 2.6V | 00:00:00 | 01:16:11 | 08:30:00 | |
| PG1ADW-2 | 2026-09-01 00:18:52 | 45.81290 | 16.92201 | 42° | 11km/h | 20287m | 5.9m/s | -54.8°C | 4.0% | 0hPa | 2.5V | 00:00:00 | 00:00:00 | 00:00:00 | |
| OE5DRO-10 | 2026-09-01 00:18:51 | 45.81288 | 16.92198 | 48° | 11km/h | 20281m | 5.0m/s | -54.8°C | 4.0% | 0hPa | 2.5V | 00:00:00 | 00:00:00 | 00:00:00 | |
| 9A1FER-10 | 2026-09-01 00:18:45 | 45.81289 | 16.92179 | 113° | 9km/h | 20247m | 5.5m/s | -54.6°C | 3.9% | 0hPa | 2.5V | 00:00:00 | 01:16:03 | 00:00:00 | |
| PETON7-10 | 2026-09-01 00:18:43 | 45.81290 | 16.92172 | 92° | 7km/h | 20236m | 5.4m/s | -54.5°C | 3.9% | 0hPa | 2.5V | 00:00:00 | 00:00:00 | 08:30:00 | |
| 9A1FER-3 | 2026-09-01 00:18:38 | 45.81284 | 16.92155 | 48° | 7km/h | 20209m | 5.1m/s | -54.3°C | 3.8% | 0hPa | 2.7V | 00:00:00 | 01:15:56 | 00:00:00 | |
| OE5DRO-10 | 2026-09-01 00:18:32 | 45.81273 | 16.92139 | 54° | 7km/h | 20177m | 6.2m/s | -54.3°C | 3.9% | 0hPa | 2.7V | 00:00:00 | 00:00:00 | 00:00:00 | |
| OE5DXL-15 | 2026-09-01 00:18:29 | 45.81273 | 16.92137 | 91° | 13km/h | 20160m | 4.4m/s | -54.3°C | 3.9% | 0hPa | 2.7V | 00:00:00 | 00:00:00 | 00:00:00 | |
| PETON7-10 | 2026-09-01 00:18:27 | 45.81272 | 16.92138 | 327° | 9km/h | 20150m | 4.6m/s | -54.3°C | 3.9% | 0hPa | 2.7V | 00:00:00 | 00:00:00 | 00:00:00 | |
| 9A1FER-3 | 2026-09-01 00:18:23 | 45.81268 | 16.92134 | 57° | 13km/h | 20130m | 4.4m/s | -54.3°C | 3.9% | 0hPa | 2.7V | 00:00:00 | 01:15:41 | 00:00:00 | |
| 9A1FER-10 | 2026-09-01 00:18:15 | 45.81260 | 16.92112 | 49° | 18km/h | 20086m | 5.8m/s | -54.1°C | 3.9% | 0hPa | 2.7V | 00:00:00 | 01:15:33 | 00:00:00 | |
| OE5DRO-10 | 2026-09-01 00:18:13 | 45.81254 | 16.92103 | 39° | 22km/h | 20076m | 4.6m/s | -54.1°C | 3.8% | 0hPa | 2.6V | 00:00:00 | 00:00:00 | 00:00:00 | |
| PETON7-10 | 2026-09-01 00:18:12 | 45.81251 | 16.92099 | 33° | 20km/h | 20070m | 6.1m/s | -54.1°C | 3.8% | 0hPa | 2.6V | 00:00:00 | 01:15:30 | 00:00:00 | |
| 9A1FER-3 | 2026-09-01 00:18:08 | 45.81233 | 16.92084 | 35° | 24km/h | 20048m | 6.1m/s | -54.0°C | 3.7% | 0hPa | 2.6V | 00:00:00 | 01:15:26 | 00:00:00 | |
| 9A1FER-10 | 2026-09-01 00:18:00 | 45.81205 | 16.92047 | 51° | 29km/h | 20005m | 6.6m/s | -54.0°C | 3.7% | 0hPa | 2.7V | 00:00:00 | 01:15:18 | 00:00:00 | |
| OE5DXL-15 | 2026-09-01 00:17:59 | 45.81201 | 16.92040 | 51° | 31km/h | 19999m | 4.6m/s | -54.0°C | 3.7% | 0hPa | 2.7V | 00:00:00 | 00:00:00 | 00:00:00 | |
| PETON7-10 | 2026-09-01 00:17:57 | 45.81192 | 16.92026 | 47° | 31km/h | 19988m | 4.9m/s | -54.0°C | 3.8% | 0hPa | 2.7V | 00:00:00 | 00:00:00 | 00:00:00 | |
| OE5DRO-10 | 2026-09-01 00:17:54 | 45.81175 | 16.92004 | 37° | 33km/h | 19972m | 4.8m/s | -54.2°C | 3.9% | 0hPa | 2.6V | 00:00:00 | 00:00:00 | 00:00:00 | |
| 9A1FER-3 | 2026-09-01 00:17:53 | 45.81168 | 16.91997 | 35° | 33km/h | 19966m | 6.3m/s | -54.2°C | 3.9% | 0hPa | 2.6V | 00:00:00 | 01:15:11 | 00:00:00 | |
| PG1ADW-2 | 2026-09-01 00:17:52 | 45.81161 | 16.91990 | 32° | 31km/h | 19960m | 5.1m/s | -54.2°C | 3.9% | 0hPa | 2.6V | 00:00:00 | 00:00:00 | 00:00:00 | |
| 9A1FER-10 | 2026-09-01 00:17:45 | 45.81116 | 16.91948 | 40° | 31km/h | 19924m | 6.0m/s | -54.1°C | 3.8% | 0hPa | 2.6V | 00:00:00 | 01:15:03 | 00:00:00 | |
| PETON7-10 | 2026-09-01 00:17:42 | 45.81095 | 16.91928 | 28° | 31km/h | 19909m | 5.0m/s | -54.1°C | 3.8% | 0hPa | 2.6V | 00:00:00 | 00:00:00 | 00:00:00 | |
| 9A1FER-3 | 2026-09-01 00:17:38 | 45.81062 | 16.91909 | 14° | 29km/h | 19887m | 5.9m/s | -54.0°C | 3.7% | 0hPa | 2.6V | 00:00:00 | 01:14:56 | 00:00:00 | |
| OE5DRO-10 | 2026-09-01 00:17:35 | 45.81039 | 16.91901 | 18° | 26km/h | 19873m | 5.2m/s | -53.9°C | 3.7% | 0hPa | 2.6V | 00:00:00 | 00:00:00 | 08:30:00 | |
| PG1ADW-2 | 2026-09-01 00:17:32 | 45.81019 | 16.91891 | 22° | 24km/h | 19857m | 3.9m/s | -53.8°C | 3.7% | 0hPa | 2.6V | 00:00:00 | 00:00:00 | 00:00:00 | |
| 9A1FER-10 | 2026-09-01 00:17:30 | 45.81007 | 16.91882 | 32° | 26km/h | 19847m | 6.3m/s | -53.7°C | 3.6% | 0hPa | 2.6V | 00:00:00 | 01:14:48 | 00:00:00 | |
| OE5DXL-15 | 2026-09-01 00:17:29 | 45.81001 | 16.91877 | 32° | 22km/h | 19842m | 4.4m/s | -53.7°C | 3.6% | 0hPa | 2.7V | 00:00:00 | 00:00:00 | 00:00:00 | |
| PETON7-10 | 2026-09-01 00:17:27 | 45.80988 | 16.91868 | 21° | 24km/h | 19831m | 4.9m/s | -53.7°C | 3.6% | 0hPa | 2.7V | 00:00:00 | 01:14:45 | 00:00:00 | |
| 9A1FER-3 | 2026-09-01 00:17:23 | 45.80960 | 16.91857 | 8° | 22km/h | 19810m | 6.4m/s | -53.7°C | 3.5% | 0hPa | 2.7V | 00:00:00 | 01:14:41 | 00:00:00 | |
| OE5DRO-10 | 2026-09-01 00:17:16 | 45.80925 | 16.91838 | 46° | 18km/h | 19773m | 5.9m/s | -54.3°C | 3.6% | 0hPa | 2.6V | 00:00:00 | 00:00:00 | 00:00:00 | |
| 9A1FER-10 | 2026-09-01 00:17:15 | 45.80922 | 16.91833 | 39° | 18km/h | 19768m | 4.2m/s | -54.5°C | 3.6% | 0hPa | 2.6V | 00:00:00 | 01:14:33 | 00:00:00 | |
| PETON7-10 | 2026-09-01 00:17:12 | 45.80908 | 16.91824 | 12° | 18km/h | 19753m | 4.8m/s | -54.9°C | 3.7% | 0hPa | 2.6V | 00:00:00 | 00:00:00 | 00:00:00 | |
| 9A1FER-3 | 2026-09-01 00:17:08 | 45.80886 | 16.91823 | 354° | 16km/h | 19730m | 5.1m/s | -55.2°C | 3.9% | 0hPa | 2.6V | 00:00:00 | 01:14:26 | 00:00:00 | |
| 9A1FER-10 | 2026-09-01 00:17:00 | 45.80869 | 16.91794 | 81° | 18km/h | 19686m | 4.7m/s | -55.9°C | 4.0% | 0hPa | 2.6V | 00:00:00 | 01:14:18 | 00:00:00 | |
| OE5DXL-15 | 2026-09-01 00:16:59 | 45.80869 | 16.91788 | 77° | 20km/h | 19681m | 5.2m/s | -56.0°C | 4.0% | 0hPa | 2.6V | 00:00:00 | 00:00:00 | 00:00:00 | |
| PETON7-10 | 2026-09-01 00:16:57 | 45.80864 | 16.91779 | 37° | 16km/h | 19670m | 6.8m/s | -56.1°C | 4.1% | 0hPa | 2.6V | 00:00:00 | 00:00:00 | 00:00:00 | |
| 9A1FER-3 | 2026-09-01 00:16:53 | 45.80847 | 16.91775 | 3° | 18km/h | 19649m | 5.4m/s | -56.3°C | 4.1% | 0hPa | 2.6V | 00:00:00 | 01:14:11 | 00:00:00 | |
| PG1ADW-2 | 2026-09-01 00:16:52 | 45.80842 | 16.91774 | 14° | 18km/h | 19643m | 5.0m/s | -56.4°C | 4.2% | 0hPa | 2.6V | 00:00:00 | 00:00:00 | 00:00:00 | |
| 9A1FER-10 | 2026-09-01 00:16:45 | 45.80820 | 16.91745 | 40° | 20km/h | 19606m | 5.3m/s | -56.6°C | 4.2% | 0hPa | 2.6V | 00:00:00 | 01:14:03 | 08:30:00 | |
| OE5DRO-10 | 2026-09-01 00:16:39 | 45.80789 | 16.91730 | 19° | 22km/h | 19569m | 5.5m/s | -56.9°C | 4.4% | 0hPa | 2.6V | 00:00:00 | 00:00:00 | 00:00:00 | |
| 9A1FER-3 | 2026-09-01 00:16:38 | 45.80789 | 16.91730 | 19° | 22km/h | 19569m | 5.5m/s | -56.9°C | 4.4% | 0hPa | 2.6V | 00:00:00 | 01:13:56 | 08:30:00 | |
| PG1ADW-2 | 2026-09-01 00:16:32 | 45.80758 | 16.91713 | 10° | 20km/h | 19540m | 5.8m/s | -56.7°C | 4.4% | 0hPa | 2.6V | 00:00:00 | 00:00:00 | 00:00:00 | |
| 9A1FER-10 | 2026-09-01 00:16:30 | 45.80747 | 16.91712 | 358° | 22km/h | 19530m | 4.8m/s | -56.6°C | 4.4% | 0hPa | 2.6V | 00:00:00 | 01:13:48 | 00:00:00 | |
| OE5DXL-15 | 2026-09-01 00:16:29 | 45.80742 | 16.91712 | 353° | 20km/h | 19525m | 5.6m/s | -56.6°C | 4.4% | 0hPa | 2.6V | 00:00:00 | 00:00:00 | 00:00:00 | |
| PETON7-10 | 2026-09-01 00:16:27 | 45.80731 | 16.91714 | 2° | 22km/h | 19515m | 5.4m/s | -56.5°C | 4.4% | 0hPa | 2.6V | 00:00:00 | 00:00:00 | 08:30:00 | |
| 9A1FER-3 | 2026-09-01 00:16:23 | 45.80708 | 16.91710 | 4° | 20km/h | 19493m | 4.6m/s | -56.3°C | 4.3% | 0hPa | 2.6V | 00:00:00 | 01:13:41 | 00:00:00 | |
| OE5DRO-10 | 2026-09-01 00:16:19 | 45.80684 | 16.91711 | 347° | 20km/h | 19473m | 5.7m/s | -56.1°C | 4.2% | 0hPa | 2.6V | 00:00:00 | 00:00:00 | 00:00:00 | |
| 9A1FER-10 | 2026-09-01 00:16:15 | 45.80666 | 16.91718 | 358° | 20km/h | 19452m | 4.5m/s | -55.9°C | 4.2% | 0hPa | 2.6V | 00:00:00 | 01:13:33 | 00:00:00 | |
| PETON7-10 | 2026-09-01 00:16:12 | 45.80655 | 16.91718 | 15° | 20km/h | 19436m | 5.2m/s | -55.7°C | 4.1% | 0hPa | 2.6V | 00:00:00 | 00:00:00 | 00:00:00 | |
| 9A1FER-3 | 2026-09-01 00:16:08 | 45.80636 | 16.91712 | 358° | 22km/h | 19415m | 4.7m/s | -55.5°C | 4.1% | 0hPa | 2.6V | 00:00:00 | 01:13:26 | 00:00:00 | |
| 9A1FER-10 | 2026-09-01 00:16:00 | 45.80590 | 16.91724 | 7° | 20km/h | 19372m | 5.7m/s | -55.3°C | 4.0% | 0hPa | 2.6V | 00:00:00 | 01:13:18 | 00:00:00 | |
| OE5DXL-15 | 2026-09-01 00:15:59 | 45.80586 | 16.91723 | 13° | 18km/h | 19366m | 5.6m/s | 0°C | 0% | 0hPa | 2.6V | 00:00:00 | 00:00:00 | 00:00:00 | |
| PETON7-10 | 2026-09-01 00:15:57 | 45.80578 | 16.91719 | 24° | 20km/h | 19356m | 6.7m/s | -55.3°C | 4.0% | 0hPa | 2.6V | 00:00:00 | 01:13:15 | 00:00:00 | |
| 9A1FER-3 | 2026-09-01 00:15:53 | 45.80555 | 16.91712 | 360° | 20km/h | 19333m | 5.1m/s | -55.3°C | 3.9% | 0hPa | 2.6V | 00:00:00 | 01:13:11 | 00:00:00 | |
| PG1ADW-2 | 2026-09-01 00:15:52 | 45.80549 | 16.91712 | 1° | 18km/h | 19327m | 7.5m/s | -55.5°C | 4.0% | 0hPa | 2.6V | 00:00:00 | 01:13:10 | 00:00:00 | |
| 9A1FER-10 | 2026-09-01 00:15:45 | 45.80518 | 16.91701 | 36° | 18km/h | 19287m | 6.9m/s | -55.4°C | 3.9% | 0hPa | 2.6V | 00:00:00 | 01:13:03 | 00:00:00 | |
| PETON7-10 | 2026-09-01 00:15:42 | 45.80506 | 16.91686 | 57° | 16km/h | 19271m | 7.2m/s | -55.3°C | 3.9% | 0hPa | 2.6V | 00:00:00 | 00:00:00 | 00:00:00 | |
| OE5DRO-10 | 2026-09-01 00:15:41 | 45.80504 | 16.91679 | 60° | 15km/h | 19265m | 4.8m/s | -55.2°C | 3.9% | 0hPa | 2.6V | 00:00:00 | 00:00:00 | 00:00:00 | |
| 9A1FER-3 | 2026-09-01 00:15:38 | 45.80494 | 16.91663 | 39° | 15km/h | 19249m | 4.8m/s | -55.3°C | 3.9% | 0hPa | 2.6V | 00:00:00 | 01:12:56 | 00:00:00 | |
| PG1ADW-2 | 2026-09-01 00:15:32 | 45.80483 | 16.91638 | 99° | 13km/h | 19216m | 6.8m/s | -56.0°C | 4.1% | 0hPa | 2.6V | 00:00:00 | 00:00:00 | 08:30:00 | |
| 9A1FER-10 | 2026-09-01 00:15:30 | 45.80486 | 16.91626 | 109° | 13km/h | 19205m | 5.5m/s | -56.1°C | 4.1% | 0hPa | 2.7V | 00:00:00 | 01:12:48 | 00:00:00 | |
| OE5DXL-15 | 2026-09-01 00:15:29 | 45.80487 | 16.91620 | 104° | 15km/h | 19200m | 5.8m/s | 0°C | 0% | 0hPa | 2.7V | 00:00:00 | 00:00:00 | 00:00:00 | |
| PETON7-10 | 2026-09-01 00:15:27 | 45.80488 | 16.91610 | 100° | 13km/h | 19188m | 6.6m/s | -56.2°C | 4.2% | 0hPa | 2.7V | 00:00:00 | 00:00:00 | 00:00:00 | |
| 9A1FER-3 | 2026-09-01 00:15:23 | 45.80485 | 16.91596 | 45° | 11km/h | 19166m | 3.6m/s | -56.2°C | 4.3% | 0hPa | 2.7V | 00:00:00 | 01:12:41 | 00:00:00 | |
| OE5DRO-10 | 2026-09-01 00:15:22 | 45.80482 | 16.91592 | 52° | 15km/h | 19161m | 6.5m/s | -56.1°C | 4.3% | 0hPa | 2.7V | 00:00:00 | 00:00:00 | 00:00:00 | |
| 9A1FER-10 | 2026-09-01 00:15:15 | 45.80469 | 16.91565 | 59° | 15km/h | 19124m | 6.2m/s | -56.1°C | 4.2% | 0hPa | 2.7V | 00:00:00 | 01:12:33 | 00:00:00 | |
| PETON7-10 | 2026-09-01 00:15:12 | 45.80466 | 16.91558 | 67° | 15km/h | 19107m | 4.6m/s | -56.1°C | 4.3% | 0hPa | 2.6V | 00:00:00 | 01:12:30 | 00:00:00 | |
| 9A1FER-3 | 2026-09-01 00:15:08 | 45.80456 | 16.91549 | 27° | 16km/h | 19087m | 5.7m/s | -55.9°C | 4.1% | 0hPa | 2.6V | 00:00:00 | 01:12:26 | 00:00:00 | |
| OE5DRO-10 | 2026-09-01 00:15:03 | 45.80432 | 16.91534 | 31° | 16km/h | 19059m | 4.7m/s | -55.6°C | 4.1% | 0hPa | 2.6V | 00:00:00 | 00:00:00 | 00:00:00 | |
| 9A1FER-10 | 2026-09-01 00:15:00 | 45.80421 | 16.91525 | 24° | 16km/h | 19045m | 4.7m/s | -55.5°C | 4.0% | 0hPa | 2.6V | 00:00:00 | 01:12:18 | 00:00:00 | |
| OE5DXL-15 | 2026-09-01 00:14:59 | 45.80417 | 16.91523 | 27° | 18km/h | 19040m | 4.4m/s | 0°C | 0% | 0hPa | 2.6V | 00:00:00 | 01:12:17 | 00:00:00 | |
| 9A1FER-3 | 2026-09-01 00:14:53 | 45.80397 | 16.91509 | 32° | 16km/h | 19009m | 4.9m/s | -55.5°C | 4.0% | 0hPa | 2.6V | 00:00:00 | 01:12:11 | 00:00:00 | |
| PG1ADW-2 | 2026-09-01 00:14:52 | 45.80394 | 16.91506 | 25° | 16km/h | 19004m | 4.3m/s | -55.5°C | 4.0% | 0hPa | 2.6V | 00:00:00 | 00:00:00 | 00:00:00 | |
| PETON7-10 | 2026-09-01 00:14:46 | 45.80369 | 16.91495 | 13° | 13km/h | 18973m | 4.9m/s | -55.9°C | 4.1% | 0hPa | 2.6V | 00:00:00 | 00:00:00 | 00:00:00 | |
| 9A1FER-10 | 2026-09-01 00:14:45 | 45.80365 | 16.91494 | 20° | 15km/h | 18967m | 5.3m/s | -56.0°C | 4.1% | 0hPa | 2.6V | 00:00:00 | 01:12:03 | 00:00:00 | |
| OE5DRO-10 | 2026-09-01 00:14:44 | 45.80362 | 16.91491 | 30° | 13km/h | 18962m | 6.1m/s | -56.0°C | 4.0% | 0hPa | 2.6V | 00:00:00 | 00:00:00 | 08:30:00 | |
| 9A1FER-3 | 2026-09-01 00:14:38 | 45.80346 | 16.91466 | 66° | 13km/h | 18928m | 6.2m/s | -56.1°C | 4.0% | 0hPa | 2.7V | 00:00:00 | 01:11:56 | 00:00:00 | |
| PG1ADW-2 | 2026-09-01 00:14:32 | 45.80338 | 16.91441 | 61° | 16km/h | 18896m | 3.9m/s | -56.2°C | 4.0% | 0hPa | 2.7V | 00:00:00 | 01:11:50 | 00:00:00 | |
| PETON7-10 | 2026-09-01 00:14:31 | 45.80338 | 16.91438 | 78° | 9km/h | 18892m | 5.3m/s | -56.3°C | 4.0% | 0hPa | 2.7V | 00:00:00 | 00:00:00 | 00:00:00 | |
| 9A1FER-10 | 2026-09-01 00:14:30 | 45.80338 | 16.91435 | 97° | 16km/h | 18886m | 5.4m/s | -56.5°C | 4.1% | 0hPa | 2.7V | 00:00:00 | 01:11:48 | 08:30:00 | |
| OE5DRO-10 | 2026-09-01 00:14:25 | 45.80344 | 16.91415 | 106° | 20km/h | 18860m | 5.3m/s | -56.9°C | 4.2% | 0hPa | 2.6V | 00:00:00 | 00:00:00 | 00:00:00 | |
| 9A1FER-3 | 2026-09-01 00:14:23 | 45.80345 | 16.91403 | 96° | 20km/h | 18850m | 5.9m/s | -57.1°C | 4.3% | 0hPa | 2.6V | 00:00:00 | 01:11:41 | 08:30:00 | |
| 9A1FER-10 | 2026-09-01 00:14:15 | 45.80336 | 16.91347 | 80° | 24km/h | 18807m | 3.5m/s | -57.8°C | 4.6% | 0hPa | 2.6V | 00:00:00 | 01:11:33 | 00:00:00 | |
| PETON7-10 | 2026-09-01 00:14:12 | 45.80336 | 16.91326 | 102° | 26km/h | 18792m | 4.1m/s | -57.8°C | 4.6% | 0hPa | 2.6V | 00:00:00 | 01:11:30 | 00:00:00 | |
| 9A1FER-3 | 2026-09-01 00:14:08 | 45.80341 | 16.91294 | 97° | 27km/h | 18770m | 4.4m/s | -57.8°C | 4.6% | 0hPa | 2.6V | 00:00:00 | 01:11:26 | 00:00:00 | |
| OE5DRO-10 | 2026-09-01 00:14:06 | 45.80342 | 16.91277 | 88° | 27km/h | 18759m | 5.3m/s | -57.8°C | 4.6% | 0hPa | 2.6V | 00:00:00 | 00:00:00 | 00:00:00 | |
| 9A1FER-10 | 2026-09-01 00:14:00 | 45.80336 | 16.91221 | 87° | 29km/h | 18727m | 6.5m/s | -57.8°C | 4.5% | 0hPa | 2.6V | 00:00:00 | 01:11:18 | 00:00:00 | |
| PETON7-10 | 2026-09-01 00:13:57 | 45.80336 | 16.91189 | 93° | 29km/h | 18710m | 4.7m/s | -57.8°C | 4.5% | 0hPa | 2.6V | 00:00:00 | 00:00:00 | 08:30:00 | |
| 9A1FER-3 | 2026-09-01 00:13:53 | 45.80337 | 16.91147 | 93° | 31km/h | 18689m | 6.0m/s | -57.8°C | 4.4% | 0hPa | 2.7V | 00:00:00 | 01:11:11 | 00:00:00 | |
| PG1ADW-2 | 2026-09-01 00:13:52 | 45.80338 | 16.91137 | 91° | 31km/h | 18684m | 4.9m/s | 0°C | 0% | 0hPa | 2.7V | 00:00:00 | 00:00:00 | 00:00:00 | |
| OE5DRO-10 | 2026-09-01 00:13:47 | 45.80333 | 16.91088 | 77° | 33km/h | 18657m | 4.6m/s | -57.9°C | 4.4% | 0hPa | 2.7V | 00:00:00 | 00:00:00 | 00:00:00 | |
| OE3JTB-15 | 2026-09-01 00:13:46 | 45.80331 | 16.91077 | 76° | 33km/h | 18652m | 4.6m/s | -58.0°C | 4.4% | 0hPa | 2.6V | 00:00:00 | 01:11:04 | 00:00:00 | |
| 9A1FER-10 | 2026-09-01 00:13:45 | 45.80329 | 16.91066 | 74° | 33km/h | 18646m | 5.8m/s | -58.1°C | 4.5% | 0hPa | 2.6V | 00:00:00 | 01:11:03 | 00:00:00 | |
| PETON7-10 | 2026-09-01 00:13:42 | 45.80324 | 16.91031 | 86° | 33km/h | 18629m | 5.0m/s | -58.4°C | 4.6% | 0hPa | 2.6V | 00:00:00 | 00:00:00 | 00:00:00 | |
| 9A1FER-3 | 2026-09-01 00:13:38 | 45.80321 | 16.90984 | 84° | 31km/h | 18608m | 6.2m/s | -58.4°C | 4.7% | 0hPa | 2.6V | 00:00:00 | 01:10:56 | 00:00:00 | |
| PG1ADW-2 | 2026-09-01 00:13:32 | 45.80306 | 16.90918 | 74° | 29km/h | 18575m | 5.1m/s | 0°C | 0% | 0hPa | 2.6V | 00:00:00 | 00:00:00 | 00:00:00 | |
| 9A1FER-10 | 2026-09-01 00:13:30 | 45.80302 | 16.90896 | 76° | 31km/h | 18564m | 5.0m/s | -58.7°C | 4.8% | 0hPa | 2.6V | 00:00:00 | 01:10:48 | 00:00:00 | |
| OE5DRO-10 | 2026-09-01 00:13:28 | 45.80300 | 16.90875 | 88° | 31km/h | 18553m | 5.3m/s | -58.7°C | 4.8% | 0hPa | 2.6V | 00:00:00 | 00:00:00 | 00:00:00 | |
| 9A1FER-3 | 2026-09-01 00:13:23 | 45.80292 | 16.90822 | 68° | 33km/h | 18526m | 6.7m/s | -58.5°C | 4.8% | 0hPa | 2.6V | 00:00:00 | 01:10:41 | 00:00:00 | |
| PETON7-10 | 2026-09-01 00:13:15 | 45.80256 | 16.90743 | 55° | 29km/h | 18480m | 4.3m/s | -58.2°C | 4.7% | 0hPa | 2.6V | 00:00:00 | 01:10:33 | 00:00:00 | |
| OE3JTB-15 | 2026-09-01 00:13:14 | 45.80252 | 16.90734 | 56° | 29km/h | 18474m | 6.4m/s | -58.2°C | 4.7% | 0hPa | 2.6V | 00:00:00 | 00:00:00 | 00:00:00 | |
| OE5DRO-10 | 2026-09-01 00:13:09 | 45.80230 | 16.90684 | 57° | 27km/h | 18446m | 6.3m/s | -58.1°C | 4.7% | 0hPa | 2.6V | 00:00:00 | 00:00:00 | 00:00:00 | |
| 9A1FER-3 | 2026-09-01 00:13:08 | 45.80226 | 16.90675 | 55° | 27km/h | 18440m | 5.3m/s | -58.0°C | 4.7% | 0hPa | 2.6V | 00:00:00 | 01:10:26 | 00:00:00 | |
| 9A1FER-10 | 2026-09-01 00:13:00 | 45.80190 | 16.90610 | 54° | 26km/h | 18396m | 5.2m/s | -57.8°C | 4.7% | 0hPa | 2.6V | 00:00:00 | 01:10:18 | 00:00:00 | |
| PETON7-10 | 2026-09-01 00:12:59 | 45.80186 | 16.90602 | 54° | 26km/h | 18390m | 6.8m/s | -57.8°C | 4.7% | 0hPa | 2.6V | 00:00:00 | 00:00:00 | 00:00:00 | |
| 9A1FER-3 | 2026-09-01 00:12:53 | 45.80162 | 16.90557 | 54° | 26km/h | 18355m | 4.0m/s | -57.7°C | 4.7% | 0hPa | 2.6V | 00:00:00 | 01:10:11 | 00:00:00 | |
| OE5DRO-10 | 2026-09-01 00:12:50 | 45.80152 | 16.90533 | 66° | 26km/h | 18339m | 5.0m/s | -57.6°C | 4.6% | 0hPa | 2.6V | 00:00:00 | 00:00:00 | 00:00:00 | |
| 9A1FER-10 | 2026-09-01 00:12:45 | 45.80139 | 16.90491 | 66° | 26km/h | 18310m | 4.9m/s | -57.6°C | 4.5% | 0hPa | 2.6V | 00:00:00 | 01:10:03 | 00:00:00 | |
| 9A1FER-3 | 2026-09-01 00:12:38 | 45.80121 | 16.90434 | 71° | 29km/h | 18273m | 4.4m/s | -57.4°C | 4.5% | 0hPa | 2.6V | 00:00:00 | 01:09:56 | 00:00:00 | |
| OE5DRO-10 | 2026-09-01 00:12:31 | 45.80111 | 16.90366 | 81° | 31km/h | 18234m | 5.1m/s | -57.1°C | 4.5% | 0hPa | 2.6V | 00:00:00 | 00:00:00 | 00:00:00 | |
| 9A1FER-10 | 2026-09-01 00:12:30 | 45.80110 | 16.90356 | 79° | 31km/h | 18229m | 5.5m/s | -57.1°C | 4.5% | 0hPa | 2.6V | 00:00:00 | 01:09:48 | 00:00:00 | |
| OE3JTB-15 | 2026-09-01 00:12:27 | 45.80105 | 16.90323 | 80° | 31km/h | 18212m | 6.0m/s | -57.0°C | 4.5% | 0hPa | 2.6V | 00:00:00 | 00:00:00 | 00:00:00 | |
| 9A1FER-3 | 2026-09-01 00:12:23 | 45.80099 | 16.90273 | 79° | 31km/h | 18190m | 3.8m/s | -56.9°C | 4.5% | 0hPa | 2.6V | 00:00:00 | 01:09:41 | 00:00:00 | |
| 9A1FER-10 | 2026-09-01 00:12:15 | 45.80089 | 16.90187 | 79° | 31km/h | 18148m | 6.3m/s | -56.6°C | 4.4% | 0hPa | 2.6V | 00:00:00 | 01:09:33 | 08:30:00 | |
| OE5DRO-10 | 2026-09-01 00:12:12 | 45.80085 | 16.90154 | 83° | 31km/h | 18131m | 4.7m/s | -56.6°C | 4.4% | 0hPa | 2.6V | 00:00:00 | 00:00:00 | 00:00:00 | |
| PG1ADW-2 | 2026-09-01 00:12:11 | 45.80084 | 16.90142 | 80° | 31km/h | 18126m | 5.7m/s | 0°C | 0% | 0hPa | 2.6V | 00:00:00 | 00:00:00 | 00:00:00 | |
| 9A1FER-3 | 2026-09-01 00:12:08 | 45.80078 | 16.90108 | 78° | 31km/h | 18110m | 6.1m/s | -56.5°C | 4.4% | 0hPa | 2.6V | 00:00:00 | 01:09:26 | 08:30:00 | |
| 9A1FER-10 | 2026-09-01 00:12:00 | 45.80063 | 16.90022 | 75° | 31km/h | 18068m | 5.6m/s | -56.2°C | 4.3% | 0hPa | 2.6V | 00:00:00 | 01:09:18 | 00:00:00 | |
| OE3JTB-15 | 2026-09-01 00:11:58 | 45.80059 | 16.90002 | 77° | 35km/h | 18058m | 6.1m/s | -56.1°C | 4.2% | 0hPa | 2.6V | 00:00:00 | 01:09:16 | 00:00:00 | |
| 9A1FER-3 | 2026-09-01 00:11:53 | 45.80047 | 16.89950 | 74° | 33km/h | 18030m | 4.9m/s | -56.0°C | 4.2% | 0hPa | 2.6V | 00:00:00 | 01:09:11 | 00:00:00 | |
| PG1ADW-2 | 2026-09-01 00:11:50 | 45.80040 | 16.89917 | 71° | 37km/h | 18016m | 4.5m/s | 0°C | 0% | 0hPa | 2.6V | 00:00:00 | 00:00:00 | 00:00:00 | |
| 9A1FER-10 | 2026-09-01 00:11:45 | 45.80029 | 16.89860 | 72° | 37km/h | 17991m | 5.1m/s | -55.9°C | 4.2% | 0hPa | 2.6V | 00:00:00 | 01:09:03 | 00:00:00 | |
| 9A1FER-3 | 2026-09-01 00:11:38 | 45.80011 | 16.89782 | 74° | 38km/h | 17955m | 3.8m/s | -56.4°C | 4.3% | 0hPa | 2.6V | 00:00:00 | 01:08:56 | 00:00:00 | |
| OE5DRO-10 | 2026-09-01 00:11:34 | 45.80001 | 16.89731 | 77° | 37km/h | 17936m | 5.5m/s | -56.6°C | 4.4% | 0hPa | 2.6V | 00:00:00 | 00:00:00 | 00:00:00 | |
| 9A1FER-10 | 2026-09-01 00:11:30 | 45.79992 | 16.89670 | 74° | 37km/h | 17916m | 5.2m/s | -56.6°C | 4.4% | 0hPa | 2.6V | 00:00:00 | 01:08:48 | 00:00:00 | |
| OE3JTB-15 | 2026-09-01 00:11:29 | 45.79988 | 16.89656 | 69° | 29km/h | 17912m | 3.7m/s | -56.6°C | 4.4% | 0hPa | 2.6V | 00:00:00 | 00:00:00 | 00:00:00 | |
| 9A1FER-3 | 2026-09-01 00:11:23 | 45.79964 | 16.89585 | 68° | 31km/h | 17883m | 6.3m/s | -56.4°C | 4.2% | 0hPa | 2.6V | 00:00:00 | 01:08:41 | 00:00:00 | |
| 9A1FER-10 | 2026-09-01 00:11:15 | 45.79951 | 16.89488 | 76° | 27km/h | 17843m | 4.4m/s | -56.3°C | 4.3% | 0hPa | 2.7V | 00:00:00 | 01:08:33 | 00:00:00 | |
| 9A1FER-3 | 2026-09-01 00:11:08 | 45.79932 | 16.89426 | 68° | 22km/h | 17811m | 4.4m/s | -56.2°C | 4.3% | 0hPa | 2.7V | 00:00:00 | 01:08:26 | 00:00:00 | |
| 9A1FER-10 | 2026-09-01 00:11:00 | 45.79923 | 16.89353 | 80° | 18km/h | 17770m | 6.0m/s | -56.0°C | 4.3% | 0hPa | 2.7V | 00:00:00 | 01:08:18 | 00:00:00 | |
| OE3JTB-15 | 2026-09-01 00:10:59 | 45.79923 | 16.89346 | 79° | 18km/h | 17766m | 3.8m/s | -56.0°C | 4.3% | 0hPa | 2.7V | 00:00:00 | 00:00:00 | 00:00:00 | |
| OE5DRO-10 | 2026-09-01 00:10:56 | 45.79920 | 16.89327 | 85° | 18km/h | 17751m | 4.8m/s | -55.9°C | 4.3% | 0hPa | 2.7V | 00:00:00 | 00:00:00 | 00:00:00 | |
| 9A1FER-3 | 2026-09-01 00:10:53 | 45.79919 | 16.89308 | 82° | 18km/h | 17736m | 5.9m/s | -55.7°C | 4.2% | 0hPa | 2.6V | 00:00:00 | 01:08:11 | 00:00:00 | |
| 9A1FER-10 | 2026-09-01 00:10:45 | 45.79913 | 16.89260 | 96° | 20km/h | 17695m | 3.7m/s | -55.4°C | 4.2% | 0hPa | 2.6V | 00:00:00 | 01:08:03 | 00:00:00 | |
| PETON7-10 | 2026-09-01 00:10:40 | 45.79919 | 16.89223 | 97° | 24km/h | 17669m | 5.2m/s | -55.2°C | 4.1% | 0hPa | 2.6V | 00:00:00 | 00:00:00 | 00:00:00 | |
| 9A1FER-3 | 2026-09-01 00:10:38 | 45.79919 | 16.89210 | 81° | 24km/h | 17658m | 4.5m/s | -55.2°C | 4.0% | 0hPa | 2.6V | 00:00:00 | 01:07:56 | 00:00:00 | |
| OE5DRO-10 | 2026-09-01 00:10:37 | 45.79918 | 16.89204 | 71° | 24km/h | 17652m | 6.8m/s | -55.2°C | 4.1% | 0hPa | 2.6V | 00:00:00 | 00:00:00 | 00:00:00 | |
| 9A1FER-10 | 2026-09-01 00:10:30 | 45.79909 | 16.89158 | 96° | 27km/h | 17618m | 5.2m/s | -55.1°C | 4.0% | 0hPa | 2.6V | 00:00:00 | 01:07:48 | 00:00:00 | |
| PETON7-10 | 2026-09-01 00:10:23 | 45.79919 | 16.89087 | 97° | 31km/h | 17583m | 3.9m/s | -54.9°C | 3.9% | 0hPa | 2.6V | 00:00:00 | 01:07:41 | 00:00:00 | |
| OE5DRO-10 | 2026-09-01 00:10:18 | 45.79918 | 16.89045 | 81° | 31km/h | 17559m | 3.9m/s | -55.1°C | 4.0% | 0hPa | 2.6V | 00:00:00 | 00:00:00 | 00:00:00 | |
| 9A1FER-10 | 2026-09-01 00:10:15 | 45.79915 | 16.89015 | 87° | 33km/h | 17544m | 5.3m/s | -55.1°C | 4.0% | 0hPa | 2.6V | 00:00:00 | 01:07:33 | 00:00:00 | |
| PETON7-10 | 2026-09-01 00:10:08 | 45.79911 | 16.88930 | 87° | 35km/h | 17511m | 2.9m/s | -55.2°C | 4.0% | 0hPa | 2.6V | 00:00:00 | 00:00:00 | 00:00:00 | |
| OE3JTB-15 | 2026-09-01 00:10:01 | 45.79911 | 16.88853 | 90° | 44km/h | 17480m | 5.3m/s | -55.2°C | 3.9% | 0hPa | 2.7V | 00:00:00 | 00:00:00 | 08:30:00 | |
| 9A1FER-10 | 2026-09-01 00:10:00 | 45.79912 | 16.88840 | 92° | 40km/h | 17475m | 3.7m/s | -55.2°C | 4.0% | 0hPa | 2.6V | 00:00:00 | 01:07:18 | 08:30:00 | |
| OE5DRO-10 | 2026-09-01 00:09:59 | 45.79912 | 16.88827 | 94° | 42km/h | 17471m | 5.7m/s | -55.2°C | 4.0% | 0hPa | 2.6V | 00:00:00 | 00:00:00 | 00:00:00 | |
| 9A1FER-3 | 2026-09-01 00:09:53 | 45.79912 | 16.88742 | 91° | 44km/h | 17443m | 3.3m/s | -55.5°C | 4.0% | 0hPa | 2.6V | 00:00:00 | 01:07:11 | 08:30:00 | |
| 9A1FER-10 | 2026-09-01 00:09:45 | 45.79915 | 16.88619 | 87° | 46km/h | 17406m | 5.6m/s | -55.9°C | 4.2% | 0hPa | 2.7V | 00:00:00 | 01:07:03 | 00:00:00 | |
| OE5DRO-10 | 2026-09-01 00:09:40 | 45.79901 | 16.88543 | 70° | 46km/h | 17381m | 5.6m/s | -56.0°C | 4.3% | 0hPa | 2.7V | 00:00:00 | 00:00:00 | 00:00:00 | |
| 9A1FER-3 | 2026-09-01 00:09:39 | 45.79892 | 16.88510 | 70° | 46km/h | 17371m | 4.2m/s | -56.0°C | 4.3% | 0hPa | 2.7V | 00:00:00 | 01:06:56 | 00:00:00 | |
| PETON7-10 | 2026-09-01 00:09:38 | 45.79892 | 16.88510 | 70° | 47km/h | 17371m | 4.2m/s | -56.0°C | 4.3% | 0hPa | 2.7V | 00:00:00 | 01:06:56 | 00:00:00 | |
| OE3JTB-15 | 2026-09-01 00:09:32 | 45.79873 | 16.88410 | 83° | 46km/h | 17340m | 4.2m/s | -55.7°C | 4.2% | 0hPa | 2.7V | 00:00:00 | 00:00:00 | 00:00:00 | |
| 9A1FER-10 | 2026-09-01 00:09:30 | 45.79869 | 16.88378 | 80° | 44km/h | 17331m | 5.2m/s | -55.7°C | 4.2% | 0hPa | 2.7V | 00:00:00 | 01:06:48 | 00:00:00 | |
| 9A1FER-3 | 2026-09-01 00:09:23 | 45.79853 | 16.88271 | 80° | 42km/h | 17296m | 4.0m/s | -55.3°C | 4.1% | 0hPa | 2.7V | 00:00:00 | 01:06:41 | 00:00:00 | |
| PETON7-10 | 2026-09-01 00:09:22 | 45.79851 | 16.88255 | 79° | 42km/h | 17292m | 5.0m/s | -55.3°C | 4.1% | 0hPa | 2.7V | 00:00:00 | 00:00:00 | 08:30:00 | |
| OE5DRO-10 | 2026-09-01 00:09:21 | 45.79849 | 16.88240 | 78° | 40km/h | 17287m | 4.5m/s | -55.3°C | 4.1% | 0hPa | 2.6V | 00:00:00 | 00:00:00 | 00:00:00 | |
| 9A1FER-10 | 2026-09-01 00:09:15 | 45.79843 | 16.88149 | 88° | 40km/h | 17257m | 4.3m/s | -55.1°C | 4.0% | 0hPa | 2.6V | 00:00:00 | 01:06:33 | 00:00:00 | |
| 9A1FER-3 | 2026-09-01 00:09:08 | 45.79832 | 16.88049 | 79° | 38km/h | 17223m | 3.7m/s | -55.4°C | 4.1% | 0hPa | 2.6V | 00:00:00 | 01:06:26 | 00:00:00 | |
| PETON7-10 | 2026-09-01 00:09:07 | 45.79830 | 16.88035 | 77° | 38km/h | 17218m | 5.3m/s | -55.4°C | 4.1% | 0hPa | 2.7V | 00:00:00 | 00:00:00 | 00:00:00 | |
| OE5DRO-10 | 2026-09-01 00:09:02 | 45.79823 | 16.87964 | 93° | 38km/h | 17195m | 5.6m/s | -55.4°C | 4.1% | 0hPa | 2.7V | 00:00:00 | 00:00:00 | 08:30:00 | |
| 9A1FER-10 | 2026-09-01 00:09:00 | 45.79825 | 16.87939 | 98° | 38km/h | 17185m | 6.1m/s | -55.3°C | 4.1% | 0hPa | 2.6V | 00:00:00 | 01:06:18 | 00:00:00 | |
| 9A1FER-3 | 2026-09-01 00:08:53 | 45.79826 | 16.87847 | 84° | 40km/h | 17150m | 5.7m/s | -55.2°C | 4.1% | 0hPa | 2.6V | 00:00:00 | 01:06:11 | 00:00:00 | |
| PETON7-10 | 2026-09-01 00:08:52 | 45.79825 | 16.87833 | 87° | 42km/h | 17145m | 4.3m/s | -55.2°C | 4.1% | 0hPa | 2.6V | 00:00:00 | 01:06:10 | 00:00:00 | |
| 9A1FER-10 | 2026-09-01 00:08:45 | 45.79830 | 16.87730 | 95° | 42km/h | 17111m | 4.5m/s | -55.1°C | 4.0% | 0hPa | 2.6V | 00:00:00 | 01:06:03 | 00:00:00 | |
| OE5DRO-10 | 2026-09-01 00:08:43 | 45.79832 | 16.87699 | 94° | 42km/h | 17101m | 5.8m/s | -55.2°C | 4.0% | 0hPa | 2.6V | 00:00:00 | 00:00:00 | 00:00:00 | |
| 9A1FER-3 | 2026-09-01 00:08:38 | 45.79833 | 16.87625 | 90° | 44km/h | 17078m | 5.4m/s | -55.2°C | 4.0% | 0hPa | 2.6V | 00:00:00 | 01:05:56 | 00:00:00 | |
| PETON7-10 | 2026-09-01 00:08:33 | 45.79831 | 16.87546 | 87° | 47km/h | 17055m | 3.9m/s | -55.4°C | 4.0% | 0hPa | 2.6V | 00:00:00 | 00:00:00 | 00:00:00 | |
| 9A1FER-10 | 2026-09-01 00:08:30 | 45.79830 | 16.87500 | 91° | 47km/h | 17040m | 5.4m/s | -56.0°C | 4.3% | 0hPa | 2.6V | 00:00:00 | 01:05:48 | 00:00:00 | |
| OE5DRO-10 | 2026-09-01 00:08:24 | 45.79833 | 16.87403 | 91° | 49km/h | 17011m | 4.7m/s | -56.1°C | 4.3% | 0hPa | 2.6V | 00:00:00 | 00:00:00 | 00:00:00 | |
| 9A1FER-3 | 2026-09-01 00:08:23 | 45.79833 | 16.87384 | 91° | 49km/h | 17006m | 4.8m/s | -56.0°C | 4.3% | 0hPa | 2.6V | 00:00:00 | 01:05:41 | 00:00:00 | |
| PETON7-10 | 2026-09-01 00:08:18 | 45.79835 | 16.87290 | 93° | 47km/h | 16982m | 5.4m/s | -55.8°C | 4.3% | 0hPa | 2.6V | 00:00:00 | 00:00:00 | 00:00:00 | |
| 9A1FER-10 | 2026-09-01 00:08:15 | 45.79836 | 16.87237 | 93° | 46km/h | 16968m | 5.0m/s | -55.8°C | 4.3% | 0hPa | 2.6V | 00:00:00 | 01:05:33 | 00:00:00 | |
| OE3JTB-15 | 2026-09-01 00:08:13 | 45.79837 | 16.87201 | 94° | 46km/h | 16959m | 5.0m/s | -55.8°C | 4.2% | 0hPa | 2.6V | 00:00:00 | 01:05:31 | 00:00:00 | |
| 9A1FER-3 | 2026-09-01 00:08:08 | 45.79841 | 16.87116 | 90° | 46km/h | 16936m | 4.3m/s | -56.1°C | 4.3% | 0hPa | 2.6V | 00:00:00 | 01:05:26 | 00:00:00 | |
| OE5DRO-10 | 2026-09-01 00:08:05 | 45.79839 | 16.87068 | 84° | 46km/h | 16921m | 5.9m/s | -56.4°C | 4.3% | 0hPa | 2.6V | 00:00:00 | 00:00:00 | 00:00:00 | |
| PETON7-10 | 2026-09-01 00:08:02 | 45.79836 | 16.87019 | 84° | 46km/h | 16906m | 4.5m/s | -56.5°C | 4.4% | 0hPa | 2.7V | 00:00:00 | 01:05:20 | 00:00:00 | |
| 9A1FER-10 | 2026-09-01 00:08:00 | 45.79833 | 16.86987 | 83° | 46km/h | 16895m | 5.0m/s | -56.6°C | 4.4% | 0hPa | 2.7V | 00:00:00 | 01:05:18 | 00:00:00 | |
| 9A1FER-3 | 2026-09-01 00:07:53 | 45.79821 | 16.86874 | 76° | 47km/h | 16861m | 5.1m/s | -56.7°C | 4.4% | 0hPa | 2.7V | 00:00:00 | 01:05:11 | 00:00:00 | |
| PETON7-10 | 2026-09-01 00:07:47 | 45.79796 | 16.86779 | 71° | 49km/h | 16831m | 5.8m/s | -57.1°C | 4.6% | 0hPa | 2.7V | 00:00:00 | 00:00:00 | 00:00:00 | |
| OE5DRO-10 | 2026-09-01 00:07:46 | 45.79792 | 16.86763 | 75° | 49km/h | 16826m | 4.2m/s | -57.1°C | 4.6% | 0hPa | 2.6V | 00:00:00 | 00:00:00 | 00:00:00 | |
| 9A1FER-10 | 2026-09-01 00:07:45 | 45.79790 | 16.86747 | 77° | 49km/h | 16821m | 6.1m/s | -57.1°C | 4.6% | 0hPa | 2.6V | 00:00:00 | 01:05:03 | 08:30:00 | |
| OE3JTB-15 | 2026-09-01 00:07:43 | 45.79786 | 16.86715 | 83° | 49km/h | 16810m | 6.1m/s | -57.2°C | 4.7% | 0hPa | 2.6V | 00:00:00 | 00:00:00 | 00:00:00 | |
| 9A1FER-3 | 2026-09-01 00:07:38 | 45.79775 | 16.86626 | 78° | 49km/h | 16784m | 5.8m/s | -57.5°C | 4.8% | 0hPa | 2.6V | 00:00:00 | 01:04:56 | 08:30:00 | |
| PETON7-10 | 2026-09-01 00:07:32 | 45.79758 | 16.86518 | 82° | 49km/h | 16752m | 6.5m/s | -57.8°C | 4.8% | 0hPa | 2.6V | 00:00:00 | 00:00:00 | 00:00:00 | |
| 9A1FER-10 | 2026-09-01 00:07:30 | 45.79755 | 16.86485 | 83° | 49km/h | 16742m | 5.4m/s | -57.8°C | 4.7% | 0hPa | 2.6V | 00:00:00 | 01:04:48 | 00:00:00 | |
| OE5DRO-10 | 2026-09-01 00:07:27 | 45.79749 | 16.86433 | 75° | 51km/h | 16729m | 5.1m/s | -57.8°C | 4.9% | 0hPa | 2.6V | 00:00:00 | 00:00:00 | 00:00:00 | |
| 9A1FER-3 | 2026-09-01 00:07:23 | 45.79726 | 16.86368 | 60° | 51km/h | 16707m | 5.7m/s | -57.7°C | 4.9% | 0hPa | 2.6V | 00:00:00 | 01:04:41 | 00:00:00 | |
| PETON7-10 | 2026-09-01 00:07:17 | 45.79688 | 16.86276 | 63° | 51km/h | 16676m | 3.3m/s | -58.3°C | 5.0% | 0hPa | 2.6V | 00:00:00 | 01:04:35 | 00:00:00 | |
| 9A1FER-10 | 2026-09-01 00:07:15 | 45.79677 | 16.86244 | 66° | 51km/h | 16667m | 4.9m/s | -58.7°C | 5.0% | 0hPa | 2.6V | 00:00:00 | 01:04:33 | 00:00:00 | |
| OE3JTB-15 | 2026-09-01 00:07:14 | 45.79672 | 16.86228 | 69° | 49km/h | 16661m | 6.0m/s | -58.8°C | 5.1% | 0hPa | 2.6V | 00:00:00 | 00:00:00 | 00:00:00 | |
| 9A1FER-3 | 2026-09-01 00:07:08 | 45.79631 | 16.86126 | 48° | 49km/h | 16632m | 4.2m/s | -59.1°C | 5.3% | 0hPa | 2.6V | 00:00:00 | 01:04:26 | 00:00:00 | |
| PETON7-10 | 2026-09-01 00:07:02 | 45.79577 | 16.86047 | 55° | 49km/h | 16601m | 4.7m/s | -59.6°C | 5.8% | 0hPa | 2.6V | 00:00:00 | 00:00:00 | 08:30:00 | |
| 9A1FER-10 | 2026-09-01 00:07:00 | 45.79565 | 16.86021 | 61° | 49km/h | 16592m | 5.1m/s | -59.6°C | 5.8% | 0hPa | 2.7V | 00:00:00 | 01:04:18 | 00:00:00 | |
| 9A1FER-3 | 2026-09-01 00:06:53 | 45.79509 | 16.85927 | 42° | 49km/h | 16558m | 4.7m/s | -59.8°C | 5.9% | 0hPa | 2.7V | 00:00:00 | 01:04:11 | 00:00:00 | |
| OE5DRO-10 | 2026-09-01 00:06:49 | 45.79472 | 16.85875 | 51° | 47km/h | 16539m | 4.4m/s | -59.7°C | 5.9% | 0hPa | 2.6V | 00:00:00 | 00:00:00 | 00:00:00 | |
| PETON7-10 | 2026-09-01 00:06:46 | 45.79449 | 16.85834 | 53° | 46km/h | 16524m | 4.9m/s | -59.6°C | 5.8% | 0hPa | 2.6V | 00:00:00 | 00:00:00 | 00:00:00 | |
| 9A1FER-10 | 2026-09-01 00:06:45 | 45.79442 | 16.85821 | 55° | 46km/h | 16520m | 4.9m/s | -59.6°C | 5.8% | 0hPa | 2.6V | 00:00:00 | 01:04:03 | 00:00:00 | |
| OE3JTB-15 | 2026-09-01 00:06:41 | 45.79413 | 16.85765 | 55° | 68km/h | 16501m | 5.2m/s | -59.5°C | 5.8% | 0hPa | 2.6V | 00:00:00 | 01:03:59 | 00:00:00 | |
| 9A1FER-3 | 2026-09-01 00:06:38 | 45.79394 | 16.85722 | 57° | 44km/h | 16487m | 5.5m/s | -59.4°C | 5.8% | 0hPa | 2.6V | 00:00:00 | 01:03:56 | 00:00:00 | |
| PETON7-10 | 2026-09-01 00:06:31 | 45.79347 | 16.85631 | 57° | 44km/h | 16451m | 4.2m/s | -59.3°C | 6.0% | 0hPa | 2.6V | 00:00:00 | 01:03:49 | 00:00:00 | |
| 9A1FER-10 | 2026-09-01 00:06:30 | 45.79340 | 16.85617 | 59° | 44km/h | 16446m | 5.0m/s | -59.2°C | 6.0% | 0hPa | 2.6V | 00:00:00 | 01:03:48 | 00:00:00 | |
| 9A1FER-3 | 2026-09-01 00:06:23 | 45.79305 | 16.85525 | 64° | 42km/h | 16412m | 4.6m/s | -59.0°C | 5.8% | 0hPa | 2.6V | 00:00:00 | 01:03:41 | 00:00:00 | |
| PETON7-10 | 2026-09-01 00:06:16 | 45.79269 | 16.85425 | 70° | 38km/h | 16375m | 5.4m/s | -58.9°C | 5.7% | 0hPa | 2.6V | 00:00:00 | 00:00:00 | 00:00:00 | |
| 9A1FER-10 | 2026-09-01 00:06:15 | 45.79266 | 16.85412 | 72° | 40km/h | 16370m | 4.9m/s | -59.0°C | 5.7% | 0hPa | 2.6V | 00:00:00 | 01:03:33 | 00:00:00 | |
| OE5DRO-10 | 2026-09-01 00:06:11 | 45.79253 | 16.85360 | 69° | 42km/h | 16346m | 4.7m/s | -59.1°C | 5.8% | 0hPa | 2.6V | 00:00:00 | 00:00:00 | 08:30:00 | |
| 9A1FER-3 | 2026-09-01 00:06:08 | 45.79243 | 16.85319 | 73° | 42km/h | 16331m | 4.0m/s | -59.2°C | 5.9% | 0hPa | 2.7V | 00:00:00 | 01:03:26 | 00:00:00 | |
| PETON7-10 | 2026-09-01 00:06:01 | 45.79228 | 16.85222 | 76° | 44km/h | 16296m | 4.1m/s | -59.7°C | 6.3% | 0hPa | 2.7V | 00:00:00 | 00:00:00 | 00:00:00 | |
| 9A1FER-10 | 2026-09-01 00:06:00 | 45.79226 | 16.85207 | 77° | 46km/h | 16291m | 5.1m/s | -59.7°C | 6.2% | 0hPa | 2.7V | 00:00:00 | 01:03:18 | 00:00:00 | |
| 9A1FER-3 | 2026-09-01 00:05:53 | 45.79213 | 16.85099 | 85° | 55km/h | 16255m | 5.8m/s | -60.6°C | 6.5% | 0hPa | 2.7V | 00:00:00 | 01:03:11 | 00:00:00 | |
| OE5DRO-10 | 2026-09-01 00:05:52 | 45.79212 | 16.85083 | 82° | 57km/h | 16250m | 4.5m/s | -60.6°C | 6.5% | 0hPa | 2.7V | 00:00:00 | 00:00:00 | 00:00:00 | |
| PETON7-10 | 2026-09-01 00:05:47 | 45.79202 | 16.84983 | 82° | 60km/h | 16219m | 5.0m/s | -60.6°C | 6.7% | 0hPa | 2.7V | 00:00:00 | 01:03:04 | 00:00:00 | |
| 9A1FER-10 | 2026-09-01 00:05:46 | 45.79200 | 16.84963 | 86° | 60km/h | 16213m | 6.0m/s | -60.6°C | 6.7% | 0hPa | 2.7V | 00:00:00 | 01:03:03 | 00:00:00 | |
| 9A1FER-3 | 2026-09-01 00:05:39 | 45.79194 | 16.84802 | 86° | 64km/h | 16174m | 7.0m/s | -60.8°C | 6.9% | 0hPa | 2.7V | 00:00:00 | 01:02:56 | 00:00:00 | |
| OE5DRO-10 | 2026-09-01 00:05:34 | 45.79187 | 16.84696 | 83° | 69km/h | 16147m | 5.6m/s | -60.9°C | 6.8% | 0hPa | 2.7V | 00:00:00 | 00:00:00 | 00:00:00 | |
| PETON7-10 | 2026-09-01 00:05:31 | 45.79184 | 16.84656 | 88° | 71km/h | 16135m | 6.3m/s | -61.0°C | 6.9% | 0hPa | 2.7V | 00:00:00 | 00:00:00 | 00:00:00 | |
| 9A1FER-10 | 2026-09-01 00:05:30 | 45.79184 | 16.84634 | 91° | 71km/h | 16130m | 3.5m/s | -61.1°C | 7.0% | 0hPa | 2.7V | 00:00:00 | 01:02:48 | 08:30:00 | |
| 9A1FER-3 | 2026-09-01 00:05:23 | 45.79179 | 16.84451 | 87° | 71km/h | 16092m | 5.6m/s | -60.9°C | 7.1% | 0hPa | 2.7V | 00:00:00 | 01:02:41 | 08:30:00 | |
| PETON7-10 | 2026-09-01 00:05:17 | 45.79173 | 16.84268 | 89° | 68km/h | 16054m | 4.5m/s | -60.6°C | 7.0% | 0hPa | 2.6V | 00:00:00 | 00:00:00 | 00:00:00 | |
| 9A1FER-10 | 2026-09-01 00:05:16 | 45.79173 | 16.84243 | 87° | 68km/h | 16049m | 6.1m/s | -60.6°C | 7.0% | 0hPa | 2.6V | 00:00:00 | 01:02:33 | 00:00:00 | |
| OE5DRO-10 | 2026-09-01 00:05:14 | 45.79171 | 16.84218 | 85° | 66km/h | 16043m | 4.7m/s | -60.5°C | 7.0% | 0hPa | 2.6V | 00:00:00 | 00:00:00 | 00:00:00 | |
| 9A1FER-3 | 2026-09-01 00:05:08 | 45.79161 | 16.84062 | 85° | 64km/h | 16012m | 5.9m/s | -60.3°C | 6.8% | 0hPa | 2.6V | 00:00:00 | 01:02:26 | 00:00:00 | |
| 9A1FER-10 | 2026-09-01 00:05:01 | 45.79153 | 16.83881 | 85° | 64km/h | 15971m | 5.1m/s | -60.0°C | 6.9% | 0hPa | 2.6V | 00:00:00 | 01:02:18 | 00:00:00 | |
| OE5DRO-10 | 2026-09-01 00:04:55 | 45.79145 | 16.83762 | 83° | 58km/h | 15945m | 3.5m/s | -59.9°C | 6.7% | 0hPa | 2.6V | 00:00:00 | 00:00:00 | 00:00:00 | |
| 9A1FER-3 | 2026-09-01 00:04:54 | 45.79141 | 16.83714 | 87° | 58km/h | 15935m | 6.7m/s | -59.9°C | 6.7% | 0hPa | 2.6V | 00:00:00 | 01:02:11 | 00:00:00 | |
| PETON7-10 | 2026-09-01 00:04:49 | 45.79134 | 16.83561 | 85° | 55km/h | 15894m | 5.5m/s | -59.9°C | 6.7% | 0hPa | 2.6V | 00:00:00 | 00:00:00 | 08:30:00 | |
| 9A1FER-10 | 2026-09-01 00:04:47 | 45.79133 | 16.83540 | 84° | 53km/h | 15889m | 4.1m/s | -59.8°C | 6.6% | 0hPa | 2.7V | 00:00:00 | 01:02:03 | 00:00:00 | |
| 9A1FER-3 | 2026-09-01 00:04:38 | 45.79123 | 16.83402 | 87° | 47km/h | 15850m | 4.3m/s | -59.9°C | 6.7% | 0hPa | 2.7V | 00:00:00 | 01:01:56 | 00:00:00 | |
| OE5DRO-10 | 2026-09-01 00:04:37 | 45.79121 | 16.83363 | 84° | 46km/h | 15839m | 4.3m/s | -59.9°C | 6.7% | 0hPa | 2.7V | 00:00:00 | 00:00:00 | 00:00:00 | |
| 9A1FER-10 | 2026-09-01 00:04:32 | 45.79116 | 16.83256 | 87° | 46km/h | 15804m | 4.7m/s | -59.7°C | 6.7% | 0hPa | 2.7V | 00:00:00 | 01:01:48 | 00:00:00 | |
| 9A1FER-3 | 2026-09-01 00:04:23 | 45.79115 | 16.83147 | 94° | 49km/h | 15767m | 5.7m/s | -59.4°C | 6.4% | 0hPa | 2.7V | 00:00:00 | 01:01:41 | 00:00:00 | |
| OE5DRO-10 | 2026-09-01 00:04:17 | 45.79115 | 16.83046 | 90° | 51km/h | 15736m | 5.4m/s | -59.1°C | 6.3% | 0hPa | 2.7V | 00:00:00 | 00:00:00 | 00:00:00 | |
| 9A1FER-10 | 2026-09-01 00:04:16 | 45.79115 | 16.83006 | 89° | 49km/h | 15726m | 4.5m/s | -59.0°C | 6.3% | 0hPa | 2.7V | 00:00:00 | 01:01:33 | 00:00:00 | |
| 9A1FER-3 | 2026-09-01 00:04:08 | 45.79114 | 16.82879 | 90° | 51km/h | 15688m | 5.3m/s | -58.8°C | 6.2% | 0hPa | 2.7V | 00:00:00 | 01:01:26 | 00:00:00 | |
| PETON7-10 | 2026-09-01 00:04:01 | 45.79114 | 16.82758 | 92° | 55km/h | 15651m | 6.8m/s | -58.7°C | 6.2% | 0hPa | 2.7V | 00:00:00 | 00:00:00 | 00:00:00 | |
| 9A1FER-10 | 2026-09-01 00:04:00 | 45.79114 | 16.82739 | 93° | 57km/h | 15645m | 5.2m/s | -58.6°C | 6.3% | 0hPa | 2.6V | 00:00:00 | 01:01:18 | 00:00:00 | |
| OE5DRO-10 | 2026-09-01 00:03:59 | 45.79115 | 16.82699 | 88° | 60km/h | 15635m | 5.5m/s | -58.5°C | 6.2% | 0hPa | 2.7V | 00:00:00 | 00:00:00 | 00:00:00 | |
| PETON7-10 | 2026-09-01 00:03:50 | 45.79092 | 16.82460 | 82° | 64km/h | 15571m | 4.7m/s | -58.2°C | 6.0% | 0hPa | 2.7V | 00:00:00 | 00:00:00 | 00:00:00 | |
| OE5DRO-10 | 2026-09-01 00:03:44 | 45.79082 | 16.82292 | 88° | 66km/h | 15530m | 4.2m/s | -57.9°C | 5.8% | 0hPa | 2.7V | 00:00:00 | 00:00:00 | 00:00:00 | |
| 9A1FER-3 | 2026-09-01 00:03:43 | 45.79081 | 16.82269 | 87° | 66km/h | 15525m | 6.4m/s | -57.8°C | 5.7% | 0hPa | 2.7V | 00:00:00 | 01:00:56 | 00:00:00 | |
| 9A1FER-10 | 2026-09-01 00:03:40 | 45.79078 | 16.82088 | 89° | 69km/h | 15479m | 5.6m/s | -57.8°C | 5.8% | 0hPa | 2.7V | 00:00:00 | 01:00:48 | 00:00:00 | |
| 9A1FER-3 | 2026-09-01 00:03:36 | 45.79076 | 16.81908 | 90° | 71km/h | 15438m | 7.0m/s | -57.5°C | 5.7% | 0hPa | 2.7V | 00:00:00 | 01:00:41 | 00:00:00 | |
| OE5DRO-10 | 2026-09-01 00:03:34 | 45.79074 | 16.81836 | 87° | 77km/h | 15421m | 6.7m/s | -57.8°C | 5.8% | 0hPa | 2.7V | 00:00:00 | 00:00:00 | 08:30:00 | |
| 9A1FER-10 | 2026-09-01 00:03:33 | 45.79073 | 16.81715 | 90° | 80km/h | 15391m | 7.3m/s | -58.0°C | 5.7% | 0hPa | 2.6V | 00:00:00 | 01:00:33 | 08:30:00 | |
| PETON7-10 | 2026-09-01 00:03:22 | 45.79073 | 16.81307 | 92° | 89km/h | 15309m | 4.7m/s | -58.4°C | 6.2% | 0hPa | 2.6V | 00:00:00 | 00:00:00 | 00:00:00 | |
| 9A1FER-10 | 2026-09-01 00:03:21 | 45.79074 | 16.81275 | 92° | 91km/h | 15304m | 6.7m/s | -58.4°C | 6.2% | 0hPa | 2.6V | 00:00:00 | 01:00:18 | 00:00:00 | |
| 9A1FER-3 | 2026-09-01 00:03:14 | 45.79073 | 16.81051 | 90° | 93km/h | 15270m | 5.4m/s | -58.4°C | 6.1% | 0hPa | 2.6V | 00:00:00 | 01:00:11 | 00:00:00 | |
| PETON7-10 | 2026-09-01 00:03:07 | 45.79069 | 16.80818 | 85° | 91km/h | 15234m | 5.0m/s | -58.3°C | 6.1% | 0hPa | 2.6V | 00:00:00 | 01:00:04 | 00:00:00 | |
| 9A1FER-10 | 2026-09-01 00:03:03 | 45.79066 | 16.80784 | 84° | 91km/h | 15229m | 5.4m/s | -58.3°C | 6.2% | 0hPa | 2.6V | 00:00:00 | 01:00:03 | 00:00:00 | |
| OE5DRO-10 | 2026-09-01 00:02:59 | 45.79059 | 16.80682 | 85° | 91km/h | 15216m | 6.1m/s | -58.1°C | 6.2% | 0hPa | 2.6V | 00:00:00 | 00:00:00 | 00:00:00 | |
| 9A1FER-3 | 2026-09-01 00:02:49 | 45.79050 | 16.80549 | 84° | 91km/h | 15197m | 6.0m/s | -58.0°C | 6.0% | 0hPa | 2.6V | 00:00:00 | 00:59:56 | 00:00:00 | |
| PETON7-10 | 2026-09-01 00:02:44 | 45.79033 | 16.80323 | 85° | 93km/h | 15162m | 2.8m/s | -57.8°C | 6.1% | 0hPa | 2.6V | 00:00:00 | 00:00:00 | 08:30:00 | |
| 9A1FER-10 | 2026-09-01 00:02:43 | 45.79030 | 16.80288 | 84° | 93km/h | 15158m | 5.2m/s | -57.8°C | 6.0% | 0hPa | 2.7V | 00:00:00 | 00:59:48 | 00:00:00 | |
| 9A1FER-3 | 2026-09-01 00:02:30 | 45.79008 | 16.80054 | 84° | 91km/h | 15125m | 4.2m/s | -57.8°C | 6.1% | 0hPa | 2.7V | 00:00:00 | 00:59:41 | 00:00:00 | |
| PETON7-10 | 2026-09-01 00:02:20 | 45.78993 | 16.79825 | 84° | 89km/h | 15094m | 4.2m/s | -57.9°C | 6.2% | 0hPa | 2.6V | 00:00:00 | 00:00:00 | 00:00:00 | |
| 9A1FER-10 | 2026-09-01 00:02:18 | 45.78990 | 16.79792 | 83° | 89km/h | 15090m | 4.8m/s | -57.9°C | 6.3% | 0hPa | 2.6V | 00:00:00 | 00:59:33 | 00:00:00 | |
| 9A1FER-3 | 2026-09-01 00:02:08 | 45.78970 | 16.79565 | 82° | 89km/h | 15058m | 5.6m/s | -58.0°C | 6.6% | 0hPa | 2.6V | 00:00:00 | 00:59:26 | 00:00:00 | |
| OE5DRO-10 | 2026-09-01 00:02:04 | 45.78956 | 16.79439 | 82° | 89km/h | 15039m | 4.9m/s | -58.2°C | 6.6% | 0hPa | 2.6V | 00:00:00 | 00:00:00 | 00:00:00 | |
| 9A1FER-3 | 2026-09-01 00:01:51 | 45.78905 | 16.78613 | 92° | 91km/h | 14921m | 4.0m/s | -58.7°C | 6.7% | 0hPa | 2.6V | 00:00:00 | 00:58:56 | 00:00:00 | |
| PETON7-10 | 2026-09-01 00:01:41 | 45.78904 | 16.78387 | 89° | 93km/h | 14889m | 5.2m/s | -58.7°C | 6.7% | 0hPa | 2.6V | 00:00:00 | 00:00:00 | 00:00:00 | |
| 9A1FER-10 | 2026-09-01 00:01:40 | 45.78903 | 16.78353 | 88° | 93km/h | 14884m | 4.2m/s | -58.6°C | 6.7% | 0hPa | 2.6V | 00:00:00 | 00:58:48 | 00:00:00 | |
| OE5DRO-10 | 2026-09-01 00:01:37 | 45.78897 | 16.78216 | 86° | 95km/h | 14866m | 4.8m/s | -58.5°C | 6.7% | 0hPa | 2.6V | 00:00:00 | 00:00:00 | 00:00:00 | |
| 9A1FER-3 | 2026-09-01 00:01:31 | 45.78891 | 16.78115 | 85° | 95km/h | 14852m | 4.2m/s | -58.5°C | 6.8% | 0hPa | 2.7V | 00:00:00 | 00:58:41 | 00:00:00 | |
| 9A1FER-10 | 2026-09-01 00:01:20 | 45.78871 | 16.77846 | 84° | 95km/h | 14817m | 4.0m/s | -58.2°C | 6.7% | 0hPa | 2.7V | 00:00:00 | 00:58:33 | 00:00:00 | |
| OE3JTB-15 | 2026-09-01 00:01:14 | 45.78855 | 16.77676 | 82° | 93km/h | 14794m | 4.9m/s | -58.3°C | 6.9% | 0hPa | 2.7V | 00:00:00 | 00:00:00 | 00:00:00 | |
| 9A1FER-3 | 2026-09-01 00:01:11 | 45.78847 | 16.77607 | 83° | 93km/h | 14786m | 3.6m/s | -58.4°C | 6.9% | 0hPa | 2.7V | 00:00:00 | 00:58:26 | 00:00:00 | |
| OE5DRO-10 | 2026-09-01 00:01:10 | 45.78844 | 16.77573 | 84° | 93km/h | 14782m | 4.7m/s | -58.5°C | 7.1% | 0hPa | 2.7V | 00:00:00 | 00:00:00 | 00:00:00 | |
| 9A1FER-3 | 2026-09-01 00:00:59 | 45.78796 | 16.77107 | 81° | 91km/h | 14718m | 4.0m/s | -58.5°C | 7.1% | 0hPa | 2.7V | 00:00:00 | 00:58:11 | 08:30:00 | |
| OE5DRO-10 | 2026-09-01 00:00:52 | 45.78777 | 16.76941 | 82° | 89km/h | 14697m | 4.8m/s | -58.5°C | 7.1% | 0hPa | 2.7V | 00:00:00 | 00:00:00 | 00:00:00 | |
| 9A1FER-10 | 2026-09-01 00:00:47 | 45.78768 | 16.76844 | 84° | 89km/h | 14683m | 4.5m/s | -58.4°C | 7.1% | 0hPa | 2.7V | 00:00:00 | 00:58:03 | 00:00:00 | |
| OE3JTB-15 | 2026-09-01 00:00:42 | 45.78758 | 16.76715 | 84° | 88km/h | 14664m | 4.6m/s | -58.4°C | 6.9% | 0hPa | 2.7V | 00:00:00 | 00:00:00 | 00:00:00 | |
| PETON7-10 | 2026-09-01 00:00:41 | 45.78755 | 16.76682 | 84° | 86km/h | 14659m | 5.0m/s | -58.5°C | 7.0% | 0hPa | 2.7V | 00:00:00 | 00:00:00 | 00:00:00 | |
| 9A1FER-3 | 2026-09-01 00:00:39 | 45.78749 | 16.76617 | 84° | 86km/h | 14650m | 3.9m/s | -58.6°C | 7.1% | 0hPa | 2.7V | 00:00:00 | 00:57:56 | 00:00:00 | |
| 9A1FER-10 | 2026-09-01 00:00:31 | 45.78735 | 16.76362 | 86° | 86km/h | 14611m | 4.0m/s | -59.0°C | 7.6% | 0hPa | 2.7V | 00:00:00 | 00:57:48 | 00:00:00 | |
| OE5DRO-10 | 2026-09-01 00:00:30 | 45.78733 | 16.76332 | 86° | 88km/h | 14606m | 6.2m/s | -59.0°C | 7.5% | 0hPa | 2.7V | 00:00:00 | 00:00:00 | 08:30:00 | |
| 9A1FER-3 | 2026-09-01 00:00:27 | 45.78719 | 16.76150 | 86° | 89km/h | 14577m | 4.9m/s | -58.9°C | 7.6% | 0hPa | 2.7V | 00:00:00 | 00:57:41 | 00:00:00 | |
| PETON7-10 | 2026-09-01 00:00:26 | 45.78718 | 16.76120 | 86° | 89km/h | 14572m | 5.3m/s | -58.9°C | 7.6% | 0hPa | 2.7V | 00:00:00 | 00:57:40 | 00:00:00 | |
| 9A1FER-10 | 2026-09-01 00:00:21 | 45.78697 | 16.75898 | 81° | 91km/h | 14537m | 5.6m/s | -59.0°C | 7.9% | 0hPa | 2.7V | 00:00:00 | 00:57:33 | 00:00:00 | |
| OE3JTB-15 | 2026-09-01 00:00:18 | 45.78687 | 16.75798 | 85° | 93km/h | 14523m | 3.9m/s | -59.1°C | 8.1% | 0hPa | 2.7V | 00:00:00 | 00:57:30 | 00:00:00 | |
| OE5DRO-10 | 2026-09-01 00:00:12 | 45.78684 | 16.75731 | 89° | 93km/h | 14513m | 4.1m/s | -59.2°C | 8.1% | 0hPa | 2.7V | 00:00:00 | 00:00:00 | 00:00:00 | |
| 9A1FER-3 | 2026-09-01 00:00:09 | 45.78683 | 16.75666 | 90° | 93km/h | 14504m | 4.0m/s | -59.2°C | 8.1% | 0hPa | 2.7V | 00:00:00 | 00:57:26 | 00:00:00 | |
| PETON7-10 | 2026-09-01 00:00:07 | 45.78683 | 16.75633 | 90° | 93km/h | 14499m | 5.0m/s | -59.2°C | 8.1% | 0hPa | 2.7V | 00:00:00 | 00:00:00 | 08:30:00 | |
| 9A1FER-10 | 2026-09-01 00:00:00 | 45.78673 | 16.75405 | 86° | 95km/h | 14466m | 6.0m/s | -59.0°C | 8.3% | 0hPa | 2.7V | 00:00:00 | 00:57:18 | 00:00:00 | |
| 9A1FER-3 | 2026-08-31 23:59:53 | 45.78665 | 16.75164 | 90° | 97km/h | 14431m | 6.0m/s | -58.8°C | 8.4% | 0hPa | 2.7V | 00:00:00 | 00:57:11 | 00:00:00 | |
| OE5DRO-10 | 2026-08-31 23:59:51 | 45.78664 | 16.75093 | 89° | 97km/h | 14422m | 4.8m/s | -58.7°C | 8.3% | 0hPa | 2.7V | 00:00:00 | 00:00:00 | 00:00:00 | |
| PETON7-10 | 2026-08-31 23:59:48 | 45.78662 | 16.74989 | 88° | 99km/h | 14407m | 5.0m/s | -58.7°C | 8.4% | 0hPa | 2.7V | 00:00:00 | 00:00:00 | 00:00:00 | |
| 9A1FER-10 | 2026-08-31 23:59:45 | 45.78658 | 16.74886 | 87° | 100km/h | 14393m | 4.6m/s | -58.6°C | 8.3% | 0hPa | 2.7V | 00:00:00 | 00:57:03 | 00:00:00 | |
| OE3JTB-15 | 2026-08-31 23:59:43 | 45.78655 | 16.74815 | 89° | 111km/h | 14384m | 3.5m/s | -58.6°C | 8.2% | 0hPa | 2.7V | 00:00:00 | 00:00:00 | 08:30:00 | |
| 9A1FER-3 | 2026-08-31 23:59:38 | 45.78654 | 16.74636 | 91° | 104km/h | 14360m | 4.6m/s | -58.7°C | 8.2% | 0hPa | 2.7V | 00:00:00 | 00:56:56 | 00:00:00 | |
| PETON7-10 | 2026-08-31 23:59:33 | 45.78656 | 16.74454 | 91° | 106km/h | 14337m | 5.4m/s | -58.7°C | 8.4% | 0hPa | 2.7V | 00:00:00 | 00:56:51 | 00:00:00 | |
| OE5DRO-10 | 2026-08-31 23:59:32 | 45.78656 | 16.74417 | 91° | 110km/h | 14333m | 4.0m/s | -58.7°C | 8.5% | 0hPa | 2.7V | 00:00:00 | 00:00:00 | 00:00:00 | |
| 9A1FER-10 | 2026-08-31 23:59:30 | 45.78657 | 16.74341 | 92° | 108km/h | 14323m | 4.6m/s | -58.6°C | 8.5% | 0hPa | 2.7V | 00:00:00 | 00:56:48 | 00:00:00 | |
| 9A1FER-3 | 2026-08-31 23:59:23 | 45.78655 | 16.74069 | 89° | 111km/h | 14286m | 5.4m/s | -58.6°C | 8.3% | 0hPa | 2.7V | 00:00:00 | 00:56:41 | 00:00:00 | |
| PETON7-10 | 2026-08-31 23:59:18 | 45.78651 | 16.73875 | 88° | 113km/h | 14260m | 4.7m/s | -58.8°C | 8.5% | 0hPa | 2.7V | 00:00:00 | 00:00:00 | 00:00:00 | |
| 9A1FER-10 | 2026-08-31 23:59:15 | 45.78647 | 16.73755 | 87° | 113km/h | 14245m | 5.7m/s | -58.8°C | 8.6% | 0hPa | 2.7V | 00:00:00 | 00:56:33 | 00:00:00 | |
| OE5DRO-10 | 2026-08-31 23:59:13 | 45.78643 | 16.73672 | 86° | 115km/h | 14234m | 6.7m/s | -58.7°C | 8.6% | 0hPa | 2.7V | 00:00:00 | 00:00:00 | 00:00:00 | |
| 9A1FER-3 | 2026-08-31 23:59:08 | 45.78627 | 16.73462 | 84° | 113km/h | 14207m | 4.8m/s | -58.7°C | 9.0% | 0hPa | 2.7V | 00:00:00 | 00:56:26 | 00:00:00 | |
| PETON7-10 | 2026-08-31 23:59:03 | 45.78611 | 16.73263 | 86° | 113km/h | 14182m | 5.2m/s | -58.6°C | 9.1% | 0hPa | 2.7V | 00:00:00 | 00:00:00 | 00:00:00 | |
| 9A1FER-10 | 2026-08-31 23:59:00 | 45.78602 | 16.73143 | 83° | 115km/h | 14168m | 5.1m/s | -58.5°C | 9.1% | 0hPa | 2.7V | 00:00:00 | 00:56:18 | 00:00:00 | |
| OE5DRO-10 | 2026-08-31 23:58:54 | 45.78571 | 16.72892 | 80° | 111km/h | 14136m | 4.0m/s | -58.3°C | 9.2% | 0hPa | 2.7V | 00:00:00 | 00:00:00 | 00:00:00 | |
| 9A1FER-3 | 2026-08-31 23:58:53 | 45.78566 | 16.72852 | 80° | 113km/h | 14131m | 6.4m/s | -58.3°C | 9.2% | 0hPa | 2.7V | 00:00:00 | 00:56:11 | 00:00:00 | |
| PETON7-10 | 2026-08-31 23:58:48 | 45.78546 | 16.72653 | 83° | 111km/h | 14105m | 4.7m/s | -58.2°C | 9.3% | 0hPa | 2.7V | 00:00:00 | 00:56:06 | 00:00:00 | |
| 9A1FER-10 | 2026-08-31 23:58:45 | 45.78535 | 16.72530 | 83° | 111km/h | 14089m | 5.5m/s | -58.2°C | 9.5% | 0hPa | 2.7V | 00:00:00 | 00:56:03 | 08:30:00 | |
| 9A1FER-3 | 2026-08-31 23:58:38 | 45.78504 | 16.72250 | 81° | 111km/h | 14052m | 4.7m/s | -58.2°C | 10.0% | 0hPa | 2.7V | 00:00:00 | 00:55:56 | 08:30:00 | |
| OE5DRO-10 | 2026-08-31 23:58:35 | 45.78490 | 16.72132 | 81° | 115km/h | 14037m | 5.6m/s | -58.2°C | 10.3% | 0hPa | 2.7V | 00:00:00 | 00:00:00 | 00:00:00 | |
| PETON7-10 | 2026-08-31 23:58:33 | 45.78481 | 16.72053 | 82° | 115km/h | 14027m | 5.7m/s | -58.3°C | 10.5% | 0hPa | 2.7V | 00:00:00 | 00:00:00 | 00:00:00 | |
| 9A1FER-10 | 2026-08-31 23:58:30 | 45.78467 | 16.71932 | 82° | 117km/h | 14012m | 6.1m/s | -58.5°C | 10.6% | 0hPa | 2.7V | 00:00:00 | 00:55:48 | 00:00:00 | |
| 9A1FER-3 | 2026-08-31 23:58:23 | 45.78433 | 16.71649 | 79° | 120km/h | 13974m | 4.1m/s | -58.6°C | 10.5% | 0hPa | 2.7V | 00:00:00 | 00:55:41 | 00:00:00 | |
| PETON7-10 | 2026-08-31 23:58:18 | 45.78400 | 16.71440 | 77° | 120km/h | 13945m | 5.9m/s | -58.6°C | 10.6% | 0hPa | 2.7V | 00:00:00 | 00:00:00 | 00:00:00 | |
| 9A1FER-10 | 2026-08-31 23:58:15 | 45.78377 | 16.71312 | 75° | 120km/h | 13931m | 4.4m/s | -58.5°C | 10.6% | 0hPa | 2.7V | 00:00:00 | 00:55:33 | 00:00:00 | |
| 9A1FER-3 | 2026-08-31 23:58:08 | 45.78328 | 16.71016 | 79° | 119km/h | 13894m | 4.3m/s | -58.2°C | 10.4% | 0hPa | 2.7V | 00:00:00 | 00:55:26 | 00:00:00 | |
| PETON7-10 | 2026-08-31 23:58:00 | 45.78272 | 16.70679 | 77° | 115km/h | 13852m | 5.9m/s | -58.0°C | 10.0% | 0hPa | 2.7V | 00:00:00 | 00:55:18 | 00:00:00 | |
| OE3JTB-15 | 2026-08-31 23:57:59 | 45.78265 | 16.70637 | 77° | 111km/h | 13846m | 5.1m/s | -58.0°C | 10.1% | 0hPa | 2.7V | 00:00:00 | 00:55:17 | 00:00:00 | |
| 9A1FER-3 | 2026-08-31 23:57:53 | 45.78224 | 16.70392 | 77° | 113km/h | 13816m | 3.6m/s | -58.4°C | 10.4% | 0hPa | 2.7V | 00:00:00 | 00:55:11 | 00:00:00 | |
| PETON7-10 | 2026-08-31 23:57:45 | 45.78167 | 16.70076 | 75° | 111km/h | 13773m | 4.3m/s | -58.3°C | 9.9% | 0hPa | 2.7V | 00:00:00 | 00:00:00 | 08:30:00 | |
| 9A1FER-3 | 2026-08-31 23:57:38 | 45.78114 | 16.69795 | 74° | 108km/h | 13736m | 5.9m/s | -58.3°C | 9.9% | 0hPa | 2.7V | 00:00:00 | 00:54:56 | 00:00:00 | |
| 9A1FER-10 | 2026-08-31 23:57:30 | 45.78052 | 16.69497 | 76° | 110km/h | 13694m | 4.8m/s | -58.3°C | 11.0% | 0hPa | 2.7V | 00:00:00 | 00:54:48 | 00:00:00 | |
| OE3JTB-15 | 2026-08-31 23:57:28 | 45.78038 | 16.69421 | 77° | 111km/h | 13685m | 4.6m/s | -58.3°C | 11.3% | 0hPa | 2.7V | 00:00:00 | 00:00:00 | 00:00:00 | |
| 9A1FER-3 | 2026-08-31 23:57:23 | 45.78002 | 16.69230 | 74° | 111km/h | 13661m | 6.4m/s | -58.2°C | 11.3% | 0hPa | 2.7V | 00:00:00 | 00:54:41 | 00:00:00 | |
| PETON7-10 | 2026-08-31 23:57:15 | 45.77943 | 16.68923 | 77° | 115km/h | 13619m | 4.8m/s | -58.1°C | 11.8% | 0hPa | 2.7V | 00:00:00 | 00:54:33 | 00:00:00 | |
| 9A1FER-3 | 2026-08-31 23:57:08 | 45.77900 | 16.68642 | 79° | 115km/h | 13582m | 4.1m/s | -57.8°C | 12.6% | 0hPa | 2.7V | 00:00:00 | 00:54:26 | 00:00:00 | |
| PETON7-10 | 2026-08-31 23:57:00 | 45.77848 | 16.68320 | 78° | 115km/h | 13542m | 5.3m/s | -57.6°C | 13.3% | 0hPa | 2.7V | 00:00:00 | 00:00:00 | 00:00:00 | |
| 9A1FER-3 | 2026-08-31 23:56:53 | 45.77806 | 16.68031 | 78° | 119km/h | 13507m | 5.4m/s | -57.4°C | 13.8% | 0hPa | 2.7V | 00:00:00 | 00:54:11 | 00:00:00 | |
| PETON7-10 | 2026-08-31 23:56:45 | 45.77760 | 16.67703 | 80° | 122km/h | 13469m | 5.5m/s | -57.7°C | 14.8% | 0hPa | 2.7V | 00:00:00 | 00:00:00 | 00:00:00 | |
| OE3JTB-15 | 2026-08-31 23:56:41 | 45.77739 | 16.67532 | 81° | 126km/h | 13448m | 5.8m/s | -57.8°C | 15.1% | 0hPa | 2.7V | 00:00:00 | 00:00:00 | 00:00:00 | |
| 9A1FER-3 | 2026-08-31 23:56:38 | 45.77722 | 16.67397 | 81° | 126km/h | 13433m | 4.3m/s | -57.9°C | 15.3% | 0hPa | 2.7V | 00:00:00 | 00:53:56 | 00:00:00 | |
| 9A1FER-10 | 2026-08-31 23:56:30 | 45.77675 | 16.67043 | 80° | 128km/h | 13396m | 5.2m/s | -57.9°C | 15.2% | 0hPa | 2.7V | 00:00:00 | 00:53:48 | 08:30:00 | |
| PETON7-10 | 2026-08-31 23:56:26 | 45.77655 | 16.66864 | 82° | 130km/h | 13378m | 5.7m/s | -57.9°C | 15.3% | 0hPa | 2.7V | 00:00:00 | 00:53:44 | 00:00:00 | |
| 9A1FER-3 | 2026-08-31 23:56:23 | 45.77643 | 16.66727 | 84° | 131km/h | 13363m | 4.3m/s | -57.8°C | 15.3% | 0hPa | 2.7V | 00:00:00 | 00:53:41 | 08:30:00 | |
| 9A1FER-10 | 2026-08-31 23:56:15 | 45.77616 | 16.66352 | 84° | 133km/h | 13324m | 5.1m/s | -57.7°C | 15.4% | 0hPa | 2.7V | 00:00:00 | 00:53:33 | 00:00:00 | |
| OE3JTB-15 | 2026-08-31 23:56:12 | 45.77605 | 16.66212 | 85° | 133km/h | 13312m | 3.3m/s | -57.6°C | 15.5% | 0hPa | 2.7V | 00:00:00 | 00:53:30 | 00:00:00 | |
| PETON7-10 | 2026-08-31 23:56:11 | 45.77602 | 16.66164 | 85° | 133km/h | 13307m | 5.9m/s | -57.5°C | 15.5% | 0hPa | 2.7V | 00:00:00 | 00:00:00 | 00:00:00 | |
| 9A1FER-3 | 2026-08-31 23:56:08 | 45.77595 | 16.66020 | 88° | 133km/h | 13292m | 3.7m/s | -57.5°C | 15.5% | 0hPa | 2.7V | 00:00:00 | 00:53:26 | 00:00:00 | |
| 9A1FER-10 | 2026-08-31 23:56:00 | 45.77576 | 16.65636 | 85° | 137km/h | 13255m | 6.0m/s | -57.3°C | 15.4% | 0hPa | 2.7V | 00:00:00 | 00:53:18 | 00:00:00 | |
| PETON7-10 | 2026-08-31 23:55:56 | 45.77565 | 16.65442 | 86° | 139km/h | 13236m | 5.5m/s | -57.3°C | 15.7% | 0hPa | 2.7V | 00:00:00 | 00:00:00 | 00:00:00 | |
| 9A1FER-3 | 2026-08-31 23:55:53 | 45.77558 | 16.65297 | 87° | 141km/h | 13223m | 3.0m/s | -57.4°C | 16.2% | 0hPa | 2.7V | 00:00:00 | 00:53:11 | 00:00:00 | |
| 9A1FER-10 | 2026-08-31 23:55:45 | 45.77543 | 16.64893 | 86° | 142km/h | 13187m | 4.6m/s | -57.4°C | 16.8% | 0hPa | 2.7V | 00:00:00 | 00:53:03 | 00:00:00 | |
| 9A1FER-3 | 2026-08-31 23:55:38 | 45.77527 | 16.64538 | 88° | 144km/h | 13158m | 3.2m/s | -57.4°C | 16.2% | 0hPa | 2.7V | 00:00:00 | 00:52:56 | 00:00:00 | |
| PETON7-10 | 2026-08-31 23:55:32 | 45.77512 | 16.64232 | 86° | 146km/h | 13129m | 4.1m/s | -57.3°C | 16.5% | 0hPa | 2.7V | 00:00:00 | 00:52:50 | 00:00:00 | |
| 9A1FER-10 | 2026-08-31 23:55:30 | 45.77507 | 16.64123 | 87° | 146km/h | 13120m | 3.4m/s | -57.5°C | 17.1% | 0hPa | 2.7V | 00:00:00 | 00:52:48 | 00:00:00 | |
| 9A1FER-3 | 2026-08-31 23:55:23 | 45.77493 | 16.63755 | 87° | 146km/h | 13091m | 6.6m/s | -57.5°C | 16.3% | 0hPa | 2.7V | 00:00:00 | 00:52:41 | 00:00:00 | |
| PETON7-10 | 2026-08-31 23:55:17 | 45.77480 | 16.63442 | 87° | 146km/h | 13063m | 4.9m/s | -57.7°C | 16.3% | 0hPa | 2.7V | 00:00:00 | 00:00:00 | 08:30:00 | |
| 9A1FER-10 | 2026-08-31 23:55:15 | 45.77475 | 16.63337 | 86° | 146km/h | 13054m | 5.1m/s | -57.6°C | 16.2% | 0hPa | 2.7V | 00:00:00 | 00:52:33 | 00:00:00 | |
| 9A1FER-3 | 2026-08-31 23:55:08 | 45.77459 | 16.62965 | 88° | 148km/h | 13023m | 4.1m/s | -57.4°C | 16.0% | 0hPa | 2.7V | 00:00:00 | 00:52:26 | 00:00:00 | |
| PETON7-10 | 2026-08-31 23:55:02 | 45.77447 | 16.62649 | 87° | 148km/h | 12998m | 4.7m/s | -57.3°C | 16.2% | 0hPa | 2.7V | 00:00:00 | 00:00:00 | 00:00:00 | |
| 9A1FER-10 | 2026-08-31 23:55:00 | 45.77442 | 16.62544 | 86° | 150km/h | 12989m | 4.6m/s | -57.4°C | 16.7% | 0hPa | 2.7V | 00:00:00 | 00:52:18 | 00:00:00 | |
| 9A1FER-3 | 2026-08-31 23:54:53 | 45.77417 | 16.62169 | 84° | 151km/h | 12959m | 5.9m/s | -57.3°C | 17.3% | 0hPa | 2.7V | 00:00:00 | 00:52:11 | 00:00:00 | |
| PETON7-10 | 2026-08-31 23:54:47 | 45.77396 | 16.61846 | 86° | 153km/h | 12932m | 5.0m/s | -57.1°C | 17.6% | 0hPa | 2.7V | 00:00:00 | 00:52:05 | 00:00:00 | |
| 9A1FER-10 | 2026-08-31 23:54:45 | 45.77390 | 16.61736 | 85° | 153km/h | 12923m | 3.5m/s | -57.0°C | 18.0% | 0hPa | 2.7V | 00:00:00 | 00:52:03 | 00:00:00 | |
| 9A1FER-3 | 2026-08-31 23:54:38 | 45.77359 | 16.61349 | 84° | 153km/h | 12892m | 3.8m/s | -56.8°C | 18.4% | 0hPa | 2.7V | 00:00:00 | 00:51:56 | 00:00:00 | |
| 9A1FER-10 | 2026-08-31 23:54:30 | 45.77332 | 16.60913 | 87° | 155km/h | 12858m | 4.1m/s | -56.7°C | 18.1% | 0hPa | 2.7V | 00:00:00 | 00:51:48 | 00:00:00 | |
| 9A1FER-3 | 2026-08-31 23:54:23 | 45.77313 | 16.60525 | 85° | 157km/h | 12828m | 3.7m/s | -56.4°C | 18.0% | 0hPa | 2.7V | 00:00:00 | 00:51:41 | 00:00:00 | |
| PETON7-10 | 2026-08-31 23:54:17 | 45.77288 | 16.60186 | 84° | 157km/h | 12803m | 5.4m/s | -56.3°C | 17.6% | 0hPa | 2.7V | 00:00:00 | 00:00:00 | 00:00:00 | |
| 9A1FER-10 | 2026-08-31 23:54:15 | 45.77279 | 16.60073 | 84° | 157km/h | 12794m | 5.5m/s | -56.3°C | 17.8% | 0hPa | 2.7V | 00:00:00 | 00:51:33 | 08:30:00 | |
| OE3JTB-15 | 2026-08-31 23:54:09 | 45.77257 | 16.59734 | 86° | 157km/h | 12766m | 4.9m/s | -56.4°C | 17.5% | 0hPa | 2.7V | 00:00:00 | 00:00:00 | 00:00:00 | |
| 9A1FER-3 | 2026-08-31 23:54:08 | 45.77254 | 16.59678 | 85° | 159km/h | 12762m | 4.2m/s | -56.5°C | 17.7% | 0hPa | 2.7V | 00:00:00 | 00:51:26 | 08:30:00 | |
| PETON7-10 | 2026-08-31 23:54:02 | 45.77227 | 16.59338 | 83° | 157km/h | 12735m | 5.2m/s | -56.4°C | 17.5% | 0hPa | 2.7V | 00:00:00 | 00:51:20 | 00:00:00 | |
| 9A1FER-10 | 2026-08-31 23:54:00 | 45.77217 | 16.59222 | 83° | 157km/h | 12727m | 4.0m/s | -56.4°C | 17.8% | 0hPa | 2.7V | 00:00:00 | 00:51:18 | 00:00:00 | |
| 9A1FER-3 | 2026-08-31 23:53:53 | 45.77179 | 16.58824 | 84° | 157km/h | 12693m | 5.3m/s | -56.3°C | 18.1% | 0hPa | 2.7V | 00:00:00 | 00:51:11 | 00:00:00 | |
| PETON7-10 | 2026-08-31 23:53:47 | 45.77149 | 16.58492 | 82° | 159km/h | 12665m | 5.6m/s | -56.4°C | 18.3% | 0hPa | 2.7V | 00:00:00 | 00:00:00 | 00:00:00 | |
| 9A1FER-10 | 2026-08-31 23:53:45 | 45.77136 | 16.58379 | 82° | 159km/h | 12654m | 5.1m/s | -56.4°C | 18.9% | 0hPa | 2.7V | 00:00:00 | 00:51:03 | 00:00:00 | |
| 9A1FER-3 | 2026-08-31 23:53:38 | 45.77102 | 16.57975 | 85° | 159km/h | 12622m | 4.6m/s | -56.2°C | 19.5% | 0hPa | 2.7V | 00:00:00 | 00:50:56 | 00:00:00 | |
| PETON7-10 | 2026-08-31 23:53:32 | 45.77075 | 16.57634 | 84° | 159km/h | 12595m | 5.0m/s | -56.0°C | 19.6% | 0hPa | 2.7V | 00:00:00 | 00:00:00 | 00:00:00 | |
| 9A1FER-10 | 2026-08-31 23:53:30 | 45.77065 | 16.57522 | 84° | 159km/h | 12587m | 4.5m/s | -55.9°C | 19.5% | 0hPa | 2.7V | 00:00:00 | 00:50:48 | 00:00:00 | |
| 9A1FER-3 | 2026-08-31 23:53:23 | 45.77032 | 16.57121 | 84° | 159km/h | 12554m | 4.2m/s | -55.8°C | 19.5% | 0hPa | 2.7V | 00:00:00 | 00:50:41 | 00:00:00 | |
| PETON7-10 | 2026-08-31 23:53:17 | 45.77005 | 16.56781 | 84° | 159km/h | 12527m | 5.9m/s | -55.6°C | 19.4% | 0hPa | 2.7V | 00:00:00 | 00:50:35 | 00:00:00 | |
| 9A1FER-10 | 2026-08-31 23:53:15 | 45.76996 | 16.56666 | 85° | 159km/h | 12517m | 6.3m/s | -55.6°C | 19.4% | 0hPa | 2.7V | 00:00:00 | 00:50:33 | 00:00:00 | |
| 9A1FER-3 | 2026-08-31 23:53:08 | 45.76966 | 16.56266 | 84° | 159km/h | 12484m | 2.9m/s | -55.4°C | 20.1% | 0hPa | 2.7V | 00:00:00 | 00:50:26 | 00:00:00 | |
| PETON7-10 | 2026-08-31 23:53:01 | 45.76936 | 16.55865 | 84° | 159km/h | 12452m | 6.0m/s | -55.3°C | 20.2% | 0hPa | 2.7V | 00:00:00 | 00:00:00 | 08:30:00 | |
| 9A1FER-10 | 2026-08-31 23:53:00 | 45.76931 | 16.55806 | 84° | 159km/h | 12447m | 3.9m/s | -55.3°C | 20.3% | 0hPa | 2.7V | 00:00:00 | 00:50:18 | 00:00:00 | |
| 9A1FER-3 | 2026-08-31 23:52:54 | 45.76900 | 16.55414 | 84° | 161km/h | 12414m | 5.4m/s | -55.0°C | 19.9% | 0hPa | 2.7V | 00:00:00 | 00:50:11 | 00:00:00 | |
| PETON7-10 | 2026-08-31 23:52:46 | 45.76870 | 16.55007 | 84° | 159km/h | 12382m | 4.5m/s | -54.7°C | 19.7% | 0hPa | 2.7V | 00:00:00 | 00:00:00 | 00:00:00 | |
| 9A1FER-10 | 2026-08-31 23:52:45 | 45.76865 | 16.54950 | 84° | 159km/h | 12378m | 2.7m/s | -54.7°C | 19.8% | 0hPa | 2.7V | 00:00:00 | 00:50:03 | 00:00:00 | |
| 9A1FER-3 | 2026-08-31 23:52:38 | 45.76828 | 16.54552 | 83° | 161km/h | 12343m | 5.5m/s | -54.5°C | 20.0% | 0hPa | 2.7V | 00:00:00 | 00:49:56 | 00:00:00 | |
| PETON7-10 | 2026-08-31 23:52:31 | 45.76790 | 16.54151 | 83° | 161km/h | 12310m | 5.6m/s | 0°C | 0% | 0hPa | 2.7V | 00:00:00 | 00:49:49 | 00:00:00 | |
| 9A1FER-10 | 2026-08-31 23:52:30 | 45.76784 | 16.54093 | 83° | 161km/h | 12304m | 4.5m/s | -54.6°C | 20.9% | 0hPa | 2.7V | 00:00:00 | 00:49:48 | 00:00:00 | |
| 9A1FER-3 | 2026-08-31 23:52:23 | 45.76745 | 16.53692 | 82° | 161km/h | 12271m | 6.0m/s | -54.5°C | 21.8% | 0hPa | 2.7V | 00:00:00 | 00:49:41 | 00:00:00 | |
| PETON7-10 | 2026-08-31 23:52:16 | 45.76710 | 16.53291 | 83° | 164km/h | 12237m | 6.4m/s | 0°C | 0% | 0hPa | 2.7V | 00:00:00 | 00:00:00 | 00:00:00 | |
| 9A1FER-10 | 2026-08-31 23:52:15 | 45.76705 | 16.53233 | 84° | 164km/h | 12233m | 3.8m/s | -54.6°C | 22.7% | 0hPa | 2.7V | 00:00:00 | 00:49:33 | 00:00:00 | |
| 9A1FER-3 | 2026-08-31 23:52:08 | 45.76676 | 16.52821 | 86° | 164km/h | 12198m | 4.4m/s | -54.5°C | 23.0% | 0hPa | 2.7V | 00:00:00 | 00:49:26 | 00:00:00 | |
| PETON7-10 | 2026-08-31 23:52:01 | 45.76653 | 16.52400 | 85° | 162km/h | 12165m | 5.1m/s | 0°C | 0% | 0hPa | 2.7V | 00:00:00 | 00:00:00 | 00:00:00 | |
| 9A1FER-10 | 2026-08-31 23:52:00 | 45.76649 | 16.52341 | 85° | 162km/h | 12160m | 4.8m/s | -54.3°C | 23.6% | 0hPa | 2.7V | 00:00:00 | 00:49:18 | 08:30:00 | |
| 9A1FER-3 | 2026-08-31 23:51:53 | 45.76629 | 16.51930 | 87° | 162km/h | 12126m | 4.1m/s | -54.3°C | 24.4% | 0hPa | 2.7V | 00:00:00 | 00:49:11 | 08:30:00 | |
| PETON7-10 | 2026-08-31 23:51:46 | 45.76610 | 16.51518 | 85° | 162km/h | 12094m | 5.9m/s | 0°C | 0% | 0hPa | 2.7V | 00:00:00 | 00:49:04 | 00:00:00 | |
| 9A1FER-10 | 2026-08-31 23:51:45 | 45.76606 | 16.51458 | 86° | 162km/h | 12089m | 4.1m/s | -54.0°C | 24.5% | 0hPa | 2.7V | 00:00:00 | 00:49:03 | 00:00:00 | |
| 9A1FER-3 | 2026-08-31 23:51:38 | 45.76586 | 16.51048 | 86° | 162km/h | 12057m | 4.7m/s | -54.1°C | 25.3% | 0hPa | 2.7V | 00:00:00 | 00:48:56 | 00:00:00 | |
| PETON7-10 | 2026-08-31 23:51:31 | 45.76560 | 16.50644 | 85° | 164km/h | 12023m | 4.4m/s | 0°C | 0% | 0hPa | 2.7V | 00:00:00 | 00:00:00 | 00:00:00 | |
| 9A1FER-10 | 2026-08-31 23:51:30 | 45.76556 | 16.50585 | 85° | 164km/h | 12018m | 4.8m/s | -54.1°C | 25.9% | 0hPa | 2.7V | 00:00:00 | 00:48:48 | 00:00:00 | |
| 9A1FER-3 | 2026-08-31 23:51:23 | 45.76532 | 16.50167 | 85° | 162km/h | 11987m | 3.5m/s | -54.2°C | 26.0% | 0hPa | 2.7V | 00:00:00 | 00:48:41 | 00:00:00 | |
| PETON7-10 | 2026-08-31 23:51:16 | 45.76502 | 16.49756 | 84° | 161km/h | 11956m | 3.5m/s | 0°C | 0% | 0hPa | 2.7V | 00:00:00 | 00:00:00 | 00:00:00 | |
| 9A1FER-10 | 2026-08-31 23:51:15 | 45.76497 | 16.49697 | 85° | 164km/h | 11952m | 5.3m/s | -53.9°C | 25.8% | 0hPa | 2.7V | 00:00:00 | 00:48:33 | 00:00:00 | |
| 9A1FER-3 | 2026-08-31 23:51:08 | 45.76465 | 16.49287 | 84° | 162km/h | 11920m | 3.6m/s | -53.7°C | 25.6% | 0hPa | 2.7V | 00:00:00 | 00:48:26 | 00:00:00 | |
| 9A1FER-10 | 2026-08-31 23:51:00 | 45.76428 | 16.48816 | 83° | 162km/h | 11881m | 4.8m/s | -53.4°C | 25.2% | 0hPa | 2.7V | 00:00:00 | 00:48:18 | 00:00:00 | |
| PETON7-10 | 2026-08-31 23:50:56 | 45.76409 | 16.48586 | 84° | 161km/h | 11865m | 5.0m/s | 0°C | 0% | 0hPa | 2.7V | 00:00:00 | 00:48:14 | 00:00:00 | |
| 9A1FER-3 | 2026-08-31 23:50:53 | 45.76396 | 16.48412 | 85° | 162km/h | 11851m | 2.9m/s | -53.2°C | 25.2% | 0hPa | 2.7V | 00:00:00 | 00:48:11 | 00:00:00 | |
| 9A1FER-10 | 2026-08-31 23:50:45 | 45.76355 | 16.47945 | 83° | 161km/h | 11815m | 4.2m/s | -52.9°C | 26.5% | 0hPa | 2.7V | 00:00:00 | 00:48:03 | 00:00:00 | |
| PETON7-10 | 2026-08-31 23:50:41 | 45.76334 | 16.47714 | 84° | 159km/h | 11797m | 5.7m/s | 0°C | 0% | 0hPa | 2.7V | 00:00:00 | 00:00:00 | 00:00:00 | |
| 9A1FER-3 | 2026-08-31 23:50:38 | 45.76322 | 16.47542 | 85° | 161km/h | 11782m | 6.0m/s | -52.9°C | 26.8% | 0hPa | 2.7V | 00:00:00 | 00:47:56 | 00:00:00 | |
| 9A1FER-10 | 2026-08-31 23:50:37 | 45.76273 | 16.47077 | 80° | 159km/h | 11745m | 5.9m/s | -52.8°C | 28.0% | 0hPa | 2.7V | 00:00:00 | 00:47:48 | 00:00:00 | |
| OE3JTB-15 | 2026-08-31 23:50:35 | 45.76242 | 16.46794 | 83° | 153km/h | 11721m | 3.8m/s | -52.7°C | 29.4% | 0hPa | 2.7V | 00:00:00 | 00:00:00 | 00:00:00 | |
| 9A1FER-3 | 2026-08-31 23:50:33 | 45.76232 | 16.46682 | 83° | 157km/h | 11712m | 4.0m/s | -52.7°C | 29.5% | 0hPa | 2.7V | 00:00:00 | 00:47:41 | 00:00:00 | |
| 9A1FER-10 | 2026-08-31 23:50:15 | 45.76190 | 16.46230 | 82° | 155km/h | 11672m | 5.1m/s | -52.6°C | 29.2% | 0hPa | 2.7V | 00:00:00 | 00:47:33 | 00:00:00 | |
| 9A1FER-3 | 2026-08-31 23:50:08 | 45.76160 | 16.45841 | 86° | 157km/h | 11638m | 5.6m/s | -52.4°C | 30.1% | 0hPa | 2.7V | 00:00:00 | 00:47:26 | 00:00:00 | |
| 9A1FER-10 | 2026-08-31 23:50:00 | 45.76132 | 16.45394 | 84° | 157km/h | 11596m | 4.9m/s | -52.1°C | 30.9% | 0hPa | 2.7V | 00:00:00 | 00:47:18 | 00:00:00 | |
| 9A1FER-3 | 2026-08-31 23:49:53 | 45.76100 | 16.44997 | 83° | 151km/h | 11558m | 2.7m/s | -52.1°C | 32.9% | 0hPa | 2.7V | 00:00:00 | 00:47:11 | 00:00:00 | |
| 9A1FER-10 | 2026-08-31 23:49:45 | 45.76067 | 16.44552 | 85° | 150km/h | 11509m | 4.2m/s | -51.8°C | 33.3% | 0hPa | 2.7V | 00:00:00 | 00:47:03 | 08:30:00 | |
| OE3JTB-15 | 2026-08-31 23:49:40 | 45.76048 | 16.44284 | 85° | 153km/h | 11478m | 5.7m/s | -51.7°C | 33.9% | 0hPa | 2.9V | 00:00:00 | 00:46:58 | 00:00:00 | |
| 9A1FER-3 | 2026-08-31 23:49:38 | 45.76042 | 16.44178 | 86° | 151km/h | 11467m | 7.1m/s | -51.7°C | 34.1% | 0hPa | 2.9V | 00:00:00 | 00:46:56 | 08:30:00 | |
| 9A1FER-10 | 2026-08-31 23:49:30 | 45.76011 | 16.43739 | 84° | 153km/h | 11422m | 4.8m/s | -51.4°C | 35.5% | 0hPa | 2.7V | 00:00:00 | 00:46:48 | 00:00:00 | |
| 9A1FER-3 | 2026-08-31 23:49:23 | 45.75980 | 16.43356 | 85° | 155km/h | 11382m | 6.6m/s | -51.2°C | 38.1% | 0hPa | 2.7V | 00:00:00 | 00:46:41 | 00:00:00 | |
| 9A1FER-10 | 2026-08-31 23:49:15 | 45.75948 | 16.42909 | 84° | 153km/h | 11341m | 2.6m/s | -51.0°C | 37.7% | 0hPa | 2.7V | 00:00:00 | 00:46:33 | 00:00:00 | |
| OE3JTB-15 | 2026-08-31 23:49:11 | 45.75930 | 16.42690 | 84° | 151km/h | 11322m | 4.7m/s | -50.9°C | 36.5% | 0hPa | 2.7V | 00:00:00 | 00:00:00 | 08:30:00 | |
| 9A1FER-3 | 2026-08-31 23:49:08 | 45.75919 | 16.42523 | 85° | 151km/h | 11308m | 5.8m/s | -50.8°C | 35.8% | 0hPa | 2.7V | 00:00:00 | 00:46:26 | 00:00:00 | |
| 9A1FER-10 | 2026-08-31 23:49:00 | 45.75886 | 16.42086 | 85° | 150km/h | 11272m | 4.4m/s | -50.7°C | 34.4% | 0hPa | 2.7V | 00:00:00 | 00:46:18 | 00:00:00 | |
| 9A1FER-3 | 2026-08-31 23:48:53 | 45.75860 | 16.41708 | 85° | 150km/h | 11240m | 5.7m/s | -50.5°C | 34.3% | 0hPa | 2.9V | 00:00:00 | 00:46:11 | 00:00:00 | |
| 9A1FER-10 | 2026-08-31 23:48:45 | 45.75830 | 16.41278 | 86° | 150km/h | 11203m | 4.4m/s | -50.3°C | 35.1% | 0hPa | 2.7V | 00:00:00 | 00:46:03 | 00:00:00 | |
| OE3JTB-15 | 2026-08-31 23:48:42 | 45.75821 | 16.41118 | 86° | 150km/h | 11190m | 3.5m/s | -50.1°C | 35.1% | 0hPa | 2.7V | 00:00:00 | 00:00:00 | 00:00:00 | |
| 9A1FER-3 | 2026-08-31 23:48:38 | 45.75808 | 16.40904 | 86° | 150km/h | 11172m | 4.3m/s | -50.0°C | 35.4% | 0hPa | 2.7V | 00:00:00 | 00:45:56 | 00:00:00 | |
| 9A1FER-10 | 2026-08-31 23:48:30 | 45.75786 | 16.40473 | 87° | 150km/h | 11138m | 4.7m/s | -49.7°C | 34.7% | 0hPa | 2.7V | 00:00:00 | 00:45:48 | 00:00:00 | |
| 9A1FER-3 | 2026-08-31 23:48:23 | 45.75760 | 16.40093 | 84° | 150km/h | 11109m | 4.5m/s | -49.4°C | 34.5% | 0hPa | 2.7V | 00:00:00 | 00:45:41 | 00:00:00 | |
| 9A1FER-10 | 2026-08-31 23:48:15 | 45.75737 | 16.39660 | 86° | 151km/h | 11072m | 3.7m/s | -49.2°C | 36.0% | 0hPa | 2.7V | 00:00:00 | 00:45:33 | 00:00:00 | |
| OE3JTB-15 | 2026-08-31 23:48:13 | 45.75731 | 16.39552 | 86° | 150km/h | 11063m | 3.9m/s | -49.1°C | 36.2% | 0hPa | 2.9V | 00:00:00 | 00:45:31 | 00:00:00 | |
| 9A1FER-3 | 2026-08-31 23:48:08 | 45.75714 | 16.39281 | 86° | 151km/h | 11041m | 4.2m/s | -48.9°C | 35.1% | 0hPa | 2.9V | 00:00:00 | 00:45:26 | 00:00:00 | |
| 9A1FER-10 | 2026-08-31 23:48:00 | 45.75692 | 16.38843 | 87° | 150km/h | 11008m | 4.0m/s | -48.6°C | 33.3% | 0hPa | 2.9V | 00:00:00 | 00:45:18 | 00:00:00 | |
| 9A1FER-3 | 2026-08-31 23:47:53 | 45.75674 | 16.38465 | 87° | 150km/h | 10978m | 5.4m/s | -48.5°C | 32.9% | 0hPa | 2.9V | 00:00:00 | 00:45:11 | 00:00:00 | |
| 9A1FER-10 | 2026-08-31 23:47:45 | 45.75649 | 16.38032 | 86° | 148km/h | 10945m | 4.0m/s | -48.4°C | 33.6% | 0hPa | 2.9V | 00:00:00 | 00:45:03 | 00:00:00 | |
| OE3JTB-15 | 2026-08-31 23:47:44 | 45.75646 | 16.37979 | 86° | 148km/h | 10940m | 5.2m/s | -48.3°C | 33.9% | 0hPa | 2.9V | 00:00:00 | 00:00:00 | 00:00:00 | |
| 9A1FER-3 | 2026-08-31 23:47:38 | 45.75639 | 16.37659 | 88° | 148km/h | 10915m | 3.7m/s | -48.1°C | 34.3% | 0hPa | 2.9V | 00:00:00 | 00:44:56 | 00:00:00 | |
| 9A1FER-10 | 2026-08-31 23:47:30 | 45.75628 | 16.37227 | 90° | 148km/h | 10883m | 3.1m/s | -47.9°C | 33.1% | 0hPa | 2.9V | 00:00:00 | 00:44:48 | 08:30:00 | |
| 9A1FER-10 | 2026-08-31 23:47:15 | 45.75618 | 16.36428 | 91° | 148km/h | 10825m | 4.8m/s | -47.4°C | 32.0% | 0hPa | 2.9V | 00:00:00 | 00:44:33 | 00:00:00 | |
| 9A1FER-3 | 2026-08-31 23:47:08 | 45.75613 | 16.36052 | 88° | 150km/h | 10798m | 2.5m/s | -47.4°C | 32.0% | 0hPa | 2.9V | 00:00:00 | 00:44:26 | 00:00:00 | |
| 9A1FER-3 | 2026-08-31 23:46:53 | 45.75606 | 16.35245 | 88° | 153km/h | 10749m | 3.2m/s | -47.1°C | 29.6% | 0hPa | 2.9V | 00:00:00 | 00:44:11 | 00:00:00 | |
| OE3JTB-15 | 2026-08-31 23:46:46 | 45.75599 | 16.34870 | 92° | 146km/h | 10727m | 4.7m/s | -47.3°C | 28.7% | 0hPa | 2.9V | 00:00:00 | 00:44:04 | 00:00:00 | |
| 9A1FER-10 | 2026-08-31 23:46:45 | 45.75600 | 16.34815 | 93° | 150km/h | 10723m | 3.6m/s | -47.3°C | 28.5% | 0hPa | 2.9V | 00:00:00 | 00:44:03 | 00:00:00 | |
| 9A1FER-3 | 2026-08-31 23:46:38 | 45.75608 | 16.34408 | 87° | 146km/h | 10698m | 6.4m/s | -47.3°C | 24.2% | 0hPa | 2.9V | 00:00:00 | 00:43:56 | 00:00:00 | |
| 9A1FER-10 | 2026-08-31 23:46:30 | 45.75583 | 16.34007 | 89° | 142km/h | 10652m | 6.9m/s | -46.8°C | 25.1% | 0hPa | 2.7V | 00:00:00 | 00:43:48 | 00:00:00 | |
| 9A1FER-3 | 2026-08-31 23:46:23 | 45.75597 | 16.33626 | 99° | 133km/h | 10602m | 8.2m/s | -46.3°C | 22.3% | 0hPa | 2.7V | 00:00:00 | 00:43:41 | 00:00:00 | |
| OE3JTB-15 | 2026-08-31 23:46:17 | 45.75609 | 16.33336 | 88° | 137km/h | 10556m | 8.5m/s | 0°C | 0% | 0hPa | 2.7V | 00:00:00 | 00:00:00 | 00:00:00 | |
| 9A1FER-3 | 2026-08-31 23:46:08 | 45.75608 | 16.32906 | 91° | 139km/h | 10495m | 7.4m/s | -45.6°C | 18.1% | 0hPa | 2.7V | 00:00:00 | 00:43:26 | 00:00:00 | |
| 9A1FER-10 | 2026-08-31 23:46:00 | 45.75610 | 16.32487 | 92° | 130km/h | 10438m | 10.3m/s | -45.1°C | 15.7% | 0hPa | 2.7V | 00:00:00 | 00:43:18 | 00:00:00 | |
| 9A1FER-3 | 2026-08-31 23:45:53 | 45.75619 | 16.32154 | 89° | 128km/h | 10387m | 6.0m/s | -44.9°C | 14.4% | 0hPa | 2.9V | 00:00:00 | 00:43:11 | 00:00:00 | |
| OE3JTB-15 | 2026-08-31 23:45:48 | 45.75628 | 16.31909 | 97° | 120km/h | 10353m | 9.1m/s | 0°C | 0% | 0hPa | 2.9V | 00:00:00 | 00:00:00 | 00:00:00 | |
| 9A1FER-10 | 2026-08-31 23:45:45 | 45.75630 | 16.31787 | 88° | 124km/h | 10332m | 7.5m/s | -44.9°C | 13.9% | 0hPa | 2.9V | 00:00:00 | 00:43:03 | 00:00:00 | |
| 9A1FER-3 | 2026-08-31 23:45:38 | 45.75624 | 16.31464 | 83° | 119km/h | 10281m | 5.2m/s | -44.5°C | 13.5% | 0hPa | 2.9V | 00:00:00 | 00:42:56 | 00:00:00 | |
| 9A1FER-10 | 2026-08-31 23:45:30 | 45.75612 | 16.31110 | 94° | 119km/h | 10228m | 7.5m/s | -44.1°C | 12.6% | 0hPa | 2.9V | 00:00:00 | 00:42:48 | 00:00:00 | |
| 9A1FER-3 | 2026-08-31 23:45:23 | 45.75622 | 16.30823 | 93° | 111km/h | 10183m | 4.3m/s | -44.2°C | 13.1% | 0hPa | 2.9V | 00:00:00 | 00:42:41 | 00:00:00 | |
| OE3JTB-15 | 2026-08-31 23:45:19 | 45.75624 | 16.30654 | 93° | 106km/h | 10158m | 6.3m/s | 0°C | 0% | 0hPa | 2.9V | 00:00:00 | 00:42:37 | 00:00:00 | |
| 9A1FER-10 | 2026-08-31 23:45:14 | 45.75638 | 16.30446 | 98° | 104km/h | 10126m | 5.7m/s | -43.8°C | 13.1% | 0hPa | 2.9V | 00:00:00 | 00:42:32 | 08:30:00 | |
| 9A1FER-3 | 2026-08-31 23:45:08 | 45.75658 | 16.30222 | 99° | 104km/h | 10095m | 4.6m/s | -43.5°C | 13.8% | 0hPa | 2.9V | 00:00:00 | 00:42:26 | 08:30:00 | |
| 9A1FER-10 | 2026-08-31 23:44:59 | 45.75673 | 16.29883 | 91° | 106km/h | 10057m | 2.1m/s | -43.2°C | 18.8% | 0hPa | 2.9V | 00:00:00 | 00:42:17 | 00:00:00 | |
| 9A1FER-3 | 2026-08-31 23:44:53 | 45.75684 | 16.29654 | 96° | 102km/h | 10030m | 4.7m/s | -43.1°C | 26.6% | 0hPa | 2.9V | 00:00:00 | 00:42:11 | 00:00:00 | |
| OE3JTB-15 | 2026-08-31 23:44:50 | 45.75690 | 16.29541 | 91° | 106km/h | 10018m | 4.2m/s | 0°C | 0% | 0hPa | 2.9V | 00:00:00 | 00:00:00 | 00:00:00 | |
| 9A1FER-10 | 2026-08-31 23:44:44 | 45.75694 | 16.29315 | 94° | 102km/h | 9993m | 5.1m/s | -42.8°C | 32.7% | 0hPa | 2.9V | 00:00:00 | 00:42:02 | 00:00:00 | |
| 9A1FER-3 | 2026-08-31 23:44:38 | 45.75715 | 16.29099 | 98° | 99km/h | 9966m | 7.5m/s | -42.7°C | 30.8% | 0hPa | 2.9V | 00:00:00 | 00:41:56 | 00:00:00 | |
| 9A1FER-10 | 2026-08-31 23:44:29 | 45.75745 | 16.28767 | 97° | 97km/h | 9919m | 4.6m/s | -42.4°C | 43.0% | 0hPa | 2.9V | 00:00:00 | 00:41:47 | 00:00:00 | |
| 9A1FER-3 | 2026-08-31 23:44:23 | 45.75760 | 16.28571 | 97° | 99km/h | 9886m | 5.3m/s | -42.3°C | 54.5% | 0hPa | 2.9V | 00:00:00 | 00:41:41 | 00:00:00 | |
| 9A1FER-10 | 2026-08-31 23:44:14 | 45.75797 | 16.28249 | 101° | 99km/h | 9840m | 7.0m/s | -41.9°C | 52.6% | 0hPa | 2.9V | 00:00:00 | 00:41:32 | 00:00:00 | |
| 9A1FER-3 | 2026-08-31 23:44:08 | 45.75826 | 16.28043 | 105° | 99km/h | 9808m | 7.5m/s | -41.6°C | 43.8% | 0hPa | 2.9V | 00:00:00 | 00:41:26 | 00:00:00 | |
| 9A1FER-10 | 2026-08-31 23:43:59 | 45.75871 | 16.27727 | 99° | 97km/h | 9765m | 3.4m/s | -41.2°C | 35.6% | 0hPa | 2.9V | 00:00:00 | 00:41:17 | 00:00:00 | |
| 9A1FER-3 | 2026-08-31 23:43:53 | 45.75896 | 16.27521 | 102° | 97km/h | 9741m | 5.7m/s | -41.0°C | 38.3% | 0hPa | 2.9V | 00:00:00 | 00:41:11 | 00:00:00 | |
| 9A1FER-10 | 2026-08-31 23:43:44 | 45.75938 | 16.27210 | 103° | 99km/h | 9690m | 7.6m/s | -40.6°C | 40.2% | 0hPa | 2.9V | 00:00:00 | 00:41:02 | 00:00:00 | |
| 9A1FER-3 | 2026-08-31 23:43:38 | 45.75963 | 16.27003 | 100° | 99km/h | 9655m | 3.8m/s | -40.3°C | 31.7% | 0hPa | 2.9V | 00:00:00 | 00:40:56 | 00:00:00 | |
| 9A1FER-10 | 2026-08-31 23:43:29 | 45.76002 | 16.26679 | 101° | 97km/h | 9608m | 7.1m/s | -39.9°C | 20.2% | 0hPa | 2.9V | 00:00:00 | 00:40:47 | 00:00:00 | |
| 9A1FER-3 | 2026-08-31 23:43:23 | 45.76032 | 16.26476 | 103° | 100km/h | 9573m | 7.6m/s | -39.6°C | 13.8% | 0hPa | 2.9V | 00:00:00 | 00:40:41 | 00:00:00 | |
| 9A1FER-10 | 2026-08-31 23:43:14 | 45.76073 | 16.26158 | 100° | 100km/h | 9525m | 3.9m/s | -39.2°C | 11.3% | 0hPa | 2.9V | 00:00:00 | 00:40:32 | 00:00:00 | |
| 9A1FER-3 | 2026-08-31 23:43:08 | 45.76094 | 16.25939 | 97° | 99km/h | 9497m | 6.1m/s | -39.0°C | 10.9% | 0hPa | 2.9V | 00:00:00 | 00:40:26 | 00:00:00 | |
| 9A1FER-10 | 2026-08-31 23:42:59 | 45.76135 | 16.25623 | 100° | 99km/h | 9451m | 3.9m/s | -38.7°C | 10.9% | 0hPa | 2.9V | 00:00:00 | 00:40:17 | 08:30:00 | |
| 9A1FER-3 | 2026-08-31 23:42:53 | 45.76155 | 16.25411 | 99° | 99km/h | 9420m | 6.2m/s | -38.4°C | 10.6% | 0hPa | 2.9V | 00:00:00 | 00:40:11 | 08:30:00 | |
| 9A1FER-10 | 2026-08-31 23:42:44 | 45.76187 | 16.25095 | 98° | 97km/h | 9372m | 4.2m/s | -38.0°C | 10.3% | 0hPa | 2.9V | 00:00:00 | 00:40:02 | 00:00:00 | |
| 9A1FER-3 | 2026-08-31 23:42:38 | 45.76211 | 16.24887 | 98° | 95km/h | 9335m | 6.3m/s | -37.7°C | 10.3% | 0hPa | 2.9V | 00:00:00 | 00:39:56 | 00:00:00 | |
| 9A1FER-10 | 2026-08-31 23:42:29 | 45.76242 | 16.24572 | 99° | 91km/h | 9292m | 5.3m/s | -37.4°C | 10.1% | 0hPa | 2.9V | 00:00:00 | 00:39:47 | 00:00:00 | |
| 9A1FER-3 | 2026-08-31 23:42:23 | 45.76256 | 16.24378 | 96° | 93km/h | 9262m | 5.9m/s | -37.1°C | 9.8% | 0hPa | 2.9V | 00:00:00 | 00:39:41 | 00:00:00 | |
| 9A1FER-10 | 2026-08-31 23:42:14 | 45.76281 | 16.24077 | 95° | 91km/h | 9212m | 4.5m/s | -36.6°C | 9.6% | 0hPa | 2.9V | 00:00:00 | 00:39:32 | 00:00:00 | |
| 9A1FER-3 | 2026-08-31 23:42:08 | 45.76296 | 16.23878 | 98° | 91km/h | 9177m | 3.5m/s | -36.3°C | 9.8% | 0hPa | 2.9V | 00:00:00 | 00:39:26 | 00:00:00 | |
| 9A1FER-10 | 2026-08-31 23:41:59 | 45.76321 | 16.23582 | 95° | 91km/h | 9131m | 5.8m/s | -36.0°C | 9.7% | 0hPa | 2.9V | 00:00:00 | 00:39:17 | 00:00:00 | |
| 9A1FER-3 | 2026-08-31 23:41:53 | 45.76336 | 16.23387 | 98° | 89km/h | 9104m | 3.2m/s | -35.7°C | 9.6% | 0hPa | 2.9V | 00:00:00 | 00:39:11 | 00:00:00 | |
| 9A1FER-10 | 2026-08-31 23:41:44 | 45.76363 | 16.23095 | 99° | 88km/h | 9067m | 5.4m/s | -35.4°C | 9.4% | 0hPa | 2.9V | 00:00:00 | 00:39:02 | 00:00:00 | |
| 9A1FER-3 | 2026-08-31 23:41:38 | 45.76381 | 16.22907 | 95° | 89km/h | 9041m | 5.2m/s | -35.1°C | 9.5% | 0hPa | 2.9V | 00:00:00 | 00:38:56 | 00:00:00 | |
| 9A1FER-10 | 2026-08-31 23:41:29 | 45.76406 | 16.22626 | 99° | 88km/h | 9005m | 3.0m/s | -35.2°C | 21.0% | 0hPa | 2.9V | 00:00:00 | 00:38:47 | 00:00:00 | |
| 9A1FER-3 | 2026-08-31 23:41:23 | 45.76425 | 16.22421 | 96° | 88km/h | 8984m | 2.6m/s | -35.0°C | 26.0% | 0hPa | 2.9V | 00:00:00 | 00:38:41 | 00:00:00 | |
| 9A1FER-10 | 2026-08-31 23:41:14 | 45.76428 | 16.22149 | 91° | 84km/h | 8939m | 4.5m/s | -34.6°C | 29.0% | 0hPa | 2.9V | 00:00:00 | 00:38:32 | 00:00:00 | |
| 9A1FER-3 | 2026-08-31 23:41:08 | 45.76452 | 16.21956 | 100° | 80km/h | 8903m | 6.1m/s | -34.3°C | 32.9% | 0hPa | 2.9V | 00:00:00 | 00:38:26 | 00:00:00 | |
| 9A1FER-10 | 2026-08-31 23:40:59 | 45.76461 | 16.21696 | 93° | 78km/h | 8850m | 6.8m/s | -33.7°C | 34.8% | 0hPa | 2.9V | 00:00:00 | 00:38:17 | 00:00:00 | |
| 9A1FER-3 | 2026-08-31 23:40:53 | 45.76476 | 16.21526 | 99° | 75km/h | 8808m | 9.0m/s | -33.4°C | 50.0% | 0hPa | 2.9V | 00:00:00 | 00:38:11 | 00:00:00 | |
| 9A1FER-10 | 2026-08-31 23:40:44 | 45.76496 | 16.21274 | 102° | 77km/h | 8740m | 7.5m/s | -32.8°C | 53.7% | 0hPa | 2.9V | 00:00:00 | 00:38:02 | 08:30:00 | |
| 9A1FER-3 | 2026-08-31 23:40:38 | 45.76518 | 16.21123 | 104° | 80km/h | 8705m | 8.6m/s | -32.4°C | 49.4% | 0hPa | 2.7V | 00:00:00 | 00:37:56 | 08:30:00 | |
| 9A1FER-10 | 2026-08-31 23:40:29 | 45.76560 | 16.20869 | 107° | 80km/h | 8643m | 5.6m/s | -31.9°C | 56.7% | 0hPa | 2.7V | 00:00:00 | 00:37:47 | 00:00:00 | |
| 9A1FER-3 | 2026-08-31 23:40:23 | 45.76589 | 16.20694 | 100° | 82km/h | 8606m | 4.8m/s | -31.6°C | 66.0% | 0hPa | 2.7V | 00:00:00 | 00:37:41 | 00:00:00 | |
| 9A1FER-3 | 2026-08-31 23:40:08 | 45.76649 | 16.20260 | 109° | 77km/h | 8528m | 6.4m/s | -30.9°C | 67.4% | 0hPa | 2.7V | 00:00:00 | 00:37:26 | 00:00:00 | |
| 9A1FER-10 | 2026-08-31 23:39:59 | 45.76686 | 16.20007 | 103° | 75km/h | 8468m | 4.8m/s | -30.4°C | 73.8% | 0hPa | 2.7V | 00:00:00 | 00:37:17 | 00:00:00 | |
| 9A1FER-3 | 2026-08-31 23:39:53 | 45.76706 | 16.19860 | 102° | 73km/h | 8434m | 5.1m/s | -30.5°C | 90.4% | 0hPa | 2.9V | 00:00:00 | 00:37:11 | 00:00:00 | |
| 9A1FER-10 | 2026-08-31 23:39:44 | 45.76722 | 16.19607 | 93° | 68km/h | 8367m | 9.3m/s | -29.9°C | 86.3% | 0hPa | 2.9V | 00:00:00 | 00:37:02 | 00:00:00 | |
| 9A1FER-3 | 2026-08-31 23:39:38 | 45.76731 | 16.19468 | 102° | 69km/h | 8323m | 7.7m/s | -29.6°C | 83.5% | 0hPa | 2.9V | 00:00:00 | 00:36:56 | 00:00:00 | |
| 9A1FER-10 | 2026-08-31 23:39:29 | 45.76753 | 16.19251 | 103° | 69km/h | 8257m | 10.1m/s | -29.1°C | 75.4% | 0hPa | 2.9V | 00:00:00 | 00:36:47 | 00:00:00 | |
| 9A1FER-3 | 2026-08-31 23:39:23 | 45.76790 | 16.19103 | 112° | 62km/h | 8202m | 10.0m/s | -28.6°C | 69.8% | 0hPa | 2.9V | 00:00:00 | 00:36:41 | 00:00:00 | |
| 9A1FER-10 | 2026-08-31 23:39:14 | 45.76842 | 16.18895 | 102° | 57km/h | 8132m | 5.6m/s | -27.9°C | 67.6% | 0hPa | 2.9V | 00:00:00 | 00:36:32 | 00:00:00 | |
| 9A1FER-3 | 2026-08-31 23:39:08 | 45.76864 | 16.18789 | 114° | 60km/h | 8088m | 7.4m/s | -27.6°C | 63.6% | 0hPa | 2.9V | 00:00:00 | 00:36:26 | 00:00:00 | |
| 9A1FER-10 | 2026-08-31 23:38:59 | 45.76910 | 16.18599 | 105° | 57km/h | 8029m | 6.8m/s | -27.0°C | 60.8% | 0hPa | 2.9V | 00:00:00 | 00:36:17 | 00:00:00 | |
| 9A1FER-3 | 2026-08-31 23:38:53 | 45.76932 | 16.18471 | 99° | 53km/h | 7988m | 7.8m/s | -26.6°C | 59.3% | 0hPa | 2.9V | 00:00:00 | 00:36:11 | 00:00:00 | |
| 9A1FER-10 | 2026-08-31 23:38:44 | 45.76984 | 16.18321 | 121° | 58km/h | 7935m | 8.6m/s | -26.1°C | 55.6% | 0hPa | 2.9V | 00:00:00 | 00:36:02 | 00:00:00 | |
| 9A1FER-3 | 2026-08-31 23:38:38 | 45.77005 | 16.18209 | 106° | 60km/h | 7895m | 5.3m/s | -25.8°C | 55.5% | 0hPa | 2.9V | 00:00:00 | 00:35:56 | 00:00:00 | |
| 9A1FER-10 | 2026-08-31 23:38:29 | 45.77062 | 16.18027 | 128° | 60km/h | 7842m | 6.0m/s | -25.3°C | 53.5% | 0hPa | 2.9V | 00:00:00 | 00:35:47 | 08:30:00 | |
| 9A1FER-3 | 2026-08-31 23:38:23 | 45.77101 | 16.17919 | 116° | 60km/h | 7808m | 8.5m/s | -24.9°C | 51.7% | 0hPa | 2.9V | 00:00:00 | 00:35:41 | 08:30:00 | |
| 9A1FER-10 | 2026-08-31 23:38:14 | 45.77155 | 16.17734 | 116° | 60km/h | 7753m | 5.2m/s | -24.5°C | 35.4% | 0hPa | 2.9V | 00:00:00 | 00:35:32 | 00:00:00 | |
| 9A1FER-3 | 2026-08-31 23:38:08 | 45.77201 | 16.17623 | 110° | 62km/h | 7711m | 4.8m/s | -24.1°C | 34.1% | 0hPa | 2.9V | 00:00:00 | 00:35:26 | 00:00:00 | |
| 9A1FER-10 | 2026-08-31 23:37:59 | 45.77269 | 16.17452 | 129° | 62km/h | 7649m | 8.8m/s | -23.6°C | 33.2% | 0hPa | 2.9V | 00:00:00 | 00:35:17 | 00:00:00 | |
| 9A1FER-3 | 2026-08-31 23:37:53 | 45.77323 | 16.17334 | 120° | 64km/h | 7608m | 3.5m/s | -23.3°C | 33.2% | 0hPa | 2.9V | 00:00:00 | 00:35:11 | 00:00:00 | |
| 9A1FER-10 | 2026-08-31 23:37:44 | 45.77399 | 16.17167 | 121° | 68km/h | 7558m | 4.8m/s | -22.9°C | 30.0% | 0hPa | 2.9V | 00:00:00 | 00:35:02 | 00:00:00 | |
| 9A1FER-3 | 2026-08-31 23:37:38 | 45.77450 | 16.17042 | 125° | 69km/h | 7526m | 8.3m/s | -22.7°C | 30.2% | 0hPa | 2.9V | 00:00:00 | 00:34:56 | 00:00:00 | |
| 9A1FER-10 | 2026-08-31 23:37:29 | 45.77544 | 16.16866 | 125° | 68km/h | 7464m | 7.5m/s | -22.2°C | 29.8% | 0hPa | 2.9V | 00:00:00 | 00:34:47 | 00:00:00 | |
| 9A1FER-3 | 2026-08-31 23:37:23 | 45.77602 | 16.16736 | 125° | 69km/h | 7428m | 4.8m/s | -21.8°C | 29.5% | 0hPa | 2.9V | 00:00:00 | 00:34:41 | 00:00:00 | |
| 9A1FER-10 | 2026-08-31 23:37:14 | 45.77680 | 16.16551 | 125° | 69km/h | 7375m | 6.0m/s | -21.3°C | 29.1% | 0hPa | 2.9V | 00:00:00 | 00:34:32 | 00:00:00 | |
| 9A1FER-3 | 2026-08-31 23:37:08 | 45.77739 | 16.16417 | 120° | 68km/h | 7336m | 6.0m/s | -20.9°C | 29.1% | 0hPa | 2.9V | 00:00:00 | 00:34:26 | 00:00:00 | |
| 9A1FER-10 | 2026-08-31 23:36:59 | 45.77817 | 16.16227 | 123° | 68km/h | 7277m | 7.0m/s | -20.4°C | 28.1% | 0hPa | 2.9V | 00:00:00 | 00:34:17 | 00:00:00 | |
| 9A1FER-3 | 2026-08-31 23:36:53 | 45.77873 | 16.16099 | 122° | 66km/h | 7234m | 5.8m/s | -20.0°C | 27.5% | 0hPa | 2.9V | 00:00:00 | 00:34:11 | 00:00:00 | |
| 9A1FER-10 | 2026-08-31 23:36:44 | 45.77960 | 16.15919 | 125° | 69km/h | 7182m | 6.1m/s | -19.6°C | 31.8% | 0hPa | 2.9V | 00:00:00 | 00:34:02 | 00:00:00 | |
| 9A1FER-3 | 2026-08-31 23:36:38 | 45.78012 | 16.15803 | 127° | 73km/h | 7146m | 5.3m/s | -19.4°C | 37.5% | 0hPa | 2.9V | 00:00:00 | 00:33:56 | 00:00:00 | |
| 9A1FER-10 | 2026-08-31 23:36:29 | 45.78105 | 16.15605 | 118° | 75km/h | 7086m | 4.7m/s | -19.1°C | 51.3% | 0hPa | 2.9V | 00:00:00 | 00:33:47 | 00:00:00 | |
| 9A1FER-3 | 2026-08-31 23:36:23 | 45.78160 | 16.15466 | 124° | 78km/h | 7054m | 5.1m/s | -18.9°C | 52.5% | 0hPa | 2.9V | 00:00:00 | 00:33:41 | 00:00:00 | |
| 9A1FER-10 | 2026-08-31 23:36:14 | 45.78247 | 16.15245 | 119° | 80km/h | 7010m | 5.0m/s | -18.5°C | 53.1% | 0hPa | 2.9V | 00:00:00 | 00:33:32 | 08:30:00 | |
| 9A1FER-3 | 2026-08-31 23:36:08 | 45.78308 | 16.15100 | 119° | 82km/h | 6976m | 3.5m/s | -18.3°C | 53.3% | 0hPa | 2.9V | 00:00:00 | 00:33:26 | 08:30:00 | |
| 9A1FER-10 | 2026-08-31 23:35:59 | 45.78396 | 16.14861 | 119° | 82km/h | 6919m | 6.6m/s | -17.8°C | 52.1% | 0hPa | 2.7V | 00:00:00 | 00:33:17 | 00:00:00 | |
| 9A1FER-3 | 2026-08-31 23:35:53 | 45.78455 | 16.14701 | 117° | 82km/h | 6889m | 5.4m/s | -17.5°C | 51.8% | 0hPa | 2.7V | 00:00:00 | 00:33:11 | 00:00:00 | |
| 9A1FER-10 | 2026-08-31 23:35:42 | 45.78560 | 16.14414 | 120° | 80km/h | 6823m | 9.6m/s | -16.9°C | 52.4% | 0hPa | 2.7V | 00:00:00 | 00:33:00 | 00:00:00 | |
| 9A1FER-3 | 2026-08-31 23:35:38 | 45.78602 | 16.14310 | 117° | 78km/h | 6795m | 5.0m/s | -16.7°C | 52.8% | 0hPa | 2.7V | 00:00:00 | 00:32:56 | 00:00:00 | |
| 9A1FER-10 | 2026-08-31 23:35:27 | 45.78697 | 16.14030 | 119° | 82km/h | 6725m | 5.8m/s | -16.1°C | 52.0% | 0hPa | 2.7V | 00:00:00 | 00:32:45 | 00:00:00 | |
| 9A1FER-3 | 2026-08-31 23:35:23 | 45.78735 | 16.13926 | 116° | 80km/h | 6699m | 6.0m/s | -15.8°C | 50.9% | 0hPa | 2.9V | 00:00:00 | 00:32:41 | 00:00:00 | |
| 9A1FER-10 | 2026-08-31 23:35:12 | 45.78833 | 16.13632 | 116° | 80km/h | 6634m | 5.1m/s | -15.2°C | 48.6% | 0hPa | 2.9V | 00:00:00 | 00:32:30 | 00:00:00 | |
| 9A1FER-3 | 2026-08-31 23:35:08 | 45.78869 | 16.13529 | 116° | 80km/h | 6615m | 4.8m/s | -15.1°C | 47.6% | 0hPa | 2.9V | 00:00:00 | 00:32:26 | 00:00:00 | |
| 9A1FER-10 | 2026-08-31 23:34:57 | 45.78963 | 16.13234 | 113° | 82km/h | 6561m | 7.5m/s | -14.6°C | 46.4% | 0hPa | 2.9V | 00:00:00 | 00:32:15 | 00:00:00 | |
| 9A1FER-3 | 2026-08-31 23:34:53 | 45.78997 | 16.13130 | 116° | 80km/h | 6540m | 3.9m/s | -14.4°C | 46.3% | 0hPa | 2.9V | 00:00:00 | 00:32:11 | 00:00:00 | |
| 9A1FER-10 | 2026-08-31 23:34:42 | 45.79094 | 16.12836 | 115° | 77km/h | 6477m | 4.5m/s | -13.9°C | 44.3% | 0hPa | 2.9V | 00:00:00 | 00:32:00 | 00:00:00 | |
| 9A1FER-3 | 2026-08-31 23:34:38 | 45.79128 | 16.12737 | 117° | 77km/h | 6457m | 3.2m/s | -13.7°C | 43.8% | 0hPa | 2.9V | 00:00:00 | 00:31:56 | 00:00:00 | |
| 9A1FER-10 | 2026-08-31 23:34:27 | 45.79220 | 16.12455 | 110° | 78km/h | 6397m | 8.0m/s | -13.3°C | 46.6% | 0hPa | 2.9V | 00:00:00 | 00:31:45 | 00:00:00 | |
| 9A1FER-3 | 2026-08-31 23:34:23 | 45.79242 | 16.12352 | 107° | 80km/h | 6376m | 5.0m/s | -13.1°C | 47.2% | 0hPa | 2.9V | 00:00:00 | 00:31:41 | 00:00:00 | |
| 9A1FER-10 | 2026-08-31 23:34:12 | 45.79322 | 16.12055 | 112° | 78km/h | 6315m | 3.1m/s | -13.2°C | 55.4% | 0hPa | 2.9V | 00:00:00 | 00:31:30 | 00:00:00 | |
| 9A1FER-3 | 2026-08-31 23:34:08 | 45.79350 | 16.11943 | 108° | 75km/h | 6294m | 4.7m/s | -13.3°C | 58.9% | 0hPa | 2.9V | 00:00:00 | 00:31:26 | 00:00:00 | |
| 9A1FER-10 | 2026-08-31 23:33:57 | 45.79430 | 16.11664 | 119° | 71km/h | 6244m | 2.4m/s | -13.1°C | 57.7% | 0hPa | 2.9V | 00:00:00 | 00:31:15 | 08:30:00 | |
| 9A1FER-3 | 2026-08-31 23:33:53 | 45.79460 | 16.11569 | 109° | 69km/h | 6222m | 3.6m/s | -12.9°C | 57.3% | 0hPa | 2.9V | 00:00:00 | 00:31:11 | 08:30:00 | |
| 9A1FER-10 | 2026-08-31 23:33:42 | 45.79535 | 16.11314 | 125° | 71km/h | 6165m | 4.9m/s | -12.3°C | 55.2% | 0hPa | 2.9V | 00:00:00 | 00:31:00 | 00:00:00 | |
| 9A1FER-3 | 2026-08-31 23:33:38 | 45.79563 | 16.11236 | 110° | 78km/h | 6147m | 4.4m/s | -12.1°C | 53.5% | 0hPa | 2.9V | 00:00:00 | 00:30:56 | 00:00:00 | |
| 9A1FER-10 | 2026-08-31 23:33:27 | 45.79644 | 16.10957 | 114° | 80km/h | 6084m | 5.8m/s | -11.5°C | 51.4% | 0hPa | 2.9V | 00:00:00 | 00:30:45 | 00:00:00 | |
| 9A1FER-3 | 2026-08-31 23:33:23 | 45.79680 | 16.10840 | 118° | 75km/h | 6060m | 4.3m/s | -11.2°C | 50.8% | 0hPa | 2.9V | 00:00:00 | 00:30:41 | 00:00:00 | |
| 9A1FER-10 | 2026-08-31 23:33:12 | 45.79764 | 16.10562 | 124° | 73km/h | 5996m | 6.7m/s | -10.6°C | 48.8% | 0hPa | 2.9V | 00:00:00 | 00:30:30 | 00:00:00 | |
| 9A1FER-3 | 2026-08-31 23:33:08 | 45.79798 | 16.10473 | 110° | 73km/h | 5970m | 6.1m/s | -10.4°C | 48.1% | 0hPa | 2.9V | 00:00:00 | 00:30:26 | 00:00:00 | |
| 9A1FER-10 | 2026-08-31 23:32:57 | 45.79893 | 16.10208 | 114° | 71km/h | 5907m | 4.6m/s | -10.2°C | 52.0% | 0hPa | 3.0V | 00:00:00 | 00:30:15 | 00:00:00 | |
| 9A1FER-3 | 2026-08-31 23:32:53 | 45.79918 | 16.10121 | 113° | 73km/h | 5886m | 6.0m/s | -10.0°C | 50.6% | 0hPa | 3.0V | 00:00:00 | 00:30:11 | 00:00:00 | |
| 9A1FER-10 | 2026-08-31 23:32:42 | 45.79997 | 16.09856 | 109° | 82km/h | 5831m | 5.9m/s | -9.6°C | 52.1% | 0hPa | 3.0V | 00:00:00 | 00:30:00 | 00:00:00 | |
| 9A1FER-3 | 2026-08-31 23:32:38 | 45.80019 | 16.09746 | 106° | 84km/h | 5812m | 2.2m/s | -9.8°C | 56.2% | 0hPa | 3.0V | 00:00:00 | 00:29:56 | 00:00:00 | |
| 9A1FER-10 | 2026-08-31 23:32:27 | 45.80112 | 16.09437 | 111° | 77km/h | 5774m | 2.9m/s | -9.7°C | 55.4% | 0hPa | 3.0V | 00:00:00 | 00:29:45 | 00:00:00 | |
| 9A1FER-3 | 2026-08-31 23:32:23 | 45.80137 | 16.09320 | 109° | 71km/h | 5754m | 5.4m/s | -9.5°C | 54.2% | 0hPa | 3.0V | 00:00:00 | 00:29:41 | 00:00:00 | |
| 9A1FER-10 | 2026-08-31 23:32:12 | 45.80205 | 16.09046 | 105° | 69km/h | 5694m | 5.3m/s | -9.3°C | 50.9% | 0hPa | 3.0V | 00:00:00 | 00:29:30 | 00:00:00 | |
| 9A1FER-3 | 2026-08-31 23:32:08 | 45.80217 | 16.08951 | 103° | 68km/h | 5672m | 7.3m/s | -9.3°C | 49.5% | 0hPa | 3.0V | 00:00:00 | 00:29:26 | 00:00:00 | |
| 9A1FER-10 | 2026-08-31 23:31:57 | 45.80248 | 16.08681 | 98° | 68km/h | 5608m | 4.8m/s | -8.9°C | 38.5% | 0hPa | 3.0V | 00:00:00 | 00:29:15 | 00:00:00 | |
| 9A1FER-3 | 2026-08-31 23:31:53 | 45.80256 | 16.08593 | 99° | 69km/h | 5587m | 4.0m/s | -8.7°C | 25.6% | 0hPa | 3.0V | 00:00:00 | 00:29:11 | 00:00:00 | |
| 9A1FER-10 | 2026-08-31 23:31:42 | 45.80288 | 16.08313 | 101° | 69km/h | 5533m | 6.0m/s | -8.6°C | 24.8% | 0hPa | 3.0V | 00:00:00 | 00:29:00 | 08:30:00 | |
| 9A1FER-3 | 2026-08-31 23:31:38 | 45.80299 | 16.08219 | 94° | 71km/h | 5514m | 4.0m/s | -8.5°C | 17.7% | 0hPa | 3.0V | 00:00:00 | 00:28:56 | 08:30:00 | |
| 9A1FER-10 | 2026-08-31 23:31:27 | 45.80305 | 16.07935 | 87° | 68km/h | 5460m | 6.6m/s | -8.8°C | 6.9% | 0hPa | 3.0V | 00:00:00 | 00:28:45 | 00:00:00 | |
| 9A1FER-3 | 2026-08-31 23:31:23 | 45.80308 | 16.07835 | 92° | 66km/h | 5442m | 3.4m/s | -8.7°C | 7.1% | 0hPa | 3.0V | 00:00:00 | 00:28:41 | 00:00:00 | |
| 9A1FER-10 | 2026-08-31 23:31:12 | 45.80301 | 16.07575 | 97° | 68km/h | 5386m | 5.5m/s | -8.3°C | 5.8% | 0hPa | 3.0V | 00:00:00 | 00:28:30 | 00:00:00 | |
| 9A1FER-3 | 2026-08-31 23:31:08 | 45.80306 | 16.07480 | 90° | 68km/h | 5364m | 8.0m/s | -8.1°C | 5.6% | 0hPa | 3.0V | 00:00:00 | 00:28:26 | 00:00:00 | |
| 9A1FER-10 | 2026-08-31 23:30:57 | 45.80289 | 16.07212 | 85° | 69km/h | 5305m | 7.0m/s | -7.7°C | 5.2% | 0hPa | 3.0V | 00:00:00 | 00:28:15 | 00:00:00 | |
| 9A1FER-3 | 2026-08-31 23:30:53 | 45.80284 | 16.07114 | 88° | 71km/h | 5287m | 3.8m/s | -7.5°C | 5.3% | 0hPa | 3.0V | 00:00:00 | 00:28:11 | 00:00:00 | |
| 9A1FER-10 | 2026-08-31 23:30:42 | 45.80275 | 16.06832 | 76° | 69km/h | 5236m | 5.8m/s | -7.2°C | 6.3% | 0hPa | 3.0V | 00:00:00 | 00:28:00 | 00:00:00 | |
| 9A1FER-3 | 2026-08-31 23:30:38 | 45.80265 | 16.06729 | 91° | 68km/h | 5213m | 4.5m/s | -7.0°C | 6.4% | 0hPa | 3.0V | 00:00:00 | 00:27:56 | 00:00:00 | |
| 9A1FER-10 | 2026-08-31 23:30:27 | 45.80240 | 16.06466 | 80° | 62km/h | 5150m | 3.5m/s | -6.7°C | 8.7% | 0hPa | 3.0V | 00:00:00 | 00:27:45 | 00:00:00 | |
| 9A1FER-3 | 2026-08-31 23:30:23 | 45.80227 | 16.06368 | 86° | 60km/h | 5131m | 5.0m/s | -6.6°C | 9.5% | 0hPa | 3.0V | 00:00:00 | 00:27:41 | 00:00:00 | |
| 9A1FER-10 | 2026-08-31 23:30:12 | 45.80224 | 16.06130 | 82° | 60km/h | 5059m | 5.5m/s | -6.1°C | 11.2% | 0hPa | 3.0V | 00:00:00 | 00:27:30 | 00:00:00 | |
| 9A1FER-3 | 2026-08-31 23:30:08 | 45.80214 | 16.06047 | 90° | 58km/h | 5037m | 6.5m/s | -5.9°C | 11.2% | 0hPa | 3.0V | 00:00:00 | 00:27:26 | 00:00:00 | |
| 9A1FER-10 | 2026-08-31 23:29:57 | 45.80205 | 16.05809 | 93° | 57km/h | 4962m | 4.7m/s | -5.2°C | 12.6% | 0hPa | 3.0V | 00:00:00 | 00:27:15 | 00:00:00 | |
| 9A1FER-3 | 2026-08-31 23:29:53 | 45.80207 | 16.05734 | 87° | 55km/h | 4937m | 6.3m/s | -5.1°C | 13.7% | 0hPa | 3.0V | 00:00:00 | 00:27:11 | 00:00:00 | |
| 9A1FER-10 | 2026-08-31 23:29:42 | 45.80225 | 16.05506 | 88° | 46km/h | 4871m | 5.6m/s | -4.6°C | 16.8% | 0hPa | 3.0V | 00:00:00 | 00:27:00 | 00:00:00 | |
| 9A1FER-3 | 2026-08-31 23:29:38 | 45.80215 | 16.05437 | 77° | 46km/h | 4844m | 7.8m/s | -4.9°C | 30.1% | 0hPa | 3.0V | 00:00:00 | 00:26:56 | 00:00:00 | |
| 9A1FER-10 | 2026-08-31 23:29:27 | 45.80208 | 16.05260 | 95° | 47km/h | 4779m | 7.7m/s | -4.0°C | 22.2% | 0hPa | 3.0V | 00:00:00 | 00:26:45 | 08:30:00 | |
| 9A1FER-3 | 2026-08-31 23:29:23 | 45.80204 | 16.05189 | 85° | 46km/h | 4753m | 6.9m/s | -4.3°C | 32.2% | 0hPa | 3.0V | 00:00:00 | 00:26:41 | 08:30:00 | |
| 9A1FER-10 | 2026-08-31 23:29:12 | 45.80198 | 16.05007 | 81° | 51km/h | 4688m | 5.4m/s | -4.3°C | 45.3% | 0hPa | 3.0V | 00:00:00 | 00:26:30 | 00:00:00 | |
| 9A1FER-3 | 2026-08-31 23:29:08 | 45.80190 | 16.04936 | 89° | 47km/h | 4664m | 4.1m/s | -4.1°C | 45.2% | 0hPa | 3.0V | 00:00:00 | 00:26:26 | 00:00:00 | |
| 9A1FER-10 | 2026-08-31 23:28:57 | 45.80202 | 16.04733 | 88° | 42km/h | 4594m | 6.2m/s | -3.8°C | 45.2% | 0hPa | 3.0V | 00:00:00 | 00:26:15 | 00:00:00 | |
| 9A1FER-3 | 2026-08-31 23:28:53 | 45.80208 | 16.04680 | 109° | 44km/h | 4570m | 5.5m/s | -3.5°C | 42.3% | 0hPa | 3.0V | 00:00:00 | 00:26:11 | 00:00:00 | |
| 9A1FER-10 | 2026-08-31 23:28:42 | 45.80212 | 16.04513 | 95° | 49km/h | 4502m | 5.0m/s | -3.3°C | 48.7% | 0hPa | 3.0V | 00:00:00 | 00:26:00 | 00:00:00 | |
| 9A1FER-3 | 2026-08-31 23:28:38 | 45.80213 | 16.04439 | 86° | 49km/h | 4478m | 9.0m/s | -3.7°C | 61.7% | 0hPa | 3.0V | 00:00:00 | 00:25:56 | 00:00:00 | |
| 9A1FER-10 | 2026-08-31 23:28:27 | 45.80213 | 16.04244 | 108° | 47km/h | 4404m | 6.2m/s | -3.9°C | 84.0% | 0hPa | 3.0V | 00:00:00 | 00:25:45 | 00:00:00 | |
| 9A1FER-3 | 2026-08-31 23:28:23 | 45.80229 | 16.04177 | 101° | 46km/h | 4384m | 5.1m/s | -3.7°C | 82.8% | 0hPa | 3.0V | 00:00:00 | 00:25:41 | 00:00:00 | |
| 9A1FER-10 | 2026-08-31 23:28:12 | 45.80240 | 16.03988 | 96° | 38km/h | 4310m | 9.0m/s | -3.0°C | 80.9% | 0hPa | 3.0V | 00:00:00 | 00:25:30 | 00:00:00 | |
| 9A1FER-3 | 2026-08-31 23:28:08 | 45.80239 | 16.03931 | 94° | 40km/h | 4283m | 4.9m/s | -2.8°C | 81.7% | 0hPa | 3.0V | 00:00:00 | 00:25:26 | 00:00:00 | |
| 9A1FER-10 | 2026-08-31 23:27:57 | 45.80243 | 16.03776 | 83° | 42km/h | 4215m | 4.0m/s | -2.4°C | 81.0% | 0hPa | 3.0V | 00:00:00 | 00:25:15 | 00:00:00 | |
| 9A1FER-3 | 2026-08-31 23:27:53 | 45.80243 | 16.03711 | 106° | 38km/h | 4194m | 5.3m/s | -2.2°C | 79.4% | 0hPa | 3.0V | 00:00:00 | 00:25:11 | 00:00:00 | |
| 9A1FER-10 | 2026-08-31 23:27:42 | 45.80253 | 16.03558 | 76° | 38km/h | 4122m | 7.3m/s | -1.6°C | 72.0% | 0hPa | 3.0V | 00:00:00 | 00:25:00 | 00:00:00 | |
| 9A1FER-3 | 2026-08-31 23:27:38 | 45.80248 | 16.03509 | 84° | 38km/h | 4095m | 8.0m/s | -1.5°C | 65.1% | 0hPa | 3.0V | 00:00:00 | 00:24:56 | 00:00:00 | |
| 9A1FER-10 | 2026-08-31 23:27:27 | 45.80236 | 16.03357 | 103° | 31km/h | 4026m | 6.3m/s | -1.0°C | 61.7% | 0hPa | 3.0V | 00:00:00 | 00:24:45 | 00:00:00 | |
| 9A1FER-3 | 2026-08-31 23:27:23 | 45.80245 | 16.03302 | 99° | 29km/h | 4001m | 5.5m/s | -0.7°C | 61.0% | 0hPa | 3.0V | 00:00:00 | 00:24:41 | 00:00:00 | |
| 9A1FER-10 | 2026-08-31 23:27:12 | 45.80228 | 16.03195 | 60° | 31km/h | 3933m | 5.6m/s | -0.1°C | 59.5% | 0hPa | 3.0V | 00:00:00 | 00:24:30 | 08:30:00 | |
| 9A1FER-10 | 2026-08-31 23:26:57 | 45.80199 | 16.03036 | 81° | 27km/h | 3840m | 7.1m/s | 0.4°C | 63.4% | 0hPa | 3.0V | 00:00:00 | 00:24:15 | 00:00:00 | |
| 9A1FER-3 | 2026-08-31 23:26:53 | 45.80193 | 16.03002 | 82° | 26km/h | 3811m | 7.0m/s | 0.7°C | 62.6% | 0hPa | 3.0V | 00:00:00 | 00:24:11 | 00:00:00 | |
| 9A1FER-10 | 2026-08-31 23:26:42 | 45.80177 | 16.02893 | 98° | 26km/h | 3752m | 7.6m/s | 1.2°C | 60.8% | 0hPa | 3.0V | 00:00:00 | 00:24:00 | 00:00:00 | |
| 9A1FER-3 | 2026-08-31 23:26:38 | 45.80175 | 16.02863 | 67° | 29km/h | 3723m | 7.4m/s | 1.5°C | 60.3% | 0hPa | 3.0V | 00:00:00 | 00:23:56 | 00:00:00 | |
| 9A1FER-10 | 2026-08-31 23:26:27 | 45.80153 | 16.02758 | 61° | 27km/h | 3651m | 6.5m/s | 1.8°C | 65.1% | 0hPa | 3.0V | 00:00:00 | 00:23:45 | 00:00:00 | |
| 9A1FER-3 | 2026-08-31 23:26:23 | 45.80140 | 16.02712 | 65° | 26km/h | 3628m | 7.1m/s | 1.9°C | 68.1% | 0hPa | 3.0V | 00:00:00 | 00:23:41 | 00:00:00 | |
| 9A1FER-10 | 2026-08-31 23:26:12 | 45.80112 | 16.02617 | 68° | 26km/h | 3562m | 4.6m/s | 2.4°C | 68.4% | 0hPa | 3.0V | 00:00:00 | 00:23:30 | 00:00:00 | |
| 9A1FER-3 | 2026-08-31 23:26:08 | 45.80108 | 16.02585 | 83° | 26km/h | 3542m | 7.4m/s | 2.6°C | 68.9% | 0hPa | 3.0V | 00:00:00 | 00:23:26 | 00:00:00 | |
| 9A1FER-10 | 2026-08-31 23:25:57 | 45.80072 | 16.02490 | 76° | 26km/h | 3478m | 8.7m/s | 3.0°C | 72.4% | 0hPa | 3.0V | 00:00:00 | 00:23:15 | 00:00:00 | |
| 9A1FER-3 | 2026-08-31 23:25:53 | 45.80071 | 16.02456 | 96° | 26km/h | 3452m | 4.9m/s | 3.0°C | 76.6% | 0hPa | 3.0V | 00:00:00 | 00:23:11 | 00:00:00 | |
| 9A1FER-10 | 2026-08-31 23:25:42 | 45.80038 | 16.02363 | 56° | 20km/h | 3387m | 4.3m/s | 3.2°C | 84.4% | 0hPa | 3.0V | 00:00:00 | 00:23:00 | 00:00:00 | |
| 9A1FER-3 | 2026-08-31 23:25:38 | 45.80033 | 16.02331 | 87° | 18km/h | 3363m | 8.8m/s | 3.5°C | 80.2% | 0hPa | 3.0V | 00:00:00 | 00:22:56 | 00:00:00 | |
| 9A1FER-10 | 2026-08-31 23:25:27 | 45.80006 | 16.02264 | 39° | 18km/h | 3289m | 4.7m/s | 4.1°C | 81.9% | 0hPa | 3.0V | 00:00:00 | 00:22:45 | 00:00:00 | |
| 9A1FER-3 | 2026-08-31 23:25:23 | 45.80001 | 16.02245 | 105° | 22km/h | 3267m | 4.7m/s | 4.2°C | 82.5% | 0hPa | 3.0V | 00:00:00 | 00:22:41 | 00:00:00 | |
| 9A1FER-10 | 2026-08-31 23:25:12 | 45.79979 | 16.02181 | 65° | 20km/h | 3202m | 6.2m/s | 4.7°C | 81.9% | 0hPa | 3.0V | 00:00:00 | 00:22:30 | 00:00:00 | |
| 9A1FER-3 | 2026-08-31 23:25:08 | 45.79975 | 16.02145 | 90° | 22km/h | 3178m | 4.4m/s | 5.0°C | 79.8% | 0hPa | 3.0V | 00:00:00 | 00:22:26 | 00:00:00 | |
| 9A1FER-10 | 2026-08-31 23:24:57 | 45.79957 | 16.02079 | 72° | 24km/h | 3122m | 4.4m/s | 5.4°C | 82.6% | 0hPa | 3.0V | 00:00:00 | 00:22:15 | 08:30:00 | |
| 9A1FER-3 | 2026-08-31 23:24:53 | 45.79955 | 16.02037 | 91° | 22km/h | 3099m | 4.9m/s | 5.7°C | 80.7% | 0hPa | 3.0V | 00:00:00 | 00:22:11 | 08:30:00 | |
| 9A1FER-10 | 2026-08-31 23:24:42 | 45.79920 | 16.01967 | 48° | 18km/h | 3039m | 7.7m/s | 6.1°C | 82.9% | 0hPa | 3.0V | 00:00:00 | 00:22:00 | 00:00:00 | |
| 9A1FER-3 | 2026-08-31 23:24:38 | 45.79913 | 16.01943 | 86° | 20km/h | 3014m | 7.1m/s | 6.3°C | 80.8% | 0hPa | 3.0V | 00:00:00 | 00:21:56 | 00:00:00 | |
| 9A1FER-10 | 2026-08-31 23:24:27 | 45.79894 | 16.01877 | 77° | 24km/h | 2938m | 6.1m/s | 6.7°C | 0% | 0hPa | 3.0V | 00:00:00 | 00:21:45 | 00:00:00 | |
| 9A1FER-3 | 2026-08-31 23:24:23 | 45.79879 | 16.01844 | 48° | 26km/h | 2915m | 4.9m/s | 6.5°C | 0% | 0hPa | 3.0V | 00:00:00 | 00:21:41 | 00:00:00 | |
| 9A1FER-10 | 2026-08-31 23:24:12 | 45.79843 | 16.01773 | 53° | 27km/h | 2851m | 4.1m/s | 7.0°C | 96.1% | 0hPa | 3.0V | 00:00:00 | 00:21:30 | 00:00:00 | |
| 9A1FER-3 | 2026-08-31 23:24:08 | 45.79819 | 16.01736 | 45° | 24km/h | 2836m | 4.6m/s | 7.2°C | 94.4% | 0hPa | 3.0V | 00:00:00 | 00:21:26 | 00:00:00 | |
| 9A1FER-10 | 2026-08-31 23:23:57 | 45.79779 | 16.01666 | 54° | 22km/h | 2783m | 6.3m/s | 7.7°C | 93.2% | 0hPa | 3.0V | 00:00:00 | 00:21:15 | 00:00:00 | |
| 9A1FER-3 | 2026-08-31 23:23:53 | 45.79760 | 16.01648 | 33° | 20km/h | 2765m | 6.0m/s | 7.8°C | 92.8% | 0hPa | 3.0V | 00:00:00 | 00:21:11 | 00:00:00 | |
| 9A1FER-10 | 2026-08-31 23:23:42 | 45.79718 | 16.01587 | 18° | 22km/h | 2709m | 4.5m/s | 8.4°C | 90.4% | 0hPa | 3.0V | 00:00:00 | 00:21:00 | 00:00:00 | |
| 9A1FER-3 | 2026-08-31 23:23:38 | 45.79704 | 16.01577 | 49° | 20km/h | 2689m | 4.2m/s | 8.5°C | 92.2% | 0hPa | 3.0V | 00:00:00 | 00:20:56 | 00:00:00 | |
| 9A1FER-10 | 2026-08-31 23:23:27 | 45.79655 | 16.01515 | 48° | 18km/h | 2632m | 5.0m/s | 8.5°C | 0% | 0hPa | 3.0V | 00:00:00 | 00:20:45 | 00:00:00 | |
| 9A1FER-3 | 2026-08-31 23:23:23 | 45.79646 | 16.01501 | 36° | 20km/h | 2613m | 4.7m/s | 8.7°C | 0% | 0hPa | 3.0V | 00:00:00 | 00:20:41 | 00:00:00 | |
| 9A1FER-10 | 2026-08-31 23:23:12 | 45.79606 | 16.01451 | 61° | 18km/h | 2565m | 5.7m/s | 9.3°C | 95.3% | 0hPa | 3.0V | 00:00:00 | 00:20:30 | 00:00:00 | |
| 9A1FER-3 | 2026-08-31 23:23:08 | 45.79592 | 16.01436 | 29° | 16km/h | 2547m | 6.3m/s | 9.3°C | 95.7% | 0hPa | 3.0V | 00:00:00 | 00:20:26 | 00:00:00 | |
| 9A1FER-10 | 2026-08-31 23:22:57 | 45.79566 | 16.01379 | 17° | 15km/h | 2488m | 5.9m/s | 9.5°C | 95.2% | 0hPa | 3.0V | 00:00:00 | 00:20:15 | 00:00:00 | |
| 9A1FER-3 | 2026-08-31 23:22:53 | 45.79558 | 16.01363 | 67° | 13km/h | 2469m | 5.8m/s | 9.5°C | 93.7% | 0hPa | 3.0V | 00:00:00 | 00:20:11 | 00:00:00 | |
| 9A1FER-10 | 2026-08-31 23:22:42 | 45.79527 | 16.01333 | 6° | 11km/h | 2411m | 6.1m/s | 9.8°C | 93.7% | 0hPa | 3.0V | 00:00:00 | 00:20:00 | 08:30:00 | |
| 9A1FER-3 | 2026-08-31 23:22:38 | 45.79520 | 16.01326 | 14° | 13km/h | 2391m | 5.2m/s | 9.9°C | 93.8% | 0hPa | 3.0V | 00:00:00 | 00:19:56 | 08:30:00 | |
| 9A1FER-10 | 2026-08-31 23:22:27 | 45.79491 | 16.01340 | 308° | 11km/h | 2336m | 5.3m/s | 10.4°C | 91.8% | 0hPa | 3.0V | 00:00:00 | 00:19:45 | 00:00:00 | |
| 9A1FER-3 | 2026-08-31 23:22:23 | 45.79483 | 16.01347 | 24° | 11km/h | 2313m | 4.1m/s | 10.6°C | 90.9% | 0hPa | 3.0V | 00:00:00 | 00:19:41 | 00:00:00 | |
| 9A1FER-10 | 2026-08-31 23:22:12 | 45.79455 | 16.01356 | 294° | 16km/h | 2253m | 5.1m/s | 11.1°C | 87.8% | 0hPa | 3.0V | 00:00:00 | 00:19:30 | 00:00:00 | |
| 9A1FER-3 | 2026-08-31 23:22:08 | 45.79446 | 16.01363 | 346° | 16km/h | 2237m | 5.0m/s | 11.2°C | 87.2% | 0hPa | 3.0V | 00:00:00 | 00:19:26 | 00:00:00 | |
| 9A1FER-10 | 2026-08-31 23:21:57 | 45.79411 | 16.01419 | 320° | 15km/h | 2172m | 4.9m/s | 11.7°C | 83.8% | 0hPa | 3.0V | 00:00:00 | 00:19:15 | 00:00:00 | |
| 9A1FER-3 | 2026-08-31 23:21:53 | 45.79402 | 16.01427 | 320° | 18km/h | 2151m | 5.9m/s | 11.9°C | 82.6% | 0hPa | 3.0V | 00:00:00 | 00:19:11 | 00:00:00 | |
| 9A1FER-10 | 2026-08-31 23:21:42 | 45.79375 | 16.01480 | 307° | 18km/h | 2088m | 4.9m/s | 12.3°C | 79.1% | 0hPa | 3.0V | 00:00:00 | 00:19:00 | 00:00:00 | |
| 9A1FER-3 | 2026-08-31 23:21:38 | 45.79367 | 16.01506 | 285° | 18km/h | 2062m | 6.5m/s | 12.5°C | 77.6% | 0hPa | 3.0V | 00:00:00 | 00:18:56 | 00:00:00 | |
| 9A1FER-10 | 2026-08-31 23:21:27 | 45.79347 | 16.01575 | 291° | 22km/h | 2000m | 5.6m/s | 13.0°C | 74.9% | 0hPa | 3.0V | 00:00:00 | 00:18:45 | 00:00:00 | |
| 9A1FER-3 | 2026-08-31 23:21:23 | 45.79341 | 16.01603 | 297° | 24km/h | 1980m | 5.2m/s | 13.1°C | 73.4% | 0hPa | 3.0V | 00:00:00 | 00:18:41 | 00:00:00 | |
| 9A1FER-10 | 2026-08-31 23:21:12 | 45.79321 | 16.01689 | 273° | 27km/h | 1924m | 4.7m/s | 13.4°C | 70.4% | 0hPa | 3.0V | 00:00:00 | 00:18:30 | 00:00:00 | |
| 9A1FER-3 | 2026-08-31 23:21:08 | 45.79323 | 16.01725 | 272° | 29km/h | 1901m | 4.0m/s | 13.3°C | 69.7% | 0hPa | 3.0V | 00:00:00 | 00:18:26 | 00:00:00 | |
| 9A1FER-10 | 2026-08-31 23:20:57 | 45.79325 | 16.01833 | 256° | 29km/h | 1839m | 4.6m/s | 13.9°C | 67.4% | 0hPa | 3.0V | 00:00:00 | 00:18:15 | 00:00:00 | |
| 9A1FER-3 | 2026-08-31 23:20:53 | 45.79329 | 16.01879 | 275° | 29km/h | 1820m | 4.9m/s | 14.0°C | 67.5% | 0hPa | 3.0V | 00:00:00 | 00:18:11 | 00:00:00 | |
| 9A1FER-10 | 2026-08-31 23:20:42 | 45.79330 | 16.01987 | 262° | 29km/h | 1748m | 7.4m/s | 14.0°C | 69.0% | 0hPa | 3.0V | 00:00:00 | 00:18:00 | 00:00:00 | |
| 9A1FER-3 | 2026-08-31 23:20:38 | 45.79337 | 16.02032 | 266° | 29km/h | 1720m | 7.3m/s | 14.3°C | 67.3% | 0hPa | 3.0V | 00:00:00 | 00:17:56 | 00:00:00 | |
| 9A1FER-10 | 2026-08-31 23:20:27 | 45.79358 | 16.02136 | 252° | 27km/h | 1657m | 2.4m/s | 14.8°C | 66.8% | 0hPa | 3.0V | 00:00:00 | 00:17:45 | 08:30:00 | |
| 9A1FER-3 | 2026-08-31 23:20:23 | 45.79367 | 16.02177 | 250° | 27km/h | 1633m | 4.6m/s | 15.1°C | 65.1% | 0hPa | 3.0V | 00:00:00 | 00:17:41 | 08:30:00 | |
| 9A1FER-10 | 2026-08-31 23:20:12 | 45.79407 | 16.02267 | 218° | 31km/h | 1573m | 5.0m/s | 15.5°C | 64.3% | 0hPa | 3.0V | 00:00:00 | 00:17:30 | 00:00:00 | |
| 9A1FER-3 | 2026-08-31 23:20:08 | 45.79423 | 16.02298 | 243° | 33km/h | 1554m | 4.5m/s | 15.7°C | 63.9% | 0hPa | 3.0V | 00:00:00 | 00:17:26 | 00:00:00 | |
| 9A1FER-10 | 2026-08-31 23:19:57 | 45.79490 | 16.02393 | 223° | 33km/h | 1488m | 9.1m/s | 15.9°C | 63.9% | 0hPa | 3.0V | 00:00:00 | 00:17:15 | 00:00:00 | |
| 9A1FER-3 | 2026-08-31 23:19:53 | 45.79508 | 16.02429 | 241° | 35km/h | 1462m | 7.7m/s | 16.3°C | 62.1% | 0hPa | 3.0V | 00:00:00 | 00:17:11 | 00:00:00 | |
| 9A1FER-10 | 2026-08-31 23:19:42 | 45.79580 | 16.02512 | 201° | 31km/h | 1399m | 4.7m/s | 16.6°C | 61.8% | 0hPa | 3.0V | 00:00:00 | 00:17:00 | 00:00:00 | |
| 9A1FER-3 | 2026-08-31 23:19:38 | 45.79619 | 16.02527 | 199° | 29km/h | 1379m | 5.2m/s | 16.8°C | 61.2% | 0hPa | 3.0V | 00:00:00 | 00:16:56 | 00:00:00 | |
| 9A1FER-10 | 2026-08-31 23:19:27 | 45.79681 | 16.02593 | 233° | 37km/h | 1330m | 5.8m/s | 16.8°C | 61.5% | 0hPa | 3.0V | 00:00:00 | 00:16:45 | 00:00:00 | |
| 9A1FER-3 | 2026-08-31 23:19:23 | 45.79695 | 16.02630 | 246° | 42km/h | 1308m | 5.3m/s | 17.2°C | 60.2% | 0hPa | 3.0V | 00:00:00 | 00:16:41 | 00:00:00 | |
| 9A1FER-10 | 2026-08-31 23:19:12 | 45.79776 | 16.02728 | 193° | 46km/h | 1247m | 6.5m/s | 17.3°C | 60.9% | 0hPa | 3.0V | 00:00:00 | 00:16:30 | 00:00:00 | |
| 9A1FER-3 | 2026-08-31 23:19:08 | 45.79827 | 16.02739 | 193° | 44km/h | 1219m | 5.9m/s | 17.6°C | 59.8% | 0hPa | 3.0V | 00:00:00 | 00:16:26 | 00:00:00 | |
| 9A1FER-10 | 2026-08-31 23:18:57 | 45.79946 | 16.02757 | 191° | 47km/h | 1147m | 9.3m/s | 18.3°C | 57.8% | 0hPa | 3.0V | 00:00:00 | 00:16:15 | 00:00:00 | |
| 9A1FER-3 | 2026-08-31 23:18:53 | 45.79992 | 16.02776 | 195° | 44km/h | 1116m | 6.7m/s | 18.6°C | 56.8% | 0hPa | 3.0V | 00:00:00 | 00:16:11 | 00:00:00 | |
| 9A1FER-10 | 2026-08-31 23:18:42 | 45.80120 | 16.02797 | 191° | 46km/h | 1043m | 6.0m/s | 19.2°C | 55.3% | 0hPa | 3.0V | 00:00:00 | 00:16:00 | 00:00:00 | |
| 9A1FER-3 | 2026-08-31 23:18:38 | 45.80158 | 16.02799 | 177° | 49km/h | 1024m | 5.0m/s | 19.4°C | 54.6% | 0hPa | 3.0V | 00:00:00 | 00:15:56 | 00:00:00 | |
| 9A1FER-10 | 2026-08-31 23:18:27 | 45.80282 | 16.02859 | 195° | 44km/h | 969m | 5.7m/s | 19.8°C | 53.3% | 0hPa | 3.0V | 00:00:00 | 00:15:45 | 00:00:00 | |
| 9A1FER-3 | 2026-08-31 23:18:23 | 45.80334 | 16.02878 | 201° | 42km/h | 946m | 4.8m/s | 20.1°C | 52.7% | 0hPa | 3.0V | 00:00:00 | 00:15:41 | 00:00:00 | |
| 9A1FER-10 | 2026-08-31 23:18:12 | 45.80440 | 16.02931 | 184° | 51km/h | 891m | 7.0m/s | 20.4°C | 51.4% | 0hPa | 3.0V | 00:00:00 | 00:15:30 | 08:30:00 | |
| 9A1FER-3 | 2026-08-31 23:18:08 | 45.80490 | 16.02942 | 197° | 51km/h | 867m | 5.6m/s | 20.7°C | 50.9% | 0hPa | 3.0V | 00:00:00 | 00:15:26 | 08:30:00 | |
| 9A1FER-10 | 2026-08-31 23:17:57 | 45.80632 | 16.02990 | 197° | 51km/h | 811m | 4.6m/s | 20.6°C | 50.6% | 0hPa | 3.0V | 00:00:00 | 00:15:15 | 00:00:00 | |
| 9A1FER-3 | 2026-08-31 23:17:53 | 45.80676 | 16.02997 | 173° | 57km/h | 789m | 3.6m/s | 20.5°C | 50.7% | 0hPa | 3.0V | 00:00:00 | 00:15:11 | 00:00:00 | |
| 9A1FER-10 | 2026-08-31 23:17:42 | 45.80823 | 16.03020 | 182° | 62km/h | 727m | 6.9m/s | 20.5°C | 51.5% | 0hPa | 3.0V | 00:00:00 | 00:15:00 | 00:00:00 | |
| 9A1FER-3 | 2026-08-31 23:17:38 | 45.80890 | 16.03034 | 190° | 60km/h | 703m | 4.5m/s | 19.6°C | 56.5% | 0hPa | 3.0V | 00:00:00 | 00:14:56 | 00:00:00 | |
| 9A1FER-10 | 2026-08-31 23:17:27 | 45.81057 | 16.03066 | 178° | 58km/h | 647m | 4.7m/s | 19.2°C | 60.0% | 0hPa | 3.0V | 00:00:00 | 00:14:45 | 00:00:00 | |
| 9A1FER-3 | 2026-08-31 23:17:23 | 45.81119 | 16.03074 | 195° | 55km/h | 631m | 4.0m/s | 0°C | 0% | 0hPa | 0V | 00:00:00 | 00:14:41 | 00:00:00 | |
| 9A1FER-10 | 2026-08-31 23:17:12 | 45.81273 | 16.03131 | 194° | 53km/h | 584m | 4.8m/s | 0°C | 0% | 0hPa | 0V | 00:00:00 | 00:14:30 | 00:00:00 | |
| 9A1FER-3 | 2026-08-31 23:17:08 | 45.81321 | 16.03146 | 193° | 53km/h | 569m | 4.2m/s | 0°C | 0% | 0hPa | 0V | 00:00:00 | 00:14:26 | 00:00:00 | |
| 9A1FER-10 | 2026-08-31 23:16:57 | 45.81472 | 16.03158 | 188° | 46km/h | 530m | 3.0m/s | 0°C | 0% | 0hPa | 0V | 00:00:00 | 00:14:15 | 00:00:00 | |
| 9A1FER-3 | 2026-08-31 23:16:53 | 45.81516 | 16.03186 | 204° | 47km/h | 516m | 3.8m/s | 0°C | 0% | 0hPa | 0V | 00:00:00 | 00:14:11 | 00:00:00 | |
| 9A1FER-10 | 2026-08-31 23:16:42 | 45.81641 | 16.03205 | 199° | 44km/h | 472m | 3.1m/s | 0°C | 0% | 0hPa | 0V | 00:00:00 | 00:14:00 | 00:00:00 | |
| 9A1FER-3 | 2026-08-31 23:16:38 | 45.81692 | 16.03215 | 183° | 38km/h | 456m | 6.6m/s | 0°C | 0% | 0hPa | 0V | 00:00:00 | 00:13:56 | 00:00:00 | |
| 9A1FER-10 | 2026-08-31 23:16:27 | 45.81797 | 16.03262 | 177° | 38km/h | 411m | 5.8m/s | 0°C | 0% | 0hPa | 0V | 00:00:00 | 00:13:45 | 00:00:00 | |
| 9A1FER-3 | 2026-08-31 23:16:23 | 45.81837 | 16.03255 | 171° | 37km/h | 396m | 1.5m/s | 0°C | 0% | 0hPa | 0V | 00:00:00 | 00:13:41 | 00:00:00 | |
| 9A1FER-10 | 2026-08-31 23:16:12 | 45.81937 | 16.03278 | 188° | 31km/h | 351m | 5.3m/s | 0°C | 0% | 0hPa | 0V | 00:00:00 | 00:13:30 | 00:00:00 | |
| 9A1FER-3 | 2026-08-31 23:16:08 | 45.81962 | 16.03297 | 182° | 29km/h | 322m | 6.6m/s | 0°C | 0% | 0hPa | 0V | 00:00:00 | 00:13:26 | 00:00:00 | |
| 9A1FER-10 | 2026-08-31 23:15:57 | 45.82027 | 16.03339 | 144° | 31km/h | 254m | 4.0m/s | 0°C | 0% | 0hPa | 0V | 00:00:00 | 00:13:15 | 00:00:00 | |
| 9A1FER-3 | 2026-08-31 23:15:53 | 45.82055 | 16.03359 | 252° | 24km/h | 232m | 9.2m/s | 0°C | 0% | 0hPa | 0V | 00:00:00 | 00:13:11 | 00:00:00 |